<?xml version='1.0' encoding='UTF-8'?><gpx version="1.1" creator="JPX - https://github.com/jenetics/jpx" xmlns="http://www.topografix.com/GPX/1/1"><trk><trkseg><trkpt lat="44.3224815" lon="7.6542144"><ele>576.0</ele><time>2026-04-03T13:17:45.234Z</time></trkpt><trkpt lat="44.3224353" lon="7.6542815"><ele>576.0</ele><time>2026-04-03T13:17:51.246Z</time></trkpt><trkpt lat="44.3224722" lon="7.654356"><ele>576.0</ele><time>2026-04-03T13:18:12.245Z</time></trkpt><trkpt lat="44.3225054" lon="7.6545176"><ele>576.0</ele><time>2026-04-03T13:18:14.253Z</time></trkpt><trkpt lat="44.3225671" lon="7.6546759"><ele>576.0</ele><time>2026-04-03T13:18:16.252Z</time></trkpt><trkpt lat="44.3225917" lon="7.6547656"><ele>576.0</ele><time>2026-04-03T13:18:17.243Z</time></trkpt><trkpt lat="44.3226216" lon="7.6548623"><ele>576.0</ele><time>2026-04-03T13:18:18.241Z</time></trkpt><trkpt lat="44.3226513" lon="7.6549638"><ele>576.0</ele><time>2026-04-03T13:18:19.243Z</time></trkpt><trkpt lat="44.3226742" lon="7.655072"><ele>576.0</ele><time>2026-04-03T13:18:20.248Z</time></trkpt><trkpt lat="44.3226997" lon="7.6551871"><ele>576.0</ele><time>2026-04-03T13:18:21.244Z</time></trkpt><trkpt lat="44.3227282" lon="7.6553049"><ele>576.0</ele><time>2026-04-03T13:18:22.241Z</time></trkpt><trkpt lat="44.3227519" lon="7.6554203"><ele>576.0</ele><time>2026-04-03T13:18:23.242Z</time></trkpt><trkpt lat="44.3227549" lon="7.6555435"><ele>576.4</ele><time>2026-04-03T13:18:24.24Z</time></trkpt><trkpt lat="44.3227461" lon="7.655671"><ele>576.8</ele><time>2026-04-03T13:18:25.241Z</time></trkpt><trkpt lat="44.3227226" lon="7.6557964"><ele>577.1999999999999</ele><time>2026-04-03T13:18:26.243Z</time></trkpt><trkpt lat="44.3226987" lon="7.6559164"><ele>577.6</ele><time>2026-04-03T13:18:27.248Z</time></trkpt><trkpt lat="44.3226746" lon="7.6560432"><ele>578.0</ele><time>2026-04-03T13:18:28.242Z</time></trkpt><trkpt lat="44.3226483" lon="7.6561715"><ele>578.0</ele><time>2026-04-03T13:18:29.24Z</time></trkpt><trkpt lat="44.3226269" lon="7.6563"><ele>578.0</ele><time>2026-04-03T13:18:30.238Z</time></trkpt><trkpt lat="44.3226061" lon="7.6564338"><ele>578.0</ele><time>2026-04-03T13:18:31.239Z</time></trkpt><trkpt lat="44.3226021" lon="7.6565732"><ele>578.0</ele><time>2026-04-03T13:18:32.241Z</time></trkpt><trkpt lat="44.3226022" lon="7.6567194"><ele>578.0</ele><time>2026-04-03T13:18:33.248Z</time></trkpt><trkpt lat="44.3226035" lon="7.6568848"><ele>579.75</ele><time>2026-04-03T13:18:34.242Z</time></trkpt><trkpt lat="44.3226153" lon="7.6570377"><ele>581.5</ele><time>2026-04-03T13:18:35.241Z</time></trkpt><trkpt lat="44.3226266" lon="7.6572016"><ele>583.25</ele><time>2026-04-03T13:18:36.241Z</time></trkpt><trkpt lat="44.3226626" lon="7.6573691"><ele>585.0</ele><time>2026-04-03T13:18:37.242Z</time></trkpt><trkpt lat="44.3227156" lon="7.6575529"><ele>585.0</ele><time>2026-04-03T13:18:38.241Z</time></trkpt><trkpt lat="44.3227687" lon="7.6577575"><ele>585.0</ele><time>2026-04-03T13:18:39.246Z</time></trkpt><trkpt lat="44.3228152" lon="7.6579585"><ele>585.0</ele><time>2026-04-03T13:18:40.242Z</time></trkpt><trkpt lat="44.3228629" lon="7.6581593"><ele>586.6666666666666</ele><time>2026-04-03T13:18:41.243Z</time></trkpt><trkpt lat="44.3229144" lon="7.6583773"><ele>588.3333333333333</ele><time>2026-04-03T13:18:42.237Z</time></trkpt><trkpt lat="44.3229617" lon="7.6586006"><ele>590.0</ele><time>2026-04-03T13:18:43.241Z</time></trkpt><trkpt lat="44.3230011" lon="7.6588352"><ele>590.0</ele><time>2026-04-03T13:18:44.247Z</time></trkpt><trkpt lat="44.3230269" lon="7.6590699"><ele>590.0</ele><time>2026-04-03T13:18:45.241Z</time></trkpt><trkpt lat="44.3230493" lon="7.6592884"><ele>590.0</ele><time>2026-04-03T13:18:46.239Z</time></trkpt><trkpt lat="44.3230676" lon="7.6594898"><ele>585.25</ele><time>2026-04-03T13:18:47.237Z</time></trkpt><trkpt lat="44.3230893" lon="7.6596745"><ele>580.5</ele><time>2026-04-03T13:18:48.243Z</time></trkpt><trkpt lat="44.323108" lon="7.6598534"><ele>575.75</ele><time>2026-04-03T13:18:49.243Z</time></trkpt><trkpt lat="44.3231261" lon="7.660039"><ele>571.0</ele><time>2026-04-03T13:18:50.25Z</time></trkpt><trkpt lat="44.3231473" lon="7.6602151"><ele>570.75</ele><time>2026-04-03T13:18:51.251Z</time></trkpt><trkpt lat="44.3231748" lon="7.6603949"><ele>570.5</ele><time>2026-04-03T13:18:52.239Z</time></trkpt><trkpt lat="44.3231876" lon="7.6605612"><ele>570.25</ele><time>2026-04-03T13:18:53.239Z</time></trkpt><trkpt lat="44.3231961" lon="7.6607176"><ele>570.0</ele><time>2026-04-03T13:18:54.241Z</time></trkpt><trkpt lat="44.3231854" lon="7.660862"><ele>570.0</ele><time>2026-04-03T13:18:55.246Z</time></trkpt><trkpt lat="44.3231532" lon="7.6609825"><ele>570.0</ele><time>2026-04-03T13:18:56.252Z</time></trkpt><trkpt lat="44.3230855" lon="7.6610847"><ele>570.0</ele><time>2026-04-03T13:18:57.247Z</time></trkpt><trkpt lat="44.3229919" lon="7.6611739"><ele>570.0</ele><time>2026-04-03T13:18:58.244Z</time></trkpt><trkpt lat="44.3228776" lon="7.6612537"><ele>570.0</ele><time>2026-04-03T13:18:59.246Z</time></trkpt><trkpt lat="44.3227471" lon="7.6613077"><ele>572.25</ele><time>2026-04-03T13:19:00.245Z</time></trkpt><trkpt lat="44.3226339" lon="7.6613868"><ele>574.5</ele><time>2026-04-03T13:19:01.248Z</time></trkpt><trkpt lat="44.322549" lon="7.661492"><ele>576.75</ele><time>2026-04-03T13:19:02.246Z</time></trkpt><trkpt lat="44.3224825" lon="7.6616193"><ele>579.0</ele><time>2026-04-03T13:19:03.243Z</time></trkpt><trkpt lat="44.3224526" lon="7.6617689"><ele>579.0</ele><time>2026-04-03T13:19:04.246Z</time></trkpt><trkpt lat="44.3224315" lon="7.661938"><ele>579.0</ele><time>2026-04-03T13:19:05.237Z</time></trkpt><trkpt lat="44.3224182" lon="7.6621168"><ele>579.0</ele><time>2026-04-03T13:19:06.244Z</time></trkpt><trkpt lat="44.3224105" lon="7.6623037"><ele>579.0</ele><time>2026-04-03T13:19:07.24Z</time></trkpt><trkpt lat="44.3224165" lon="7.6624967"><ele>580.5</ele><time>2026-04-03T13:19:08.237Z</time></trkpt><trkpt lat="44.3224344" lon="7.6626933"><ele>582.0</ele><time>2026-04-03T13:19:09.237Z</time></trkpt><trkpt lat="44.3224551" lon="7.6628875"><ele>583.5</ele><time>2026-04-03T13:19:10.246Z</time></trkpt><trkpt lat="44.3224729" lon="7.6630811"><ele>585.0</ele><time>2026-04-03T13:19:11.239Z</time></trkpt><trkpt lat="44.3224938" lon="7.6632726"><ele>585.0</ele><time>2026-04-03T13:19:12.244Z</time></trkpt><trkpt lat="44.3225195" lon="7.6634683"><ele>585.0</ele><time>2026-04-03T13:19:13.251Z</time></trkpt><trkpt lat="44.3225399" lon="7.663659"><ele>585.0</ele><time>2026-04-03T13:19:14.247Z</time></trkpt><trkpt lat="44.3225602" lon="7.6638432"><ele>585.0</ele><time>2026-04-03T13:19:15.239Z</time></trkpt><trkpt lat="44.3225777" lon="7.6640335"><ele>585.75</ele><time>2026-04-03T13:19:16.238Z</time></trkpt><trkpt lat="44.3225941" lon="7.6642255"><ele>586.5</ele><time>2026-04-03T13:19:17.237Z</time></trkpt><trkpt lat="44.3226112" lon="7.6644177"><ele>587.25</ele><time>2026-04-03T13:19:18.237Z</time></trkpt><trkpt lat="44.3226251" lon="7.6646136"><ele>588.0</ele><time>2026-04-03T13:19:19.247Z</time></trkpt><trkpt lat="44.3226272" lon="7.664815"><ele>588.0</ele><time>2026-04-03T13:19:20.244Z</time></trkpt><trkpt lat="44.3226083" lon="7.6650239"><ele>588.0</ele><time>2026-04-03T13:19:21.246Z</time></trkpt><trkpt lat="44.322582" lon="7.6652368"><ele>588.0</ele><time>2026-04-03T13:19:22.239Z</time></trkpt><trkpt lat="44.3225541" lon="7.6654608"><ele>588.0</ele><time>2026-04-03T13:19:23.24Z</time></trkpt><trkpt lat="44.3225268" lon="7.6656919"><ele>588.0</ele><time>2026-04-03T13:19:24.239Z</time></trkpt><trkpt lat="44.3224982" lon="7.6659224"><ele>588.0</ele><time>2026-04-03T13:19:25.237Z</time></trkpt><trkpt lat="44.3224678" lon="7.6661561"><ele>586.0</ele><time>2026-04-03T13:19:26.238Z</time></trkpt><trkpt lat="44.3224358" lon="7.6664026"><ele>584.0</ele><time>2026-04-03T13:19:27.258Z</time></trkpt><trkpt lat="44.3224037" lon="7.6666665"><ele>582.0</ele><time>2026-04-03T13:19:28.24Z</time></trkpt><trkpt lat="44.3223668" lon="7.6669309"><ele>581.0</ele><time>2026-04-03T13:19:29.241Z</time></trkpt><trkpt lat="44.3223323" lon="7.6671932"><ele>580.0</ele><time>2026-04-03T13:19:30.242Z</time></trkpt><trkpt lat="44.3222964" lon="7.6674682"><ele>579.0</ele><time>2026-04-03T13:19:31.239Z</time></trkpt><trkpt lat="44.3222601" lon="7.6677486"><ele>582.3333333333334</ele><time>2026-04-03T13:19:32.245Z</time></trkpt><trkpt lat="44.3222205" lon="7.6680322"><ele>585.6666666666667</ele><time>2026-04-03T13:19:33.235Z</time></trkpt><trkpt lat="44.3221855" lon="7.6683098"><ele>589.0</ele><time>2026-04-03T13:19:34.243Z</time></trkpt><trkpt lat="44.3221595" lon="7.6685517"><ele>587.3333333333334</ele><time>2026-04-03T13:19:35.241Z</time></trkpt><trkpt lat="44.3221427" lon="7.6688044"><ele>585.6666666666666</ele><time>2026-04-03T13:19:36.236Z</time></trkpt><trkpt lat="44.322142" lon="7.669061"><ele>584.0</ele><time>2026-04-03T13:19:37.24Z</time></trkpt><trkpt lat="44.3221593" lon="7.6693171"><ele>584.0</ele><time>2026-04-03T13:19:38.252Z</time></trkpt><trkpt lat="44.3222022" lon="7.6695781"><ele>584.0</ele><time>2026-04-03T13:19:39.245Z</time></trkpt><trkpt lat="44.322262" lon="7.6698303"><ele>584.0</ele><time>2026-04-03T13:19:40.24Z</time></trkpt><trkpt lat="44.3223335" lon="7.6700779"><ele>583.3333333333333</ele><time>2026-04-03T13:19:41.237Z</time></trkpt><trkpt lat="44.3224115" lon="7.670307"><ele>582.6666666666666</ele><time>2026-04-03T13:19:42.238Z</time></trkpt><trkpt lat="44.3225013" lon="7.6705053"><ele>582.0</ele><time>2026-04-03T13:19:43.251Z</time></trkpt><trkpt lat="44.3226128" lon="7.6707034"><ele>582.0</ele><time>2026-04-03T13:19:44.241Z</time></trkpt><trkpt lat="44.3227418" lon="7.6708956"><ele>582.0</ele><time>2026-04-03T13:19:45.239Z</time></trkpt><trkpt lat="44.3228519" lon="7.671085"><ele>582.0</ele><time>2026-04-03T13:19:46.246Z</time></trkpt><trkpt lat="44.3229614" lon="7.6712646"><ele>583.0</ele><time>2026-04-03T13:19:47.25Z</time></trkpt><trkpt lat="44.3230746" lon="7.6714404"><ele>584.0</ele><time>2026-04-03T13:19:48.24Z</time></trkpt><trkpt lat="44.3231744" lon="7.6716"><ele>585.0</ele><time>2026-04-03T13:19:49.24Z</time></trkpt><trkpt lat="44.3232729" lon="7.6717571"><ele>585.0</ele><time>2026-04-03T13:19:50.242Z</time></trkpt><trkpt lat="44.3233684" lon="7.671924"><ele>585.0</ele><time>2026-04-03T13:19:51.242Z</time></trkpt><trkpt lat="44.3234689" lon="7.6720964"><ele>585.0</ele><time>2026-04-03T13:19:52.241Z</time></trkpt><trkpt lat="44.3235724" lon="7.6722699"><ele>585.0</ele><time>2026-04-03T13:19:53.243Z</time></trkpt><trkpt lat="44.3236637" lon="7.6724267"><ele>585.0</ele><time>2026-04-03T13:19:54.244Z</time></trkpt><trkpt lat="44.3237452" lon="7.6725657"><ele>585.0</ele><time>2026-04-03T13:19:55.243Z</time></trkpt><trkpt lat="44.3238176" lon="7.6726909"><ele>585.0</ele><time>2026-04-03T13:19:56.259Z</time></trkpt><trkpt lat="44.3238843" lon="7.6728037"><ele>585.3333333333334</ele><time>2026-04-03T13:19:57.242Z</time></trkpt><trkpt lat="44.3239339" lon="7.6728842"><ele>585.6666666666666</ele><time>2026-04-03T13:19:58.243Z</time></trkpt><trkpt lat="44.3239787" lon="7.6729465"><ele>586.0</ele><time>2026-04-03T13:19:59.24Z</time></trkpt><trkpt lat="44.3240302" lon="7.6730168"><ele>586.3333333333333</ele><time>2026-04-03T13:20:01.247Z</time></trkpt><trkpt lat="44.3241208" lon="7.673075"><ele>586.6666666666666</ele><time>2026-04-03T13:20:11.245Z</time></trkpt><trkpt lat="44.3242151" lon="7.6729738"><ele>587.0</ele><time>2026-04-03T13:20:13.25Z</time></trkpt><trkpt lat="44.3242883" lon="7.6729134"><ele>587.0</ele><time>2026-04-03T13:20:14.252Z</time></trkpt><trkpt lat="44.3243649" lon="7.6728416"><ele>587.0</ele><time>2026-04-03T13:20:15.244Z</time></trkpt><trkpt lat="44.3244497" lon="7.6727521"><ele>587.0</ele><time>2026-04-03T13:20:16.242Z</time></trkpt><trkpt lat="44.3245404" lon="7.6726706"><ele>587.0</ele><time>2026-04-03T13:20:17.239Z</time></trkpt><trkpt lat="44.324629" lon="7.6725825"><ele>587.0</ele><time>2026-04-03T13:20:18.238Z</time></trkpt><trkpt lat="44.3247309" lon="7.6724791"><ele>585.6666666666666</ele><time>2026-04-03T13:20:19.243Z</time></trkpt><trkpt lat="44.3248451" lon="7.6723769"><ele>584.3333333333334</ele><time>2026-04-03T13:20:20.238Z</time></trkpt><trkpt lat="44.3249786" lon="7.67227"><ele>583.0</ele><time>2026-04-03T13:20:21.243Z</time></trkpt><trkpt lat="44.3251315" lon="7.6721718"><ele>583.0</ele><time>2026-04-03T13:20:22.237Z</time></trkpt><trkpt lat="44.3252989" lon="7.6720627"><ele>583.0</ele><time>2026-04-03T13:20:23.24Z</time></trkpt><trkpt lat="44.3254635" lon="7.6719569"><ele>583.0</ele><time>2026-04-03T13:20:24.249Z</time></trkpt><trkpt lat="44.3256353" lon="7.671861"><ele>582.3333333333334</ele><time>2026-04-03T13:20:25.252Z</time></trkpt><trkpt lat="44.3258104" lon="7.6717725"><ele>581.6666666666666</ele><time>2026-04-03T13:20:26.241Z</time></trkpt><trkpt lat="44.3259898" lon="7.67169"><ele>581.0</ele><time>2026-04-03T13:20:27.243Z</time></trkpt><trkpt lat="44.3261691" lon="7.6716138"><ele>581.0</ele><time>2026-04-03T13:20:28.237Z</time></trkpt><trkpt lat="44.3263452" lon="7.6715426"><ele>581.0</ele><time>2026-04-03T13:20:29.237Z</time></trkpt><trkpt lat="44.3265141" lon="7.6714719"><ele>581.0</ele><time>2026-04-03T13:20:30.242Z</time></trkpt><trkpt lat="44.3266804" lon="7.6714002"><ele>580.6666666666666</ele><time>2026-04-03T13:20:31.238Z</time></trkpt><trkpt lat="44.3268409" lon="7.6713398"><ele>580.3333333333334</ele><time>2026-04-03T13:20:32.238Z</time></trkpt><trkpt lat="44.3269805" lon="7.6712839"><ele>580.0</ele><time>2026-04-03T13:20:33.236Z</time></trkpt><trkpt lat="44.3271136" lon="7.6712316"><ele>579.0</ele><time>2026-04-03T13:20:34.244Z</time></trkpt><trkpt lat="44.3272352" lon="7.6711829"><ele>578.0</ele><time>2026-04-03T13:20:35.246Z</time></trkpt><trkpt lat="44.3273587" lon="7.6711351"><ele>577.0</ele><time>2026-04-03T13:20:36.248Z</time></trkpt><trkpt lat="44.3274861" lon="7.6710862"><ele>576.0</ele><time>2026-04-03T13:20:37.243Z</time></trkpt><trkpt lat="44.3276107" lon="7.6710287"><ele>576.0</ele><time>2026-04-03T13:20:38.241Z</time></trkpt><trkpt lat="44.3277462" lon="7.6709675"><ele>576.0</ele><time>2026-04-03T13:20:39.24Z</time></trkpt><trkpt lat="44.3278706" lon="7.6708919"><ele>576.0</ele><time>2026-04-03T13:20:40.245Z</time></trkpt><trkpt lat="44.3279768" lon="7.6708054"><ele>576.0</ele><time>2026-04-03T13:20:41.257Z</time></trkpt><trkpt lat="44.3280565" lon="7.6707387"><ele>576.0</ele><time>2026-04-03T13:20:42.243Z</time></trkpt><trkpt lat="44.3281273" lon="7.6706859"><ele>576.0</ele><time>2026-04-03T13:20:43.239Z</time></trkpt><trkpt lat="44.3281904" lon="7.6707213"><ele>576.0</ele><time>2026-04-03T13:20:45.238Z</time></trkpt><trkpt lat="44.3281931" lon="7.6708755"><ele>576.0</ele><time>2026-04-03T13:20:47.246Z</time></trkpt><trkpt lat="44.3281856" lon="7.6709806"><ele>576.0</ele><time>2026-04-03T13:20:48.25Z</time></trkpt><trkpt lat="44.3281669" lon="7.6711359"><ele>576.0</ele><time>2026-04-03T13:20:49.252Z</time></trkpt><trkpt lat="44.3281469" lon="7.6713128"><ele>575.75</ele><time>2026-04-03T13:20:50.249Z</time></trkpt><trkpt lat="44.3281085" lon="7.6714964"><ele>575.5</ele><time>2026-04-03T13:20:51.241Z</time></trkpt><trkpt lat="44.3280875" lon="7.6716832"><ele>575.25</ele><time>2026-04-03T13:20:52.249Z</time></trkpt><trkpt lat="44.3280478" lon="7.671875"><ele>575.0</ele><time>2026-04-03T13:20:53.248Z</time></trkpt><trkpt lat="44.3280225" lon="7.6720571"><ele>573.5</ele><time>2026-04-03T13:20:54.239Z</time></trkpt><trkpt lat="44.327994" lon="7.672252"><ele>572.0</ele><time>2026-04-03T13:20:55.245Z</time></trkpt><trkpt lat="44.3279641" lon="7.6724465"><ele>570.5</ele><time>2026-04-03T13:20:56.24Z</time></trkpt><trkpt lat="44.3279342" lon="7.6726332"><ele>569.0</ele><time>2026-04-03T13:20:57.235Z</time></trkpt><trkpt lat="44.3278946" lon="7.6728254"><ele>568.0</ele><time>2026-04-03T13:20:58.237Z</time></trkpt><trkpt lat="44.3278626" lon="7.6730094"><ele>567.0</ele><time>2026-04-03T13:20:59.238Z</time></trkpt><trkpt lat="44.327829" lon="7.6732018"><ele>566.0</ele><time>2026-04-03T13:21:00.238Z</time></trkpt><trkpt lat="44.3277975" lon="7.673387"><ele>565.0</ele><time>2026-04-03T13:21:01.238Z</time></trkpt><trkpt lat="44.3277646" lon="7.6735755"><ele>565.5</ele><time>2026-04-03T13:21:02.239Z</time></trkpt><trkpt lat="44.3277328" lon="7.6737569"><ele>566.0</ele><time>2026-04-03T13:21:03.239Z</time></trkpt><trkpt lat="44.3277011" lon="7.6739438"><ele>566.5</ele><time>2026-04-03T13:21:04.242Z</time></trkpt><trkpt lat="44.3276736" lon="7.674131"><ele>567.0</ele><time>2026-04-03T13:21:05.239Z</time></trkpt><trkpt lat="44.3276423" lon="7.6743211"><ele>567.25</ele><time>2026-04-03T13:21:06.244Z</time></trkpt><trkpt lat="44.3276145" lon="7.6745061"><ele>567.5</ele><time>2026-04-03T13:21:07.254Z</time></trkpt><trkpt lat="44.3275849" lon="7.6746898"><ele>567.75</ele><time>2026-04-03T13:21:08.241Z</time></trkpt><trkpt lat="44.3275631" lon="7.6748651"><ele>568.0</ele><time>2026-04-03T13:21:09.24Z</time></trkpt><trkpt lat="44.3275358" lon="7.6750536"><ele>568.0</ele><time>2026-04-03T13:21:10.267Z</time></trkpt><trkpt lat="44.3275028" lon="7.6752445"><ele>568.0</ele><time>2026-04-03T13:21:11.245Z</time></trkpt><trkpt lat="44.3274721" lon="7.6754462"><ele>568.0</ele><time>2026-04-03T13:21:12.242Z</time></trkpt><trkpt lat="44.327442" lon="7.6756468"><ele>568.0</ele><time>2026-04-03T13:21:13.243Z</time></trkpt><trkpt lat="44.3274178" lon="7.6758514"><ele>568.0</ele><time>2026-04-03T13:21:14.248Z</time></trkpt><trkpt lat="44.3273905" lon="7.6760366"><ele>568.0</ele><time>2026-04-03T13:21:15.241Z</time></trkpt><trkpt lat="44.3273588" lon="7.676227"><ele>568.0</ele><time>2026-04-03T13:21:16.244Z</time></trkpt><trkpt lat="44.3273264" lon="7.6764197"><ele>568.0</ele><time>2026-04-03T13:21:17.245Z</time></trkpt><trkpt lat="44.3272991" lon="7.6766039"><ele>568.0</ele><time>2026-04-03T13:21:18.244Z</time></trkpt><trkpt lat="44.3272774" lon="7.6767753"><ele>568.0</ele><time>2026-04-03T13:21:19.24Z</time></trkpt><trkpt lat="44.3272525" lon="7.6769534"><ele>568.0</ele><time>2026-04-03T13:21:20.24Z</time></trkpt><trkpt lat="44.3272263" lon="7.6771073"><ele>568.0</ele><time>2026-04-03T13:21:21.238Z</time></trkpt><trkpt lat="44.3272014" lon="7.6772661"><ele>568.25</ele><time>2026-04-03T13:21:22.242Z</time></trkpt><trkpt lat="44.3271767" lon="7.677429"><ele>568.5</ele><time>2026-04-03T13:21:23.247Z</time></trkpt><trkpt lat="44.3271547" lon="7.6775842"><ele>568.75</ele><time>2026-04-03T13:21:24.252Z</time></trkpt><trkpt lat="44.3271285" lon="7.6777647"><ele>569.0</ele><time>2026-04-03T13:21:25.24Z</time></trkpt><trkpt lat="44.3271016" lon="7.6779458"><ele>569.75</ele><time>2026-04-03T13:21:26.247Z</time></trkpt><trkpt lat="44.3270802" lon="7.6781374"><ele>570.5</ele><time>2026-04-03T13:21:27.24Z</time></trkpt><trkpt lat="44.3270526" lon="7.6783282"><ele>571.25</ele><time>2026-04-03T13:21:28.235Z</time></trkpt><trkpt lat="44.327023" lon="7.6785182"><ele>572.0</ele><time>2026-04-03T13:21:29.241Z</time></trkpt><trkpt lat="44.3269934" lon="7.6787079"><ele>572.0</ele><time>2026-04-03T13:21:30.24Z</time></trkpt><trkpt lat="44.3269545" lon="7.6788854"><ele>572.0</ele><time>2026-04-03T13:21:31.243Z</time></trkpt><trkpt lat="44.3269203" lon="7.679053"><ele>572.0</ele><time>2026-04-03T13:21:32.239Z</time></trkpt><trkpt lat="44.3268776" lon="7.6792079"><ele>572.0</ele><time>2026-04-03T13:21:33.243Z</time></trkpt><trkpt lat="44.3268312" lon="7.679359"><ele>571.6</ele><time>2026-04-03T13:21:34.242Z</time></trkpt><trkpt lat="44.3267836" lon="7.6794959"><ele>571.2</ele><time>2026-04-03T13:21:35.24Z</time></trkpt><trkpt lat="44.3267385" lon="7.6796174"><ele>570.8</ele><time>2026-04-03T13:21:36.237Z</time></trkpt><trkpt lat="44.3266915" lon="7.6797454"><ele>570.4</ele><time>2026-04-03T13:21:37.239Z</time></trkpt><trkpt lat="44.3266486" lon="7.6798603"><ele>570.0</ele><time>2026-04-03T13:21:38.239Z</time></trkpt><trkpt lat="44.3266149" lon="7.679954"><ele>570.0</ele><time>2026-04-03T13:21:39.256Z</time></trkpt><trkpt lat="44.326592" lon="7.6800378"><ele>570.0</ele><time>2026-04-03T13:21:40.247Z</time></trkpt><trkpt lat="44.3265622" lon="7.6801293"><ele>570.0</ele><time>2026-04-03T13:21:41.243Z</time></trkpt><trkpt lat="44.3265347" lon="7.6802908"><ele>570.0</ele><time>2026-04-03T13:21:43.243Z</time></trkpt><trkpt lat="44.3265616" lon="7.6803932"><ele>570.0</ele><time>2026-04-03T13:21:44.241Z</time></trkpt><trkpt lat="44.3266218" lon="7.6804935"><ele>570.0</ele><time>2026-04-03T13:21:45.241Z</time></trkpt><trkpt lat="44.3267046" lon="7.6805784"><ele>574.25</ele><time>2026-04-03T13:21:46.241Z</time></trkpt><trkpt lat="44.3268026" lon="7.6806645"><ele>578.5</ele><time>2026-04-03T13:21:47.238Z</time></trkpt><trkpt lat="44.326907" lon="7.6807678"><ele>582.75</ele><time>2026-04-03T13:21:48.241Z</time></trkpt><trkpt lat="44.3270141" lon="7.6808882"><ele>587.0</ele><time>2026-04-03T13:21:49.25Z</time></trkpt><trkpt lat="44.3271187" lon="7.6810093"><ele>585.75</ele><time>2026-04-03T13:21:50.244Z</time></trkpt><trkpt lat="44.3272195" lon="7.6811396"><ele>584.5</ele><time>2026-04-03T13:21:51.236Z</time></trkpt><trkpt lat="44.3273226" lon="7.6812869"><ele>583.25</ele><time>2026-04-03T13:21:52.239Z</time></trkpt><trkpt lat="44.3274272" lon="7.681447"><ele>582.0</ele><time>2026-04-03T13:21:53.24Z</time></trkpt><trkpt lat="44.3275279" lon="7.6816101"><ele>582.0</ele><time>2026-04-03T13:21:54.241Z</time></trkpt><trkpt lat="44.32763" lon="7.6817802"><ele>582.0</ele><time>2026-04-03T13:21:55.239Z</time></trkpt><trkpt lat="44.3277326" lon="7.6819528"><ele>582.0</ele><time>2026-04-03T13:21:56.238Z</time></trkpt><trkpt lat="44.3278406" lon="7.6821315"><ele>587.6666666666666</ele><time>2026-04-03T13:21:57.238Z</time></trkpt><trkpt lat="44.3279512" lon="7.6823174"><ele>593.3333333333333</ele><time>2026-04-03T13:21:58.238Z</time></trkpt><trkpt lat="44.3280655" lon="7.6825079"><ele>599.0</ele><time>2026-04-03T13:21:59.238Z</time></trkpt><trkpt lat="44.3281832" lon="7.6827013"><ele>588.6666666666666</ele><time>2026-04-03T13:22:00.241Z</time></trkpt><trkpt lat="44.328305" lon="7.6828961"><ele>578.3333333333334</ele><time>2026-04-03T13:22:01.242Z</time></trkpt><trkpt lat="44.3284314" lon="7.6830989"><ele>568.0</ele><time>2026-04-03T13:22:02.243Z</time></trkpt><trkpt lat="44.328563" lon="7.6833068"><ele>568.0</ele><time>2026-04-03T13:22:03.237Z</time></trkpt><trkpt lat="44.3286941" lon="7.6835196"><ele>568.0</ele><time>2026-04-03T13:22:04.239Z</time></trkpt><trkpt lat="44.3288262" lon="7.6837396"><ele>568.0</ele><time>2026-04-03T13:22:05.236Z</time></trkpt><trkpt lat="44.3289621" lon="7.6839622"><ele>565.6666666666667</ele><time>2026-04-03T13:22:06.241Z</time></trkpt><trkpt lat="44.3290963" lon="7.684177"><ele>563.3333333333334</ele><time>2026-04-03T13:22:07.236Z</time></trkpt><trkpt lat="44.3292191" lon="7.6843781"><ele>561.0</ele><time>2026-04-03T13:22:08.236Z</time></trkpt><trkpt lat="44.329343" lon="7.6845731"><ele>561.0</ele><time>2026-04-03T13:22:09.235Z</time></trkpt><trkpt lat="44.3294698" lon="7.6847871"><ele>561.0</ele><time>2026-04-03T13:22:10.236Z</time></trkpt><trkpt lat="44.3296058" lon="7.6850043"><ele>561.0</ele><time>2026-04-03T13:22:11.245Z</time></trkpt><trkpt lat="44.3297382" lon="7.685233"><ele>559.6666666666666</ele><time>2026-04-03T13:22:12.236Z</time></trkpt><trkpt lat="44.3298748" lon="7.6854595"><ele>558.3333333333333</ele><time>2026-04-03T13:22:13.251Z</time></trkpt><trkpt lat="44.3300133" lon="7.6856898"><ele>557.0</ele><time>2026-04-03T13:22:14.244Z</time></trkpt><trkpt lat="44.3301577" lon="7.6859216"><ele>557.0</ele><time>2026-04-03T13:22:15.237Z</time></trkpt><trkpt lat="44.3303023" lon="7.6861585"><ele>557.0</ele><time>2026-04-03T13:22:16.248Z</time></trkpt><trkpt lat="44.3304498" lon="7.6864003"><ele>556.0</ele><time>2026-04-03T13:22:17.236Z</time></trkpt><trkpt lat="44.3306004" lon="7.6866354"><ele>555.0</ele><time>2026-04-03T13:22:18.233Z</time></trkpt><trkpt lat="44.3307505" lon="7.6868688"><ele>554.5</ele><time>2026-04-03T13:22:19.234Z</time></trkpt><trkpt lat="44.3309103" lon="7.6871013"><ele>554.0</ele><time>2026-04-03T13:22:20.247Z</time></trkpt><trkpt lat="44.3310836" lon="7.6873264"><ele>554.0</ele><time>2026-04-03T13:22:21.239Z</time></trkpt><trkpt lat="44.3312645" lon="7.6875489"><ele>554.0</ele><time>2026-04-03T13:22:22.252Z</time></trkpt><trkpt lat="44.3314538" lon="7.6877676"><ele>554.0</ele><time>2026-04-03T13:22:23.235Z</time></trkpt><trkpt lat="44.3316444" lon="7.6879815"><ele>554.0</ele><time>2026-04-03T13:22:24.237Z</time></trkpt><trkpt lat="44.3318347" lon="7.6881931"><ele>554.0</ele><time>2026-04-03T13:22:25.238Z</time></trkpt><trkpt lat="44.3320304" lon="7.688406"><ele>554.0</ele><time>2026-04-03T13:22:26.24Z</time></trkpt><trkpt lat="44.3322258" lon="7.6886199"><ele>557.5</ele><time>2026-04-03T13:22:27.237Z</time></trkpt><trkpt lat="44.3324239" lon="7.6888287"><ele>561.0</ele><time>2026-04-03T13:22:28.238Z</time></trkpt><trkpt lat="44.3326226" lon="7.689036"><ele>561.0</ele><time>2026-04-03T13:22:29.244Z</time></trkpt><trkpt lat="44.3328259" lon="7.6892215"><ele>561.0</ele><time>2026-04-03T13:22:30.241Z</time></trkpt><trkpt lat="44.3330383" lon="7.6893926"><ele>556.5</ele><time>2026-04-03T13:22:31.245Z</time></trkpt><trkpt lat="44.3332569" lon="7.6895507"><ele>552.0</ele><time>2026-04-03T13:22:32.236Z</time></trkpt><trkpt lat="44.3334792" lon="7.6897072"><ele>552.0</ele><time>2026-04-03T13:22:33.236Z</time></trkpt><trkpt lat="44.333703" lon="7.6898637"><ele>552.0</ele><time>2026-04-03T13:22:34.247Z</time></trkpt><trkpt lat="44.3339279" lon="7.6900172"><ele>549.0</ele><time>2026-04-03T13:22:35.241Z</time></trkpt><trkpt lat="44.3341527" lon="7.6901738"><ele>546.0</ele><time>2026-04-03T13:22:36.245Z</time></trkpt><trkpt lat="44.3343779" lon="7.6903257"><ele>546.0</ele><time>2026-04-03T13:22:37.249Z</time></trkpt><trkpt lat="44.3346027" lon="7.6904789"><ele>546.0</ele><time>2026-04-03T13:22:38.245Z</time></trkpt><trkpt lat="44.3348281" lon="7.6906397"><ele>545.0</ele><time>2026-04-03T13:22:39.237Z</time></trkpt><trkpt lat="44.3350505" lon="7.690795"><ele>544.0</ele><time>2026-04-03T13:22:40.243Z</time></trkpt><trkpt lat="44.3352739" lon="7.6909475"><ele>545.0</ele><time>2026-04-03T13:22:41.243Z</time></trkpt><trkpt lat="44.3354984" lon="7.6910969"><ele>546.0</ele><time>2026-04-03T13:22:42.236Z</time></trkpt><trkpt lat="44.3357233" lon="7.6912444"><ele>546.0</ele><time>2026-04-03T13:22:43.24Z</time></trkpt><trkpt lat="44.3359505" lon="7.6913795"><ele>546.0</ele><time>2026-04-03T13:22:44.239Z</time></trkpt><trkpt lat="44.3361835" lon="7.6915034"><ele>543.5</ele><time>2026-04-03T13:22:45.255Z</time></trkpt><trkpt lat="44.3364145" lon="7.6916191"><ele>541.0</ele><time>2026-04-03T13:22:46.242Z</time></trkpt><trkpt lat="44.3366355" lon="7.691727"><ele>541.0</ele><time>2026-04-03T13:22:47.238Z</time></trkpt><trkpt lat="44.3368402" lon="7.6918216"><ele>541.0</ele><time>2026-04-03T13:22:48.241Z</time></trkpt><trkpt lat="44.3370375" lon="7.6919108"><ele>541.0</ele><time>2026-04-03T13:22:49.242Z</time></trkpt><trkpt lat="44.337235" lon="7.6920022"><ele>541.6666666666667</ele><time>2026-04-03T13:22:50.247Z</time></trkpt><trkpt lat="44.3374344" lon="7.6920941"><ele>542.3333333333334</ele><time>2026-04-03T13:22:51.238Z</time></trkpt><trkpt lat="44.3376366" lon="7.6921858"><ele>543.0</ele><time>2026-04-03T13:22:52.244Z</time></trkpt><trkpt lat="44.3378421" lon="7.6922748"><ele>543.0</ele><time>2026-04-03T13:22:53.24Z</time></trkpt><trkpt lat="44.3380477" lon="7.6923616"><ele>543.0</ele><time>2026-04-03T13:22:54.239Z</time></trkpt><trkpt lat="44.3382521" lon="7.6924585"><ele>543.0</ele><time>2026-04-03T13:22:55.25Z</time></trkpt><trkpt lat="44.3384606" lon="7.6925557"><ele>541.3333333333334</ele><time>2026-04-03T13:22:56.243Z</time></trkpt><trkpt lat="44.3386711" lon="7.6926561"><ele>539.6666666666667</ele><time>2026-04-03T13:22:57.24Z</time></trkpt><trkpt lat="44.3388847" lon="7.6927542"><ele>538.0</ele><time>2026-04-03T13:22:58.237Z</time></trkpt><trkpt lat="44.3390994" lon="7.6928547"><ele>544.0</ele><time>2026-04-03T13:22:59.238Z</time></trkpt><trkpt lat="44.3393173" lon="7.692947"><ele>550.0</ele><time>2026-04-03T13:23:00.247Z</time></trkpt><trkpt lat="44.3395392" lon="7.6930249"><ele>545.5</ele><time>2026-04-03T13:23:01.238Z</time></trkpt><trkpt lat="44.3397659" lon="7.6930824"><ele>541.0</ele><time>2026-04-03T13:23:02.25Z</time></trkpt><trkpt lat="44.3399874" lon="7.6931241"><ele>541.0</ele><time>2026-04-03T13:23:03.237Z</time></trkpt><trkpt lat="44.3401962" lon="7.6931549"><ele>541.0</ele><time>2026-04-03T13:23:04.24Z</time></trkpt><trkpt lat="44.3403876" lon="7.6931758"><ele>541.0</ele><time>2026-04-03T13:23:05.238Z</time></trkpt><trkpt lat="44.3405655" lon="7.6931957"><ele>540.0</ele><time>2026-04-03T13:23:06.239Z</time></trkpt><trkpt lat="44.3407323" lon="7.6932184"><ele>539.0</ele><time>2026-04-03T13:23:07.245Z</time></trkpt><trkpt lat="44.3408855" lon="7.6932412"><ele>538.0</ele><time>2026-04-03T13:23:08.243Z</time></trkpt><trkpt lat="44.3410354" lon="7.6932596"><ele>538.0</ele><time>2026-04-03T13:23:09.238Z</time></trkpt><trkpt lat="44.3411796" lon="7.6932795"><ele>538.0</ele><time>2026-04-03T13:23:10.245Z</time></trkpt><trkpt lat="44.3413252" lon="7.6932998"><ele>538.0</ele><time>2026-04-03T13:23:11.24Z</time></trkpt><trkpt lat="44.3414737" lon="7.6933265"><ele>538.0</ele><time>2026-04-03T13:23:12.241Z</time></trkpt><trkpt lat="44.3416222" lon="7.6933461"><ele>537.25</ele><time>2026-04-03T13:23:13.237Z</time></trkpt><trkpt lat="44.3417716" lon="7.6933614"><ele>536.5</ele><time>2026-04-03T13:23:14.245Z</time></trkpt><trkpt lat="44.3419107" lon="7.6933761"><ele>535.75</ele><time>2026-04-03T13:23:15.242Z</time></trkpt><trkpt lat="44.342043" lon="7.6933927"><ele>535.0</ele><time>2026-04-03T13:23:16.241Z</time></trkpt><trkpt lat="44.342167" lon="7.6934072"><ele>534.6</ele><time>2026-04-03T13:23:17.251Z</time></trkpt><trkpt lat="44.3422789" lon="7.6934221"><ele>534.2</ele><time>2026-04-03T13:23:18.244Z</time></trkpt><trkpt lat="44.342375" lon="7.6934387"><ele>533.8</ele><time>2026-04-03T13:23:19.24Z</time></trkpt><trkpt lat="44.3424467" lon="7.693453"><ele>533.4</ele><time>2026-04-03T13:23:20.252Z</time></trkpt><trkpt lat="44.3425562" lon="7.6935056"><ele>533.0</ele><time>2026-04-03T13:23:22.24Z</time></trkpt><trkpt lat="44.3426463" lon="7.6935826"><ele>533.1999999999999</ele><time>2026-04-03T13:23:24.238Z</time></trkpt><trkpt lat="44.3427334" lon="7.6936433"><ele>533.4</ele><time>2026-04-03T13:23:26.243Z</time></trkpt><trkpt lat="44.3428551" lon="7.6937267"><ele>533.5999999999999</ele><time>2026-04-03T13:23:28.249Z</time></trkpt><trkpt lat="44.3429357" lon="7.6937729"><ele>533.8</ele><time>2026-04-03T13:23:29.236Z</time></trkpt><trkpt lat="44.3430308" lon="7.6938396"><ele>534.0</ele><time>2026-04-03T13:23:30.238Z</time></trkpt><trkpt lat="44.3431484" lon="7.6938997"><ele>532.0</ele><time>2026-04-03T13:23:31.24Z</time></trkpt><trkpt lat="44.3432834" lon="7.6939662"><ele>530.0</ele><time>2026-04-03T13:23:32.244Z</time></trkpt><trkpt lat="44.343427" lon="7.6940588"><ele>528.0</ele><time>2026-04-03T13:23:33.237Z</time></trkpt><trkpt lat="44.3435736" lon="7.6941763"><ele>528.0</ele><time>2026-04-03T13:23:34.236Z</time></trkpt><trkpt lat="44.3437208" lon="7.6943087"><ele>528.0</ele><time>2026-04-03T13:23:35.24Z</time></trkpt><trkpt lat="44.343854" lon="7.6944482"><ele>528.0</ele><time>2026-04-03T13:23:36.238Z</time></trkpt><trkpt lat="44.3439903" lon="7.6945913"><ele>528.0</ele><time>2026-04-03T13:23:37.248Z</time></trkpt><trkpt lat="44.3441228" lon="7.6947474"><ele>528.0</ele><time>2026-04-03T13:23:38.236Z</time></trkpt><trkpt lat="44.3442631" lon="7.694877"><ele>528.0</ele><time>2026-04-03T13:23:39.245Z</time></trkpt><trkpt lat="44.3444134" lon="7.6949925"><ele>528.0</ele><time>2026-04-03T13:23:40.245Z</time></trkpt><trkpt lat="44.3445664" lon="7.6950785"><ele>528.0</ele><time>2026-04-03T13:23:41.247Z</time></trkpt><trkpt lat="44.3447057" lon="7.6951374"><ele>528.0</ele><time>2026-04-03T13:23:42.238Z</time></trkpt><trkpt lat="44.3448298" lon="7.6951892"><ele>528.0</ele><time>2026-04-03T13:23:43.236Z</time></trkpt><trkpt lat="44.3449509" lon="7.6952555"><ele>529.6</ele><time>2026-04-03T13:23:44.242Z</time></trkpt><trkpt lat="44.3450481" lon="7.6953406"><ele>531.1999999999999</ele><time>2026-04-03T13:23:45.239Z</time></trkpt><trkpt lat="44.3451346" lon="7.6954257"><ele>532.8</ele><time>2026-04-03T13:23:46.244Z</time></trkpt><trkpt lat="44.3452122" lon="7.6954994"><ele>534.4</ele><time>2026-04-03T13:23:47.248Z</time></trkpt><trkpt lat="44.3452971" lon="7.6955502"><ele>536.0</ele><time>2026-04-03T13:23:48.247Z</time></trkpt><trkpt lat="44.345395" lon="7.6955824"><ele>536.0</ele><time>2026-04-03T13:23:49.243Z</time></trkpt><trkpt lat="44.3455083" lon="7.6955765"><ele>536.0</ele><time>2026-04-03T13:23:50.236Z</time></trkpt><trkpt lat="44.3456375" lon="7.6955616"><ele>536.0</ele><time>2026-04-03T13:23:51.236Z</time></trkpt><trkpt lat="44.3458016" lon="7.6955382"><ele>536.0</ele><time>2026-04-03T13:23:52.239Z</time></trkpt><trkpt lat="44.3459595" lon="7.6955193"><ele>535.75</ele><time>2026-04-03T13:23:53.238Z</time></trkpt><trkpt lat="44.3461144" lon="7.6955042"><ele>535.5</ele><time>2026-04-03T13:23:54.25Z</time></trkpt><trkpt lat="44.3462595" lon="7.6955212"><ele>535.25</ele><time>2026-04-03T13:23:55.251Z</time></trkpt><trkpt lat="44.3463879" lon="7.695536"><ele>535.0</ele><time>2026-04-03T13:23:56.235Z</time></trkpt><trkpt lat="44.3465059" lon="7.6955233"><ele>533.75</ele><time>2026-04-03T13:23:57.242Z</time></trkpt><trkpt lat="44.3466203" lon="7.6954792"><ele>532.5</ele><time>2026-04-03T13:23:58.237Z</time></trkpt><trkpt lat="44.3467361" lon="7.6953907"><ele>531.25</ele><time>2026-04-03T13:23:59.237Z</time></trkpt><trkpt lat="44.3468496" lon="7.6953037"><ele>530.0</ele><time>2026-04-03T13:24:00.238Z</time></trkpt><trkpt lat="44.3469271" lon="7.6952271"><ele>530.0</ele><time>2026-04-03T13:24:01.237Z</time></trkpt><trkpt lat="44.3470023" lon="7.6951506"><ele>530.0</ele><time>2026-04-03T13:24:02.239Z</time></trkpt><trkpt lat="44.347062" lon="7.6950942"><ele>530.0</ele><time>2026-04-03T13:24:03.24Z</time></trkpt><trkpt lat="44.3471416" lon="7.6950416"><ele>530.0</ele><time>2026-04-03T13:24:05.244Z</time></trkpt><trkpt lat="44.3471716" lon="7.6951659"><ele>530.0</ele><time>2026-04-03T13:24:37.249Z</time></trkpt><trkpt lat="44.347207" lon="7.6952482"><ele>530.0</ele><time>2026-04-03T13:24:39.258Z</time></trkpt><trkpt lat="44.3472566" lon="7.6953549"><ele>544.5</ele><time>2026-04-03T13:24:42.24Z</time></trkpt><trkpt lat="44.3473228" lon="7.6954915"><ele>559.0</ele><time>2026-04-03T13:24:43.248Z</time></trkpt><trkpt lat="44.3475715" lon="7.6959445"><ele>559.0</ele><time>2026-04-03T13:24:44.245Z</time></trkpt><trkpt lat="44.3476309" lon="7.6960212"><ele>559.0</ele><time>2026-04-03T13:24:45.236Z</time></trkpt><trkpt lat="44.347688" lon="7.6960927"><ele>559.0</ele><time>2026-04-03T13:24:46.232Z</time></trkpt><trkpt lat="44.3477464" lon="7.6961999"><ele>559.0</ele><time>2026-04-03T13:24:47.245Z</time></trkpt><trkpt lat="44.3478066" lon="7.6962584"><ele>559.0</ele><time>2026-04-03T13:24:48.244Z</time></trkpt><trkpt lat="44.3478785" lon="7.6963132"><ele>559.0</ele><time>2026-04-03T13:24:49.247Z</time></trkpt><trkpt lat="44.3479438" lon="7.6963279"><ele>561.5</ele><time>2026-04-03T13:24:50.235Z</time></trkpt><trkpt lat="44.3480332" lon="7.6963097"><ele>564.0</ele><time>2026-04-03T13:24:52.241Z</time></trkpt><trkpt lat="44.3481213" lon="7.6963727"><ele>566.5</ele><time>2026-04-03T13:24:54.24Z</time></trkpt><trkpt lat="44.3481825" lon="7.6964194"><ele>569.0</ele><time>2026-04-03T13:24:55.258Z</time></trkpt><trkpt lat="44.348236" lon="7.6964805"><ele>571.5</ele><time>2026-04-03T13:24:56.249Z</time></trkpt><trkpt lat="44.3482979" lon="7.6965333"><ele>574.0</ele><time>2026-04-03T13:24:57.241Z</time></trkpt><trkpt lat="44.3483511" lon="7.6966214"><ele>574.0</ele><time>2026-04-03T13:24:58.243Z</time></trkpt><trkpt lat="44.3484204" lon="7.6967142"><ele>574.0</ele><time>2026-04-03T13:24:59.238Z</time></trkpt><trkpt lat="44.3484634" lon="7.6968214"><ele>574.0</ele><time>2026-04-03T13:25:00.234Z</time></trkpt><trkpt lat="44.3484825" lon="7.6969264"><ele>574.0</ele><time>2026-04-03T13:25:01.234Z</time></trkpt><trkpt lat="44.348505" lon="7.6970215"><ele>574.0</ele><time>2026-04-03T13:25:02.24Z</time></trkpt><trkpt lat="44.3485327" lon="7.697183"><ele>576.0</ele><time>2026-04-03T13:25:04.25Z</time></trkpt><trkpt lat="44.3485466" lon="7.6972811"><ele>578.0</ele><time>2026-04-03T13:25:05.247Z</time></trkpt><trkpt lat="44.3485028" lon="7.6974073"><ele>580.0</ele><time>2026-04-03T13:25:06.244Z</time></trkpt><trkpt lat="44.3484929" lon="7.6974964"><ele>582.0</ele><time>2026-04-03T13:25:07.24Z</time></trkpt><trkpt lat="44.3485093" lon="7.6976297"><ele>584.0</ele><time>2026-04-03T13:25:09.238Z</time></trkpt><trkpt lat="44.3485198" lon="7.6977483"><ele>586.0</ele><time>2026-04-03T13:25:12.255Z</time></trkpt><trkpt lat="44.348509" lon="7.697853"><ele>586.9999999999999</ele><time>2026-04-03T13:25:15.241Z</time></trkpt><trkpt lat="44.3485255" lon="7.6979415"><ele>588.0</ele><time>2026-04-03T13:25:19.25Z</time></trkpt><trkpt lat="44.3485503" lon="7.6980238"><ele>589.0</ele><time>2026-04-03T13:25:46.238Z</time></trkpt><trkpt lat="44.3485345" lon="7.6981334"><ele>590.0</ele><time>2026-04-03T13:25:49.243Z</time></trkpt><trkpt lat="44.3485113" lon="7.6982427"><ele>591.0</ele><time>2026-04-03T13:25:52.239Z</time></trkpt><trkpt lat="44.3484975" lon="7.6983588"><ele>591.9999999999999</ele><time>2026-04-03T13:25:55.251Z</time></trkpt><trkpt lat="44.3484845" lon="7.6984527"><ele>593.0</ele><time>2026-04-03T13:25:57.24Z</time></trkpt><trkpt lat="44.3484561" lon="7.6985562"><ele>593.5</ele><time>2026-04-03T13:25:59.245Z</time></trkpt><trkpt lat="44.348439" lon="7.6986575"><ele>594.0</ele><time>2026-04-03T13:26:02.244Z</time></trkpt><trkpt lat="44.3484243" lon="7.6987875"><ele>594.5</ele><time>2026-04-03T13:26:05.246Z</time></trkpt><trkpt lat="44.3484304" lon="7.6989075"><ele>595.0</ele><time>2026-04-03T13:26:07.244Z</time></trkpt><trkpt lat="44.3484658" lon="7.6990125"><ele>595.5</ele><time>2026-04-03T13:26:09.255Z</time></trkpt><trkpt lat="44.3485143" lon="7.6991419"><ele>596.0</ele><time>2026-04-03T13:26:11.242Z</time></trkpt><trkpt lat="44.3485814" lon="7.699288"><ele>596.0</ele><time>2026-04-03T13:26:13.241Z</time></trkpt><trkpt lat="44.3486679" lon="7.6993904"><ele>596.0</ele><time>2026-04-03T13:26:15.245Z</time></trkpt><trkpt lat="44.3487616" lon="7.6994463"><ele>596.0</ele><time>2026-04-03T13:26:17.242Z</time></trkpt><trkpt lat="44.3487999" lon="7.6995451"><ele>596.0</ele><time>2026-04-03T13:26:19.243Z</time></trkpt><trkpt lat="44.3487959" lon="7.6996564"><ele>596.0</ele><time>2026-04-03T13:26:21.242Z</time></trkpt><trkpt lat="44.3487452" lon="7.6997923"><ele>597.0</ele><time>2026-04-03T13:26:23.248Z</time></trkpt><trkpt lat="44.3486926" lon="7.6999241"><ele>598.0</ele><time>2026-04-03T13:26:25.243Z</time></trkpt><trkpt lat="44.3486003" lon="7.7001107"><ele>599.0</ele><time>2026-04-03T13:26:26.235Z</time></trkpt><trkpt lat="44.3485116" lon="7.7001807"><ele>600.0</ele><time>2026-04-03T13:26:28.234Z</time></trkpt><trkpt lat="44.3484384" lon="7.7001761"><ele>601.0</ele><time>2026-04-03T13:26:29.24Z</time></trkpt><trkpt lat="44.3483569" lon="7.700153"><ele>601.0</ele><time>2026-04-03T13:26:30.236Z</time></trkpt><trkpt lat="44.3482683" lon="7.7000962"><ele>601.0</ele><time>2026-04-03T13:26:31.242Z</time></trkpt><trkpt lat="44.3481286" lon="7.7000785"><ele>601.0</ele><time>2026-04-03T13:26:33.239Z</time></trkpt><trkpt lat="44.3480516" lon="7.7001764"><ele>601.0</ele><time>2026-04-03T13:26:34.249Z</time></trkpt><trkpt lat="44.3479751" lon="7.7002312"><ele>601.0</ele><time>2026-04-03T13:26:35.249Z</time></trkpt><trkpt lat="44.347834" lon="7.7002176"><ele>602.0</ele><time>2026-04-03T13:26:37.235Z</time></trkpt><trkpt lat="44.347744" lon="7.7002151"><ele>603.0</ele><time>2026-04-03T13:26:38.245Z</time></trkpt><trkpt lat="44.3476796" lon="7.7002181"><ele>604.0</ele><time>2026-04-03T13:26:39.243Z</time></trkpt><trkpt lat="44.347611" lon="7.7002441"><ele>605.0</ele><time>2026-04-03T13:26:40.241Z</time></trkpt><trkpt lat="44.3475392" lon="7.7003514"><ele>606.0</ele><time>2026-04-03T13:26:41.237Z</time></trkpt><trkpt lat="44.3474738" lon="7.7004366"><ele>607.0</ele><time>2026-04-03T13:26:42.244Z</time></trkpt><trkpt lat="44.3473668" lon="7.7005424"><ele>607.0</ele><time>2026-04-03T13:26:43.243Z</time></trkpt><trkpt lat="44.347277" lon="7.7006236"><ele>607.0</ele><time>2026-04-03T13:26:44.238Z</time></trkpt><trkpt lat="44.3472288" lon="7.7006967"><ele>607.0</ele><time>2026-04-03T13:26:45.241Z</time></trkpt><trkpt lat="44.3471968" lon="7.7008667"><ele>607.0</ele><time>2026-04-03T13:26:47.236Z</time></trkpt><trkpt lat="44.3472076" lon="7.7009759"><ele>607.0</ele><time>2026-04-03T13:26:48.237Z</time></trkpt><trkpt lat="44.3472483" lon="7.7011366"><ele>607.2</ele><time>2026-04-03T13:26:49.258Z</time></trkpt><trkpt lat="44.3472861" lon="7.7012937"><ele>607.4000000000001</ele><time>2026-04-03T13:26:50.237Z</time></trkpt><trkpt lat="44.3473297" lon="7.701383"><ele>607.5999999999999</ele><time>2026-04-03T13:26:51.238Z</time></trkpt><trkpt lat="44.3473765" lon="7.7015051"><ele>607.8</ele><time>2026-04-03T13:26:52.249Z</time></trkpt><trkpt lat="44.3474209" lon="7.7016183"><ele>608.0</ele><time>2026-04-03T13:26:53.238Z</time></trkpt><trkpt lat="44.3474796" lon="7.7017438"><ele>608.0</ele><time>2026-04-03T13:26:54.256Z</time></trkpt><trkpt lat="44.3475102" lon="7.701877"><ele>608.0</ele><time>2026-04-03T13:26:55.239Z</time></trkpt><trkpt lat="44.347534" lon="7.7020231"><ele>608.0</ele><time>2026-04-03T13:26:56.236Z</time></trkpt><trkpt lat="44.34757" lon="7.7021509"><ele>608.0</ele><time>2026-04-03T13:26:57.24Z</time></trkpt><trkpt lat="44.3476011" lon="7.7022688"><ele>608.0</ele><time>2026-04-03T13:26:58.238Z</time></trkpt><trkpt lat="44.3476347" lon="7.7023731"><ele>607.5</ele><time>2026-04-03T13:26:59.248Z</time></trkpt><trkpt lat="44.347664" lon="7.7024622"><ele>607.0</ele><time>2026-04-03T13:27:00.241Z</time></trkpt><trkpt lat="44.3477029" lon="7.7025692"><ele>606.5</ele><time>2026-04-03T13:27:01.251Z</time></trkpt><trkpt lat="44.3477658" lon="7.7026401"><ele>606.0</ele><time>2026-04-03T13:27:02.237Z</time></trkpt><trkpt lat="44.347804" lon="7.7027446"><ele>605.5</ele><time>2026-04-03T13:27:03.237Z</time></trkpt><trkpt lat="44.3478396" lon="7.7028518"><ele>605.0</ele><time>2026-04-03T13:27:04.241Z</time></trkpt><trkpt lat="44.3478792" lon="7.7029662"><ele>604.0</ele><time>2026-04-03T13:27:05.237Z</time></trkpt><trkpt lat="44.3479142" lon="7.7030588"><ele>603.0</ele><time>2026-04-03T13:27:06.236Z</time></trkpt><trkpt lat="44.3478966" lon="7.7031958"><ele>602.0</ele><time>2026-04-03T13:27:07.241Z</time></trkpt><trkpt lat="44.3479005" lon="7.703308"><ele>601.0</ele><time>2026-04-03T13:27:08.24Z</time></trkpt><trkpt lat="44.3479289" lon="7.7034225"><ele>600.0</ele><time>2026-04-03T13:27:09.245Z</time></trkpt><trkpt lat="44.3479774" lon="7.703522"><ele>599.0</ele><time>2026-04-03T13:27:10.238Z</time></trkpt><trkpt lat="44.3480194" lon="7.7036057"><ele>599.3333333333333</ele><time>2026-04-03T13:27:11.238Z</time></trkpt><trkpt lat="44.3480859" lon="7.703644"><ele>599.6666666666666</ele><time>2026-04-03T13:27:12.237Z</time></trkpt><trkpt lat="44.3481855" lon="7.7037111"><ele>600.0</ele><time>2026-04-03T13:27:14.238Z</time></trkpt><trkpt lat="44.348251" lon="7.7037668"><ele>600.3333333333334</ele><time>2026-04-03T13:27:15.248Z</time></trkpt><trkpt lat="44.3483093" lon="7.7038141"><ele>600.6666666666667</ele><time>2026-04-03T13:27:16.24Z</time></trkpt><trkpt lat="44.3483685" lon="7.7038836"><ele>601.0</ele><time>2026-04-03T13:27:17.255Z</time></trkpt><trkpt lat="44.3484266" lon="7.7039417"><ele>601.0</ele><time>2026-04-03T13:27:18.241Z</time></trkpt><trkpt lat="44.3485083" lon="7.7039924"><ele>601.0</ele><time>2026-04-03T13:27:20.25Z</time></trkpt><trkpt lat="44.3485901" lon="7.7040311"><ele>601.0</ele><time>2026-04-03T13:27:22.238Z</time></trkpt><trkpt lat="44.3486598" lon="7.7040418"><ele>601.0</ele><time>2026-04-03T13:27:24.25Z</time></trkpt><trkpt lat="44.3487308" lon="7.7040736"><ele>601.0</ele><time>2026-04-03T13:27:27.243Z</time></trkpt><trkpt lat="44.3488056" lon="7.7040947"><ele>601.0</ele><time>2026-04-03T13:27:29.237Z</time></trkpt><trkpt lat="44.3489388" lon="7.7040976"><ele>602.0</ele><time>2026-04-03T13:27:31.237Z</time></trkpt><trkpt lat="44.3490616" lon="7.7039941"><ele>603.0</ele><time>2026-04-03T13:27:33.24Z</time></trkpt><trkpt lat="44.3491869" lon="7.7038947"><ele>604.0</ele><time>2026-04-03T13:27:34.235Z</time></trkpt><trkpt lat="44.3492287" lon="7.7038078"><ele>605.0</ele><time>2026-04-03T13:27:35.242Z</time></trkpt><trkpt lat="44.3492255" lon="7.7036692"><ele>604.0</ele><time>2026-04-03T13:27:36.238Z</time></trkpt><trkpt lat="44.3492216" lon="7.7035305"><ele>603.0</ele><time>2026-04-03T13:27:37.241Z</time></trkpt><trkpt lat="44.3492135" lon="7.703381"><ele>602.0</ele><time>2026-04-03T13:27:38.246Z</time></trkpt><trkpt lat="44.3491936" lon="7.7032532"><ele>601.0</ele><time>2026-04-03T13:27:39.246Z</time></trkpt><trkpt lat="44.3491798" lon="7.7031381"><ele>600.0</ele><time>2026-04-03T13:27:40.242Z</time></trkpt><trkpt lat="44.3491785" lon="7.7030488"><ele>599.0</ele><time>2026-04-03T13:27:41.235Z</time></trkpt><trkpt lat="44.3491925" lon="7.70291"><ele>599.0</ele><time>2026-04-03T13:27:43.237Z</time></trkpt><trkpt lat="44.3492539" lon="7.7028036"><ele>599.0</ele><time>2026-04-03T13:27:45.235Z</time></trkpt><trkpt lat="44.3493755" lon="7.7027134"><ele>599.0</ele><time>2026-04-03T13:27:47.239Z</time></trkpt><trkpt lat="44.3494601" lon="7.7026524"><ele>599.0</ele><time>2026-04-03T13:27:48.248Z</time></trkpt><trkpt lat="44.3495316" lon="7.7025686"><ele>599.0</ele><time>2026-04-03T13:27:49.25Z</time></trkpt><trkpt lat="44.3495764" lon="7.7024799"><ele>598.1666666666666</ele><time>2026-04-03T13:27:50.243Z</time></trkpt><trkpt lat="44.3495863" lon="7.7023765"><ele>597.3333333333333</ele><time>2026-04-03T13:27:51.232Z</time></trkpt><trkpt lat="44.3495796" lon="7.7022347"><ele>596.5</ele><time>2026-04-03T13:27:52.244Z</time></trkpt><trkpt lat="44.3495852" lon="7.7021162"><ele>595.6666666666666</ele><time>2026-04-03T13:27:53.237Z</time></trkpt><trkpt lat="44.3496125" lon="7.7020359"><ele>594.8333333333334</ele><time>2026-04-03T13:27:54.238Z</time></trkpt><trkpt lat="44.3496781" lon="7.7019325"><ele>594.0</ele><time>2026-04-03T13:27:56.243Z</time></trkpt><trkpt lat="44.3497291" lon="7.7018424"><ele>594.0</ele><time>2026-04-03T13:28:38.236Z</time></trkpt><trkpt lat="44.3497946" lon="7.7018095"><ele>594.0</ele><time>2026-04-03T13:28:39.235Z</time></trkpt><trkpt lat="44.349838" lon="7.7017231"><ele>594.0</ele><time>2026-04-03T13:28:42.239Z</time></trkpt><trkpt lat="44.349927" lon="7.701588"><ele>594.0</ele><time>2026-04-03T13:28:45.239Z</time></trkpt><trkpt lat="44.3500773" lon="7.7013003"><ele>594.0</ele><time>2026-04-03T13:28:46.248Z</time></trkpt><trkpt lat="44.3501499" lon="7.7013161"><ele>594.0</ele><time>2026-04-03T13:28:47.235Z</time></trkpt><trkpt lat="44.350238" lon="7.7013646"><ele>594.0</ele><time>2026-04-03T13:28:48.236Z</time></trkpt><trkpt lat="44.35032" lon="7.7014231"><ele>594.0</ele><time>2026-04-03T13:28:49.25Z</time></trkpt><trkpt lat="44.3503806" lon="7.7014622"><ele>594.0</ele><time>2026-04-03T13:28:50.241Z</time></trkpt><trkpt lat="44.3504573" lon="7.7014075"><ele>594.0</ele><time>2026-04-03T13:28:52.236Z</time></trkpt><trkpt lat="44.350579" lon="7.7013182"><ele>594.1428571428571</ele><time>2026-04-03T13:28:54.248Z</time></trkpt><trkpt lat="44.3506668" lon="7.7012889"><ele>594.2857142857143</ele><time>2026-04-03T13:28:55.24Z</time></trkpt><trkpt lat="44.3507403" lon="7.7012446"><ele>594.4285714285714</ele><time>2026-04-03T13:28:56.242Z</time></trkpt><trkpt lat="44.3507942" lon="7.7011862"><ele>594.5714285714286</ele><time>2026-04-03T13:28:57.242Z</time></trkpt><trkpt lat="44.3508508" lon="7.7011102"><ele>594.7142857142858</ele><time>2026-04-03T13:28:58.241Z</time></trkpt><trkpt lat="44.350899" lon="7.7010474"><ele>594.8571428571429</ele><time>2026-04-03T13:28:59.238Z</time></trkpt><trkpt lat="44.3509472" lon="7.7009848"><ele>595.0</ele><time>2026-04-03T13:29:01.235Z</time></trkpt><trkpt lat="44.3510412" lon="7.7009562"><ele>593.2</ele><time>2026-04-03T13:29:04.236Z</time></trkpt><trkpt lat="44.3511075" lon="7.7009454"><ele>591.4</ele><time>2026-04-03T13:29:05.246Z</time></trkpt><trkpt lat="44.3511784" lon="7.700955"><ele>589.6</ele><time>2026-04-03T13:29:07.239Z</time></trkpt><trkpt lat="44.3512701" lon="7.7009493"><ele>587.8</ele><time>2026-04-03T13:29:09.249Z</time></trkpt><trkpt lat="44.3514341" lon="7.7008689"><ele>586.0</ele><time>2026-04-03T13:29:10.248Z</time></trkpt><trkpt lat="44.3515928" lon="7.7007715"><ele>584.6</ele><time>2026-04-03T13:29:11.239Z</time></trkpt><trkpt lat="44.3516061" lon="7.7006683"><ele>583.2</ele><time>2026-04-03T13:29:13.237Z</time></trkpt><trkpt lat="44.3515501" lon="7.7004842"><ele>581.8</ele><time>2026-04-03T13:29:15.242Z</time></trkpt><trkpt lat="44.351509" lon="7.7003605"><ele>580.4</ele><time>2026-04-03T13:29:16.247Z</time></trkpt><trkpt lat="44.3514752" lon="7.7002472"><ele>579.0</ele><time>2026-04-03T13:29:17.253Z</time></trkpt><trkpt lat="44.351469" lon="7.7001577"><ele>577.0</ele><time>2026-04-03T13:29:18.237Z</time></trkpt><trkpt lat="44.3514904" lon="7.7000645"><ele>575.0</ele><time>2026-04-03T13:29:19.235Z</time></trkpt><trkpt lat="44.351583" lon="7.7000239"><ele>573.0</ele><time>2026-04-03T13:29:21.233Z</time></trkpt><trkpt lat="44.3516864" lon="7.7000652"><ele>571.0</ele><time>2026-04-03T13:29:23.248Z</time></trkpt><trkpt lat="44.351789" lon="7.700122"><ele>569.0</ele><time>2026-04-03T13:29:25.246Z</time></trkpt><trkpt lat="44.3518495" lon="7.7001508"><ele>567.0</ele><time>2026-04-03T13:29:28.236Z</time></trkpt><trkpt lat="44.3520028" lon="7.7002342"><ele>565.5</ele><time>2026-04-03T13:29:31.241Z</time></trkpt><trkpt lat="44.3521716" lon="7.7002832"><ele>564.0</ele><time>2026-04-03T13:29:32.232Z</time></trkpt><trkpt lat="44.3522943" lon="7.700323"><ele>562.5</ele><time>2026-04-03T13:29:34.24Z</time></trkpt><trkpt lat="44.3523576" lon="7.7004186"><ele>561.0</ele><time>2026-04-03T13:29:36.239Z</time></trkpt><trkpt lat="44.3524067" lon="7.700512"><ele>561.0</ele><time>2026-04-03T13:29:37.231Z</time></trkpt><trkpt lat="44.3524345" lon="7.7006059"><ele>561.0</ele><time>2026-04-03T13:29:38.252Z</time></trkpt><trkpt lat="44.3524597" lon="7.7006937"><ele>561.0</ele><time>2026-04-03T13:29:39.248Z</time></trkpt><trkpt lat="44.3524421" lon="7.7008163"><ele>561.0</ele><time>2026-04-03T13:29:41.242Z</time></trkpt><trkpt lat="44.3524253" lon="7.700923"><ele>561.0</ele><time>2026-04-03T13:29:43.234Z</time></trkpt><trkpt lat="44.3524278" lon="7.7010308"><ele>561.0</ele><time>2026-04-03T13:29:46.238Z</time></trkpt><trkpt lat="44.3525175" lon="7.7010288"><ele>561.0</ele><time>2026-04-03T13:29:52.236Z</time></trkpt><trkpt lat="44.3525777" lon="7.7010011"><ele>561.0</ele><time>2026-04-03T13:29:54.237Z</time></trkpt><trkpt lat="44.3526457" lon="7.7009646"><ele>561.0</ele><time>2026-04-03T13:29:56.237Z</time></trkpt><trkpt lat="44.3527973" lon="7.7009217"><ele>561.0</ele><time>2026-04-03T13:29:57.239Z</time></trkpt><trkpt lat="44.3531059" lon="7.7007721"><ele>559.6666666666666</ele><time>2026-04-03T13:29:58.233Z</time></trkpt><trkpt lat="44.3531711" lon="7.7008846"><ele>558.3333333333334</ele><time>2026-04-03T13:30:00.235Z</time></trkpt><trkpt lat="44.3532184" lon="7.7009617"><ele>557.0</ele><time>2026-04-03T13:30:01.237Z</time></trkpt><trkpt lat="44.3532704" lon="7.701039"><ele>555.6666666666667</ele><time>2026-04-03T13:30:02.249Z</time></trkpt><trkpt lat="44.3533172" lon="7.7011267"><ele>554.3333333333334</ele><time>2026-04-03T13:30:03.254Z</time></trkpt><trkpt lat="44.3533509" lon="7.7012351"><ele>553.0</ele><time>2026-04-03T13:30:04.239Z</time></trkpt><trkpt lat="44.3533953" lon="7.7013382"><ele>553.0</ele><time>2026-04-03T13:30:05.236Z</time></trkpt><trkpt lat="44.3534187" lon="7.7014437"><ele>553.0</ele><time>2026-04-03T13:30:06.244Z</time></trkpt><trkpt lat="44.3534346" lon="7.7016504"><ele>553.0</ele><time>2026-04-03T13:30:08.239Z</time></trkpt><trkpt lat="44.3534404" lon="7.7017834"><ele>553.0</ele><time>2026-04-03T13:30:09.236Z</time></trkpt><trkpt lat="44.3534601" lon="7.7019212"><ele>553.0</ele><time>2026-04-03T13:30:10.242Z</time></trkpt><trkpt lat="44.353489" lon="7.7020095"><ele>554.5</ele><time>2026-04-03T13:30:11.238Z</time></trkpt><trkpt lat="44.3534973" lon="7.7021104"><ele>556.0</ele><time>2026-04-03T13:30:12.238Z</time></trkpt><trkpt lat="44.3534991" lon="7.7022134"><ele>557.5</ele><time>2026-04-03T13:30:13.234Z</time></trkpt><trkpt lat="44.3535126" lon="7.7023312"><ele>559.0</ele><time>2026-04-03T13:30:14.243Z</time></trkpt><trkpt lat="44.3535858" lon="7.7024762"><ele>560.5</ele><time>2026-04-03T13:30:16.244Z</time></trkpt><trkpt lat="44.3536386" lon="7.7025529"><ele>562.0</ele><time>2026-04-03T13:30:17.235Z</time></trkpt><trkpt lat="44.3536866" lon="7.7026511"><ele>562.0</ele><time>2026-04-03T13:30:18.246Z</time></trkpt><trkpt lat="44.3537489" lon="7.7027302"><ele>562.0</ele><time>2026-04-03T13:30:19.239Z</time></trkpt><trkpt lat="44.3538031" lon="7.7028005"><ele>562.0</ele><time>2026-04-03T13:30:20.234Z</time></trkpt><trkpt lat="44.3538507" lon="7.702868"><ele>562.0</ele><time>2026-04-03T13:30:21.244Z</time></trkpt><trkpt lat="44.3539382" lon="7.7029619"><ele>562.0</ele><time>2026-04-03T13:30:23.238Z</time></trkpt><trkpt lat="44.3540005" lon="7.7030213"><ele>562.0</ele><time>2026-04-03T13:30:25.238Z</time></trkpt><trkpt lat="44.3539824" lon="7.7029297"><ele>562.0</ele><time>2026-04-03T13:30:32.237Z</time></trkpt><trkpt lat="44.3539" lon="7.7029128"><ele>562.0</ele><time>2026-04-03T13:30:48.234Z</time></trkpt><trkpt lat="44.3538076" lon="7.7027987"><ele>562.0</ele><time>2026-04-03T13:30:50.248Z</time></trkpt><trkpt lat="44.3537786" lon="7.7027168"><ele>562.0</ele><time>2026-04-03T13:30:51.239Z</time></trkpt><trkpt lat="44.3537368" lon="7.7026351"><ele>562.0</ele><time>2026-04-03T13:30:52.239Z</time></trkpt><trkpt lat="44.3536851" lon="7.7025407"><ele>562.0</ele><time>2026-04-03T13:30:53.245Z</time></trkpt><trkpt lat="44.3536324" lon="7.7024482"><ele>562.0</ele><time>2026-04-03T13:30:54.247Z</time></trkpt><trkpt lat="44.3535867" lon="7.7023481"><ele>562.0</ele><time>2026-04-03T13:30:55.236Z</time></trkpt><trkpt lat="44.3535401" lon="7.702262"><ele>562.0</ele><time>2026-04-03T13:30:56.239Z</time></trkpt><trkpt lat="44.3535039" lon="7.7021032"><ele>562.0</ele><time>2026-04-03T13:30:58.239Z</time></trkpt><trkpt lat="44.3534921" lon="7.701998"><ele>562.0</ele><time>2026-04-03T13:30:59.242Z</time></trkpt><trkpt lat="44.3534832" lon="7.7019069"><ele>562.0</ele><time>2026-04-03T13:31:00.244Z</time></trkpt><trkpt lat="44.353461" lon="7.7018148"><ele>560.5</ele><time>2026-04-03T13:31:01.235Z</time></trkpt><trkpt lat="44.3534203" lon="7.7017339"><ele>559.0</ele><time>2026-04-03T13:31:03.245Z</time></trkpt><trkpt lat="44.3534184" lon="7.7016431"><ele>557.5</ele><time>2026-04-03T13:31:06.237Z</time></trkpt><trkpt lat="44.3533902" lon="7.7015372"><ele>556.0</ele><time>2026-04-03T13:31:09.234Z</time></trkpt><trkpt lat="44.3533493" lon="7.7014501"><ele>554.5</ele><time>2026-04-03T13:31:11.233Z</time></trkpt><trkpt lat="44.3532908" lon="7.701343"><ele>553.0</ele><time>2026-04-03T13:31:13.236Z</time></trkpt><trkpt lat="44.3532119" lon="7.7012141"><ele>551.4</ele><time>2026-04-03T13:31:15.25Z</time></trkpt><trkpt lat="44.3531712" lon="7.7009479"><ele>549.8</ele><time>2026-04-03T13:31:18.249Z</time></trkpt><trkpt lat="44.3532011" lon="7.7008628"><ele>548.2</ele><time>2026-04-03T13:31:21.232Z</time></trkpt><trkpt lat="44.3531587" lon="7.7007942"><ele>546.6</ele><time>2026-04-03T13:33:24.238Z</time></trkpt><trkpt lat="44.3531065" lon="7.7007219"><ele>545.0</ele><time>2026-04-03T13:33:26.237Z</time></trkpt><trkpt lat="44.353033" lon="7.7006672"><ele>548.2</ele><time>2026-04-03T13:33:28.237Z</time></trkpt><trkpt lat="44.3529395" lon="7.7006703"><ele>551.4</ele><time>2026-04-03T13:33:30.236Z</time></trkpt><trkpt lat="44.3528453" lon="7.7007252"><ele>554.6</ele><time>2026-04-03T13:33:32.238Z</time></trkpt><trkpt lat="44.3527614" lon="7.7008001"><ele>557.8</ele><time>2026-04-03T13:33:34.234Z</time></trkpt><trkpt lat="44.3526653" lon="7.7008803"><ele>561.0</ele><time>2026-04-03T13:33:36.234Z</time></trkpt><trkpt lat="44.3525516" lon="7.7009856"><ele>561.0</ele><time>2026-04-03T13:33:38.231Z</time></trkpt><trkpt lat="44.3525012" lon="7.70104"><ele>561.0</ele><time>2026-04-03T13:33:39.245Z</time></trkpt><trkpt lat="44.3524474" lon="7.7011149"><ele>561.0</ele><time>2026-04-03T13:33:41.236Z</time></trkpt><trkpt lat="44.3524058" lon="7.7010433"><ele>561.0</ele><time>2026-04-03T13:33:46.242Z</time></trkpt><trkpt lat="44.35246" lon="7.7009772"><ele>561.0</ele><time>2026-04-03T13:33:51.234Z</time></trkpt><trkpt lat="44.3524669" lon="7.7008675"><ele>561.0</ele><time>2026-04-03T13:33:54.234Z</time></trkpt><trkpt lat="44.3524289" lon="7.7007571"><ele>561.0</ele><time>2026-04-03T13:33:57.239Z</time></trkpt><trkpt lat="44.3523777" lon="7.7006293"><ele>561.0</ele><time>2026-04-03T13:33:59.245Z</time></trkpt><trkpt lat="44.3522731" lon="7.7005196"><ele>561.0</ele><time>2026-04-03T13:34:00.233Z</time></trkpt><trkpt lat="44.3518309" lon="7.7001561"><ele>562.0</ele><time>2026-04-03T13:34:01.234Z</time></trkpt><trkpt lat="44.3517333" lon="7.7001409"><ele>563.0</ele><time>2026-04-03T13:34:02.231Z</time></trkpt><trkpt lat="44.3516673" lon="7.7001053"><ele>564.0</ele><time>2026-04-03T13:34:03.238Z</time></trkpt><trkpt lat="44.3515987" lon="7.7000551"><ele>565.0</ele><time>2026-04-03T13:34:04.243Z</time></trkpt><trkpt lat="44.351488" lon="7.700071"><ele>566.0</ele><time>2026-04-03T13:34:06.236Z</time></trkpt><trkpt lat="44.3514348" lon="7.7001194"><ele>567.0</ele><time>2026-04-03T13:34:07.241Z</time></trkpt><trkpt lat="44.3514107" lon="7.7002627"><ele>569.4</ele><time>2026-04-03T13:34:09.234Z</time></trkpt><trkpt lat="44.3514826" lon="7.700429"><ele>571.8000000000001</ele><time>2026-04-03T13:34:11.233Z</time></trkpt><trkpt lat="44.3515087" lon="7.7005434"><ele>574.2</ele><time>2026-04-03T13:34:12.243Z</time></trkpt><trkpt lat="44.3515454" lon="7.7006451"><ele>576.6</ele><time>2026-04-03T13:34:13.246Z</time></trkpt><trkpt lat="44.3515644" lon="7.7007683"><ele>579.0</ele><time>2026-04-03T13:34:15.234Z</time></trkpt><trkpt lat="44.3515058" lon="7.7008137"><ele>579.0</ele><time>2026-04-03T13:34:16.241Z</time></trkpt><trkpt lat="44.3514396" lon="7.7008328"><ele>579.0</ele><time>2026-04-03T13:34:17.253Z</time></trkpt><trkpt lat="44.3513509" lon="7.7008697"><ele>579.0</ele><time>2026-04-03T13:34:18.246Z</time></trkpt><trkpt lat="44.351217" lon="7.7008837"><ele>579.0</ele><time>2026-04-03T13:34:19.245Z</time></trkpt><trkpt lat="44.3510979" lon="7.7008974"><ele>579.0</ele><time>2026-04-03T13:34:20.239Z</time></trkpt><trkpt lat="44.3510159" lon="7.7009293"><ele>579.9999999999999</ele><time>2026-04-03T13:34:21.236Z</time></trkpt><trkpt lat="44.3509558" lon="7.7009703"><ele>581.0</ele><time>2026-04-03T13:34:22.234Z</time></trkpt><trkpt lat="44.3509188" lon="7.7010735"><ele>582.0</ele><time>2026-04-03T13:34:24.241Z</time></trkpt><trkpt lat="44.3509346" lon="7.7011704"><ele>583.0</ele><time>2026-04-03T13:34:26.235Z</time></trkpt><trkpt lat="44.3509072" lon="7.7012669"><ele>584.0</ele><time>2026-04-03T13:34:28.241Z</time></trkpt><trkpt lat="44.3508423" lon="7.7012875"><ele>584.9999999999999</ele><time>2026-04-03T13:34:32.237Z</time></trkpt><trkpt lat="44.350774" lon="7.70122"><ele>586.0</ele><time>2026-04-03T13:34:36.235Z</time></trkpt><trkpt lat="44.3506997" lon="7.7012474"><ele>587.3333333333334</ele><time>2026-04-03T13:34:39.235Z</time></trkpt><trkpt lat="44.3506466" lon="7.701301"><ele>588.6666666666667</ele><time>2026-04-03T13:34:41.238Z</time></trkpt><trkpt lat="44.3505772" lon="7.7013162"><ele>590.0</ele><time>2026-04-03T13:34:57.237Z</time></trkpt><trkpt lat="44.3505175" lon="7.7013544"><ele>591.3333333333334</ele><time>2026-04-03T13:34:59.238Z</time></trkpt><trkpt lat="44.3504173" lon="7.7014096"><ele>592.6666666666666</ele><time>2026-04-03T13:35:01.241Z</time></trkpt><trkpt lat="44.3503191" lon="7.7014005"><ele>594.0</ele><time>2026-04-03T13:35:03.238Z</time></trkpt><trkpt lat="44.3502204" lon="7.7013336"><ele>594.0</ele><time>2026-04-03T13:35:05.239Z</time></trkpt><trkpt lat="44.3500543" lon="7.7013377"><ele>594.0</ele><time>2026-04-03T13:35:07.238Z</time></trkpt><trkpt lat="44.3499774" lon="7.7014039"><ele>594.0</ele><time>2026-04-03T13:35:08.233Z</time></trkpt><trkpt lat="44.3499198" lon="7.7014648"><ele>594.0</ele><time>2026-04-03T13:35:09.228Z</time></trkpt><trkpt lat="44.3498526" lon="7.7015397"><ele>594.0</ele><time>2026-04-03T13:35:10.236Z</time></trkpt><trkpt lat="44.3498037" lon="7.7016249"><ele>594.0</ele><time>2026-04-03T13:35:11.25Z</time></trkpt><trkpt lat="44.3497522" lon="7.7017336"><ele>594.0</ele><time>2026-04-03T13:35:12.25Z</time></trkpt><trkpt lat="44.3497132" lon="7.7018827"><ele>594.0</ele><time>2026-04-03T13:35:13.238Z</time></trkpt><trkpt lat="44.3496418" lon="7.7019051"><ele>594.0</ele><time>2026-04-03T13:35:14.237Z</time></trkpt><trkpt lat="44.349564" lon="7.7020518"><ele>594.0</ele><time>2026-04-03T13:35:16.233Z</time></trkpt><trkpt lat="44.3495676" lon="7.7021661"><ele>593.1666666666666</ele><time>2026-04-03T13:35:17.242Z</time></trkpt><trkpt lat="44.3495512" lon="7.7022766"><ele>592.3333333333334</ele><time>2026-04-03T13:35:18.237Z</time></trkpt><trkpt lat="44.3495329" lon="7.7024011"><ele>591.5</ele><time>2026-04-03T13:35:19.233Z</time></trkpt><trkpt lat="44.3495001" lon="7.7025271"><ele>590.6666666666667</ele><time>2026-04-03T13:35:20.239Z</time></trkpt><trkpt lat="44.349459" lon="7.702628"><ele>589.8333333333334</ele><time>2026-04-03T13:35:21.234Z</time></trkpt><trkpt lat="44.3493987" lon="7.7027132"><ele>589.0</ele><time>2026-04-03T13:35:22.233Z</time></trkpt><trkpt lat="44.3493347" lon="7.7027877"><ele>590.6666666666667</ele><time>2026-04-03T13:35:23.236Z</time></trkpt><trkpt lat="44.349259" lon="7.702817"><ele>592.3333333333334</ele><time>2026-04-03T13:35:24.239Z</time></trkpt><trkpt lat="44.3491854" lon="7.7028451"><ele>594.0</ele><time>2026-04-03T13:35:25.235Z</time></trkpt><trkpt lat="44.3491329" lon="7.7029566"><ele>595.6666666666666</ele><time>2026-04-03T13:35:27.241Z</time></trkpt><trkpt lat="44.3491454" lon="7.7030693"><ele>597.3333333333333</ele><time>2026-04-03T13:35:28.241Z</time></trkpt><trkpt lat="44.3491334" lon="7.7031916"><ele>599.0</ele><time>2026-04-03T13:35:29.248Z</time></trkpt><trkpt lat="44.349171" lon="7.7034127"><ele>600.0</ele><time>2026-04-03T13:35:30.244Z</time></trkpt><trkpt lat="44.3491829" lon="7.7035837"><ele>601.0</ele><time>2026-04-03T13:35:31.242Z</time></trkpt><trkpt lat="44.3491863" lon="7.7037352"><ele>602.0</ele><time>2026-04-03T13:35:32.235Z</time></trkpt><trkpt lat="44.3491808" lon="7.7038307"><ele>603.0</ele><time>2026-04-03T13:35:33.236Z</time></trkpt><trkpt lat="44.3491629" lon="7.7039323"><ele>604.0</ele><time>2026-04-03T13:35:34.238Z</time></trkpt><trkpt lat="44.3491064" lon="7.7039963"><ele>605.0</ele><time>2026-04-03T13:35:35.243Z</time></trkpt><trkpt lat="44.3490258" lon="7.7040682"><ele>605.0</ele><time>2026-04-03T13:35:36.233Z</time></trkpt><trkpt lat="44.3489202" lon="7.7040885"><ele>605.0</ele><time>2026-04-03T13:35:37.24Z</time></trkpt><trkpt lat="44.3488221" lon="7.7041049"><ele>605.0</ele><time>2026-04-03T13:35:38.232Z</time></trkpt><trkpt lat="44.3487186" lon="7.7040673"><ele>605.0</ele><time>2026-04-03T13:35:39.25Z</time></trkpt><trkpt lat="44.3486283" lon="7.7040286"><ele>605.0</ele><time>2026-04-03T13:35:40.249Z</time></trkpt><trkpt lat="44.348547" lon="7.7039821"><ele>604.2</ele><time>2026-04-03T13:35:41.236Z</time></trkpt><trkpt lat="44.3484808" lon="7.703959"><ele>603.4</ele><time>2026-04-03T13:35:42.241Z</time></trkpt><trkpt lat="44.348525" lon="7.7040449"><ele>602.6</ele><time>2026-04-03T13:35:57.238Z</time></trkpt><trkpt lat="44.3485429" lon="7.70424"><ele>601.8</ele><time>2026-04-03T13:35:59.246Z</time></trkpt><trkpt lat="44.3485088" lon="7.7043836"><ele>601.0</ele><time>2026-04-03T13:36:01.244Z</time></trkpt><trkpt lat="44.3484487" lon="7.7045614"><ele>600.8</ele><time>2026-04-03T13:36:03.236Z</time></trkpt><trkpt lat="44.3484219" lon="7.7046583"><ele>600.6</ele><time>2026-04-03T13:36:04.248Z</time></trkpt><trkpt lat="44.3484079" lon="7.704748"><ele>600.4</ele><time>2026-04-03T13:36:05.246Z</time></trkpt><trkpt lat="44.348425" lon="7.7048808"><ele>600.2</ele><time>2026-04-03T13:36:07.238Z</time></trkpt><trkpt lat="44.3485226" lon="7.704983"><ele>600.0</ele><time>2026-04-03T13:36:09.241Z</time></trkpt><trkpt lat="44.3486053" lon="7.7050765"><ele>600.0</ele><time>2026-04-03T13:36:11.243Z</time></trkpt><trkpt lat="44.3486496" lon="7.7051604"><ele>600.0</ele><time>2026-04-03T13:36:12.239Z</time></trkpt><trkpt lat="44.3486787" lon="7.7052881"><ele>600.0</ele><time>2026-04-03T13:36:13.249Z</time></trkpt><trkpt lat="44.3486887" lon="7.7054036"><ele>600.0</ele><time>2026-04-03T13:36:14.239Z</time></trkpt><trkpt lat="44.3486925" lon="7.7055298"><ele>600.0</ele><time>2026-04-03T13:36:15.235Z</time></trkpt><trkpt lat="44.3486897" lon="7.7056651"><ele>600.0</ele><time>2026-04-03T13:36:16.233Z</time></trkpt><trkpt lat="44.3486629" lon="7.7057669"><ele>598.8333333333334</ele><time>2026-04-03T13:36:17.239Z</time></trkpt><trkpt lat="44.3486228" lon="7.7058913"><ele>597.6666666666666</ele><time>2026-04-03T13:36:19.236Z</time></trkpt><trkpt lat="44.3485946" lon="7.7060051"><ele>596.5</ele><time>2026-04-03T13:52:25.231Z</time></trkpt><trkpt lat="44.3485417" lon="7.7060854"><ele>595.3333333333333</ele><time>2026-04-03T13:52:27.232Z</time></trkpt><trkpt lat="44.3485003" lon="7.706163"><ele>594.1666666666666</ele><time>2026-04-03T13:52:30.23Z</time></trkpt><trkpt lat="44.3484384" lon="7.7062539"><ele>593.0</ele><time>2026-04-03T13:52:33.23Z</time></trkpt><trkpt lat="44.3483818" lon="7.7063237"><ele>592.6666666666666</ele><time>2026-04-03T13:52:36.229Z</time></trkpt><trkpt lat="44.3483262" lon="7.706388"><ele>592.3333333333333</ele><time>2026-04-03T13:52:38.232Z</time></trkpt><trkpt lat="44.3482649" lon="7.7064631"><ele>592.0</ele><time>2026-04-03T13:52:40.23Z</time></trkpt><trkpt lat="44.3481865" lon="7.7065368"><ele>591.6666666666666</ele><time>2026-04-03T13:52:42.229Z</time></trkpt><trkpt lat="44.3481176" lon="7.7065811"><ele>591.3333333333334</ele><time>2026-04-03T13:52:44.231Z</time></trkpt><trkpt lat="44.3480414" lon="7.7066176"><ele>591.0</ele><time>2026-04-03T13:52:46.231Z</time></trkpt><trkpt lat="44.3479318" lon="7.70668"><ele>591.0</ele><time>2026-04-03T13:52:48.231Z</time></trkpt><trkpt lat="44.3478578" lon="7.7067263"><ele>591.0</ele><time>2026-04-03T13:52:49.233Z</time></trkpt><trkpt lat="44.3477423" lon="7.7067808"><ele>591.0</ele><time>2026-04-03T13:52:50.231Z</time></trkpt><trkpt lat="44.3476446" lon="7.7067931"><ele>591.0</ele><time>2026-04-03T13:52:51.232Z</time></trkpt><trkpt lat="44.347535" lon="7.7068"><ele>591.0</ele><time>2026-04-03T13:52:52.231Z</time></trkpt><trkpt lat="44.3474414" lon="7.7068177"><ele>591.0</ele><time>2026-04-03T13:52:53.229Z</time></trkpt><trkpt lat="44.3473387" lon="7.7068434"><ele>591.0</ele><time>2026-04-03T13:52:54.232Z</time></trkpt><trkpt lat="44.3472345" lon="7.7068874"><ele>591.0</ele><time>2026-04-03T13:52:55.244Z</time></trkpt><trkpt lat="44.3471569" lon="7.7069455"><ele>591.0</ele><time>2026-04-03T13:52:56.231Z</time></trkpt><trkpt lat="44.3470715" lon="7.7069549"><ele>591.0</ele><time>2026-04-03T13:52:57.231Z</time></trkpt><trkpt lat="44.3469877" lon="7.7069508"><ele>590.1666666666666</ele><time>2026-04-03T13:52:58.231Z</time></trkpt><trkpt lat="44.3469014" lon="7.7069262"><ele>589.3333333333334</ele><time>2026-04-03T13:52:59.233Z</time></trkpt><trkpt lat="44.3468218" lon="7.7068749"><ele>588.5</ele><time>2026-04-03T13:53:00.231Z</time></trkpt><trkpt lat="44.346753" lon="7.7068148"><ele>587.6666666666667</ele><time>2026-04-03T13:53:01.236Z</time></trkpt><trkpt lat="44.3466866" lon="7.706754"><ele>586.8333333333334</ele><time>2026-04-03T13:53:02.234Z</time></trkpt><trkpt lat="44.3466292" lon="7.7066624"><ele>586.0</ele><time>2026-04-03T13:53:03.237Z</time></trkpt><trkpt lat="44.3465664" lon="7.7065935"><ele>586.0</ele><time>2026-04-03T13:53:04.233Z</time></trkpt><trkpt lat="44.3464957" lon="7.7065327"><ele>586.0</ele><time>2026-04-03T13:53:05.232Z</time></trkpt><trkpt lat="44.346432" lon="7.7064958"><ele>586.0</ele><time>2026-04-03T13:53:06.233Z</time></trkpt><trkpt lat="44.346317" lon="7.7065339"><ele>586.0</ele><time>2026-04-03T13:53:08.232Z</time></trkpt><trkpt lat="44.3462475" lon="7.7065871"><ele>586.0</ele><time>2026-04-03T13:53:09.228Z</time></trkpt><trkpt lat="44.3461762" lon="7.70666"><ele>586.0</ele><time>2026-04-03T13:53:10.233Z</time></trkpt><trkpt lat="44.3460969" lon="7.7067244"><ele>584.6666666666667</ele><time>2026-04-03T13:53:11.231Z</time></trkpt><trkpt lat="44.3460229" lon="7.7067727"><ele>583.3333333333334</ele><time>2026-04-03T13:53:12.228Z</time></trkpt><trkpt lat="44.3459473" lon="7.7067957"><ele>582.0</ele><time>2026-04-03T13:53:13.233Z</time></trkpt><trkpt lat="44.3458753" lon="7.7068774"><ele>580.6666666666666</ele><time>2026-04-03T13:53:15.228Z</time></trkpt><trkpt lat="44.3459277" lon="7.7069654"><ele>579.3333333333333</ele><time>2026-04-03T13:53:17.229Z</time></trkpt><trkpt lat="44.3459897" lon="7.7070484"><ele>578.0</ele><time>2026-04-03T13:53:19.229Z</time></trkpt><trkpt lat="44.3460525" lon="7.7071206"><ele>578.0</ele><time>2026-04-03T13:53:22.231Z</time></trkpt><trkpt lat="44.3461983" lon="7.707262"><ele>578.0</ele><time>2026-04-03T13:53:24.23Z</time></trkpt><trkpt lat="44.346419" lon="7.7074636"><ele>578.0</ele><time>2026-04-03T13:53:25.232Z</time></trkpt><trkpt lat="44.3464867" lon="7.7075219"><ele>578.1666666666666</ele><time>2026-04-03T13:53:26.225Z</time></trkpt><trkpt lat="44.3465646" lon="7.7075434"><ele>578.3333333333333</ele><time>2026-04-03T13:53:27.227Z</time></trkpt><trkpt lat="44.3466448" lon="7.7075947"><ele>578.5</ele><time>2026-04-03T13:53:28.239Z</time></trkpt><trkpt lat="44.346709" lon="7.7076512"><ele>578.6666666666666</ele><time>2026-04-03T13:53:29.231Z</time></trkpt><trkpt lat="44.3467579" lon="7.7077286"><ele>578.8333333333334</ele><time>2026-04-03T13:53:30.233Z</time></trkpt><trkpt lat="44.3467647" lon="7.7078617"><ele>579.0</ele><time>2026-04-03T13:53:31.234Z</time></trkpt><trkpt lat="44.3467887" lon="7.7079837"><ele>576.6</ele><time>2026-04-03T13:53:32.232Z</time></trkpt><trkpt lat="44.3468411" lon="7.7080952"><ele>574.2</ele><time>2026-04-03T13:53:33.231Z</time></trkpt><trkpt lat="44.3469045" lon="7.7081904"><ele>571.8000000000001</ele><time>2026-04-03T13:53:34.229Z</time></trkpt><trkpt lat="44.3469641" lon="7.7082801"><ele>569.4</ele><time>2026-04-03T13:53:35.229Z</time></trkpt><trkpt lat="44.3470372" lon="7.7083686"><ele>567.0</ele><time>2026-04-03T13:53:36.227Z</time></trkpt><trkpt lat="44.3471206" lon="7.7084609"><ele>567.0</ele><time>2026-04-03T13:53:37.232Z</time></trkpt><trkpt lat="44.3472004" lon="7.7085196"><ele>567.0</ele><time>2026-04-03T13:53:38.229Z</time></trkpt><trkpt lat="44.3472858" lon="7.7085448"><ele>567.0</ele><time>2026-04-03T13:53:39.23Z</time></trkpt><trkpt lat="44.3473522" lon="7.708563"><ele>567.0</ele><time>2026-04-03T13:53:40.229Z</time></trkpt><trkpt lat="44.3474144" lon="7.7086384"><ele>567.0</ele><time>2026-04-03T13:53:42.231Z</time></trkpt><trkpt lat="44.347444" lon="7.7087566"><ele>567.0</ele><time>2026-04-03T13:53:44.228Z</time></trkpt><trkpt lat="44.3474741" lon="7.7088473"><ele>566.6666666666666</ele><time>2026-04-03T13:53:45.234Z</time></trkpt><trkpt lat="44.347514" lon="7.7089366"><ele>566.3333333333334</ele><time>2026-04-03T13:53:46.232Z</time></trkpt><trkpt lat="44.3475544" lon="7.7090366"><ele>566.0</ele><time>2026-04-03T13:53:47.229Z</time></trkpt><trkpt lat="44.3475876" lon="7.7091425"><ele>565.6666666666667</ele><time>2026-04-03T13:53:48.231Z</time></trkpt><trkpt lat="44.3476224" lon="7.7092471"><ele>565.3333333333334</ele><time>2026-04-03T13:53:49.227Z</time></trkpt><trkpt lat="44.3476634" lon="7.709338"><ele>565.0</ele><time>2026-04-03T13:53:50.228Z</time></trkpt><trkpt lat="44.3476975" lon="7.7094281"><ele>567.0</ele><time>2026-04-03T13:53:51.228Z</time></trkpt><trkpt lat="44.3477105" lon="7.7095388"><ele>569.0</ele><time>2026-04-03T13:53:52.231Z</time></trkpt><trkpt lat="44.3476961" lon="7.7096393"><ele>571.0</ele><time>2026-04-03T13:53:53.23Z</time></trkpt><trkpt lat="44.3476401" lon="7.7097049"><ele>573.0</ele><time>2026-04-03T13:53:54.232Z</time></trkpt><trkpt lat="44.3475646" lon="7.7097607"><ele>575.0</ele><time>2026-04-03T13:53:55.229Z</time></trkpt><trkpt lat="44.3474878" lon="7.7098202"><ele>577.0</ele><time>2026-04-03T13:53:56.232Z</time></trkpt><trkpt lat="44.3473928" lon="7.7098823"><ele>577.0</ele><time>2026-04-03T13:53:57.231Z</time></trkpt><trkpt lat="44.3473076" lon="7.7099701"><ele>577.0</ele><time>2026-04-03T13:53:58.229Z</time></trkpt><trkpt lat="44.3472294" lon="7.7100955"><ele>577.0</ele><time>2026-04-03T13:53:59.231Z</time></trkpt><trkpt lat="44.3471604" lon="7.7102478"><ele>577.0</ele><time>2026-04-03T13:54:00.23Z</time></trkpt><trkpt lat="44.3470992" lon="7.7104114"><ele>576.6</ele><time>2026-04-03T13:54:01.229Z</time></trkpt><trkpt lat="44.3470486" lon="7.7105539"><ele>576.2</ele><time>2026-04-03T13:54:02.233Z</time></trkpt><trkpt lat="44.3470217" lon="7.710691"><ele>575.8</ele><time>2026-04-03T13:54:03.228Z</time></trkpt><trkpt lat="44.3470195" lon="7.7108291"><ele>575.4</ele><time>2026-04-03T13:54:04.229Z</time></trkpt><trkpt lat="44.347067" lon="7.7109749"><ele>575.0</ele><time>2026-04-03T13:54:05.232Z</time></trkpt><trkpt lat="44.3471037" lon="7.711117"><ele>575.0</ele><time>2026-04-03T13:54:06.229Z</time></trkpt><trkpt lat="44.3471777" lon="7.7112813"><ele>575.0</ele><time>2026-04-03T13:54:07.234Z</time></trkpt><trkpt lat="44.3472432" lon="7.7114344"><ele>575.0</ele><time>2026-04-03T13:54:08.23Z</time></trkpt><trkpt lat="44.3472946" lon="7.7115771"><ele>575.0</ele><time>2026-04-03T13:54:09.233Z</time></trkpt><trkpt lat="44.3473427" lon="7.7117103"><ele>576.5</ele><time>2026-04-03T13:54:10.229Z</time></trkpt><trkpt lat="44.3473926" lon="7.7118338"><ele>578.0</ele><time>2026-04-03T13:54:11.228Z</time></trkpt><trkpt lat="44.347429" lon="7.7119472"><ele>579.5</ele><time>2026-04-03T13:54:12.231Z</time></trkpt><trkpt lat="44.3474282" lon="7.7120661"><ele>581.0</ele><time>2026-04-03T13:54:13.23Z</time></trkpt><trkpt lat="44.3474387" lon="7.7121589"><ele>582.5</ele><time>2026-04-03T13:54:14.233Z</time></trkpt><trkpt lat="44.3474049" lon="7.7122528"><ele>584.0</ele><time>2026-04-03T13:54:16.233Z</time></trkpt><trkpt lat="44.347267" lon="7.7121962"><ele>584.0</ele><time>2026-04-03T13:54:18.233Z</time></trkpt><trkpt lat="44.3472371" lon="7.7120507"><ele>584.0</ele><time>2026-04-03T13:54:19.236Z</time></trkpt><trkpt lat="44.3471347" lon="7.7119088"><ele>584.0</ele><time>2026-04-03T13:54:20.241Z</time></trkpt><trkpt lat="44.3469622" lon="7.7117446"><ele>581.75</ele><time>2026-04-03T13:54:21.229Z</time></trkpt><trkpt lat="44.3468529" lon="7.7116111"><ele>579.5</ele><time>2026-04-03T13:54:22.233Z</time></trkpt><trkpt lat="44.3467467" lon="7.7114816"><ele>577.25</ele><time>2026-04-03T13:54:23.23Z</time></trkpt><trkpt lat="44.3466443" lon="7.7113592"><ele>575.0</ele><time>2026-04-03T13:54:24.231Z</time></trkpt><trkpt lat="44.3465555" lon="7.711269"><ele>575.0</ele><time>2026-04-03T13:54:25.23Z</time></trkpt><trkpt lat="44.3464716" lon="7.7112355"><ele>575.0</ele><time>2026-04-03T13:54:26.227Z</time></trkpt><trkpt lat="44.3463737" lon="7.7112314"><ele>575.0</ele><time>2026-04-03T13:54:27.228Z</time></trkpt><trkpt lat="44.3462823" lon="7.711282"><ele>575.0</ele><time>2026-04-03T13:54:28.233Z</time></trkpt><trkpt lat="44.3461922" lon="7.7113727"><ele>575.0</ele><time>2026-04-03T13:54:29.228Z</time></trkpt><trkpt lat="44.3461128" lon="7.7115006"><ele>575.8</ele><time>2026-04-03T13:54:30.231Z</time></trkpt><trkpt lat="44.3460589" lon="7.7116282"><ele>576.6</ele><time>2026-04-03T13:54:31.232Z</time></trkpt><trkpt lat="44.3460452" lon="7.7117569"><ele>577.4</ele><time>2026-04-03T13:54:32.228Z</time></trkpt><trkpt lat="44.346071" lon="7.711879"><ele>578.2</ele><time>2026-04-03T13:54:33.234Z</time></trkpt><trkpt lat="44.3461343" lon="7.7119971"><ele>579.0</ele><time>2026-04-03T13:54:34.231Z</time></trkpt><trkpt lat="44.3462121" lon="7.7120928"><ele>579.0</ele><time>2026-04-03T13:54:35.231Z</time></trkpt><trkpt lat="44.3462617" lon="7.7121783"><ele>579.0</ele><time>2026-04-03T13:54:36.231Z</time></trkpt><trkpt lat="44.3462783" lon="7.7122756"><ele>579.0</ele><time>2026-04-03T13:54:37.227Z</time></trkpt><trkpt lat="44.3462615" lon="7.7124095"><ele>579.0</ele><time>2026-04-03T13:54:39.241Z</time></trkpt><trkpt lat="44.3461878" lon="7.7123208"><ele>579.0</ele><time>2026-04-03T13:54:40.23Z</time></trkpt><trkpt lat="44.3461189" lon="7.7122642"><ele>579.0</ele><time>2026-04-03T13:54:41.229Z</time></trkpt><trkpt lat="44.3460421" lon="7.7121908"><ele>579.0</ele><time>2026-04-03T13:54:42.235Z</time></trkpt><trkpt lat="44.345927" lon="7.7120834"><ele>579.0</ele><time>2026-04-03T13:54:43.233Z</time></trkpt><trkpt lat="44.345829" lon="7.7120214"><ele>579.0</ele><time>2026-04-03T13:54:44.226Z</time></trkpt><trkpt lat="44.3457459" lon="7.7120048"><ele>579.0</ele><time>2026-04-03T13:54:45.226Z</time></trkpt><trkpt lat="44.3456614" lon="7.7120342"><ele>579.0</ele><time>2026-04-03T13:54:46.231Z</time></trkpt><trkpt lat="44.3455879" lon="7.7121123"><ele>576.25</ele><time>2026-04-03T13:54:47.231Z</time></trkpt><trkpt lat="44.3455129" lon="7.7122219"><ele>573.5</ele><time>2026-04-03T13:54:48.23Z</time></trkpt><trkpt lat="44.3454274" lon="7.7123332"><ele>570.75</ele><time>2026-04-03T13:54:49.231Z</time></trkpt><trkpt lat="44.3453259" lon="7.7124194"><ele>568.0</ele><time>2026-04-03T13:54:50.228Z</time></trkpt><trkpt lat="44.3452278" lon="7.7124912"><ele>568.0</ele><time>2026-04-03T13:54:51.23Z</time></trkpt><trkpt lat="44.3451353" lon="7.7125664"><ele>568.0</ele><time>2026-04-03T13:54:52.228Z</time></trkpt><trkpt lat="44.3451193" lon="7.7126822"><ele>568.0</ele><time>2026-04-03T13:54:53.229Z</time></trkpt><trkpt lat="44.3451125" lon="7.7128085"><ele>568.0</ele><time>2026-04-03T13:54:54.231Z</time></trkpt><trkpt lat="44.3451339" lon="7.7129636"><ele>568.0</ele><time>2026-04-03T13:54:55.231Z</time></trkpt><trkpt lat="44.345125" lon="7.7131325"><ele>569.4</ele><time>2026-04-03T13:54:56.231Z</time></trkpt><trkpt lat="44.3450979" lon="7.7133021"><ele>570.8</ele><time>2026-04-03T13:54:57.229Z</time></trkpt><trkpt lat="44.3450741" lon="7.7134595"><ele>572.2</ele><time>2026-04-03T13:54:58.23Z</time></trkpt><trkpt lat="44.3450531" lon="7.7135987"><ele>573.6</ele><time>2026-04-03T13:54:59.225Z</time></trkpt><trkpt lat="44.3450385" lon="7.7137133"><ele>575.0</ele><time>2026-04-03T13:55:00.227Z</time></trkpt><trkpt lat="44.345032" lon="7.7138087"><ele>574.8</ele><time>2026-04-03T13:55:01.226Z</time></trkpt><trkpt lat="44.3449514" lon="7.713904"><ele>574.6</ele><time>2026-04-03T13:55:03.23Z</time></trkpt><trkpt lat="44.3448589" lon="7.7138245"><ele>574.4</ele><time>2026-04-03T13:55:05.228Z</time></trkpt><trkpt lat="44.3447959" lon="7.7137246"><ele>574.2</ele><time>2026-04-03T13:55:06.231Z</time></trkpt><trkpt lat="44.34475" lon="7.7135751"><ele>574.0</ele><time>2026-04-03T13:55:07.234Z</time></trkpt><trkpt lat="44.3446953" lon="7.7133957"><ele>574.0</ele><time>2026-04-03T13:55:08.237Z</time></trkpt><trkpt lat="44.344636" lon="7.7132312"><ele>574.0</ele><time>2026-04-03T13:55:09.229Z</time></trkpt><trkpt lat="44.3445903" lon="7.7130752"><ele>574.0</ele><time>2026-04-03T13:55:10.233Z</time></trkpt><trkpt lat="44.3445435" lon="7.7129573"><ele>574.0</ele><time>2026-04-03T13:55:11.229Z</time></trkpt><trkpt lat="44.3444723" lon="7.7128959"><ele>574.0</ele><time>2026-04-03T13:55:12.229Z</time></trkpt><trkpt lat="44.3443917" lon="7.7128915"><ele>574.0</ele><time>2026-04-03T13:55:13.227Z</time></trkpt><trkpt lat="44.3443381" lon="7.7129467"><ele>574.0</ele><time>2026-04-03T13:55:14.231Z</time></trkpt><trkpt lat="44.3443091" lon="7.7130358"><ele>574.0</ele><time>2026-04-03T13:55:15.231Z</time></trkpt><trkpt lat="44.3443465" lon="7.7132055"><ele>574.0</ele><time>2026-04-03T13:55:17.245Z</time></trkpt><trkpt lat="44.344397" lon="7.7133333"><ele>574.0</ele><time>2026-04-03T13:55:18.234Z</time></trkpt><trkpt lat="44.344423" lon="7.71349"><ele>576.5</ele><time>2026-04-03T13:55:19.237Z</time></trkpt><trkpt lat="44.3444492" lon="7.7136475"><ele>579.0</ele><time>2026-04-03T13:55:20.229Z</time></trkpt><trkpt lat="44.3444325" lon="7.7138401"><ele>581.5</ele><time>2026-04-03T13:55:21.232Z</time></trkpt><trkpt lat="44.3444006" lon="7.7140075"><ele>584.0</ele><time>2026-04-03T13:55:22.228Z</time></trkpt><trkpt lat="44.3443719" lon="7.7141732"><ele>584.0</ele><time>2026-04-03T13:55:23.233Z</time></trkpt><trkpt lat="44.3442724" lon="7.7143075"><ele>584.0</ele><time>2026-04-03T13:55:24.229Z</time></trkpt><trkpt lat="44.3442074" lon="7.7144712"><ele>584.0</ele><time>2026-04-03T13:55:25.23Z</time></trkpt><trkpt lat="44.3441499" lon="7.7146537"><ele>584.0</ele><time>2026-04-03T13:55:26.232Z</time></trkpt><trkpt lat="44.3440977" lon="7.7148638"><ele>587.0</ele><time>2026-04-03T13:55:27.231Z</time></trkpt><trkpt lat="44.3440645" lon="7.7150622"><ele>590.0</ele><time>2026-04-03T13:55:28.235Z</time></trkpt><trkpt lat="44.3440417" lon="7.715242"><ele>593.0</ele><time>2026-04-03T13:55:29.234Z</time></trkpt><trkpt lat="44.3440174" lon="7.7153973"><ele>596.0</ele><time>2026-04-03T13:55:30.229Z</time></trkpt><trkpt lat="44.3439783" lon="7.7155504"><ele>596.4</ele><time>2026-04-03T13:55:31.229Z</time></trkpt><trkpt lat="44.3439303" lon="7.715696"><ele>596.8</ele><time>2026-04-03T13:55:32.23Z</time></trkpt><trkpt lat="44.3438716" lon="7.7158285"><ele>597.1999999999999</ele><time>2026-04-03T13:55:33.234Z</time></trkpt><trkpt lat="44.3438082" lon="7.7159254"><ele>597.6</ele><time>2026-04-03T13:55:34.228Z</time></trkpt><trkpt lat="44.343732" lon="7.7159977"><ele>598.0</ele><time>2026-04-03T13:55:35.229Z</time></trkpt><trkpt lat="44.3436649" lon="7.7160325"><ele>598.4</ele><time>2026-04-03T13:55:36.23Z</time></trkpt><trkpt lat="44.3435936" lon="7.7160931"><ele>598.8</ele><time>2026-04-03T13:55:37.228Z</time></trkpt><trkpt lat="44.3435151" lon="7.716169"><ele>599.2</ele><time>2026-04-03T13:55:38.23Z</time></trkpt><trkpt lat="44.3434422" lon="7.7162537"><ele>599.6</ele><time>2026-04-03T13:55:39.237Z</time></trkpt><trkpt lat="44.3433765" lon="7.7163627"><ele>600.0</ele><time>2026-04-03T13:55:40.237Z</time></trkpt><trkpt lat="44.3433211" lon="7.7164962"><ele>600.0</ele><time>2026-04-03T13:55:41.23Z</time></trkpt><trkpt lat="44.3432711" lon="7.7166729"><ele>600.0</ele><time>2026-04-03T13:55:42.229Z</time></trkpt><trkpt lat="44.3432157" lon="7.716871"><ele>600.0</ele><time>2026-04-03T13:55:43.233Z</time></trkpt><trkpt lat="44.3431725" lon="7.717082"><ele>600.0</ele><time>2026-04-03T13:55:44.23Z</time></trkpt><trkpt lat="44.3431525" lon="7.7172925"><ele>600.0</ele><time>2026-04-03T13:55:45.23Z</time></trkpt><trkpt lat="44.343166" lon="7.7175072"><ele>600.0</ele><time>2026-04-03T13:55:46.231Z</time></trkpt><trkpt lat="44.3431946" lon="7.7177042"><ele>600.0</ele><time>2026-04-03T13:55:47.228Z</time></trkpt><trkpt lat="44.3432243" lon="7.7178747"><ele>600.0</ele><time>2026-04-03T13:55:48.232Z</time></trkpt><trkpt lat="44.3432526" lon="7.7180232"><ele>600.2</ele><time>2026-04-03T13:55:49.229Z</time></trkpt><trkpt lat="44.3432646" lon="7.7181369"><ele>600.4</ele><time>2026-04-03T13:55:50.232Z</time></trkpt><trkpt lat="44.3432693" lon="7.7182438"><ele>600.6</ele><time>2026-04-03T13:55:51.231Z</time></trkpt><trkpt lat="44.3433055" lon="7.7183938"><ele>600.8</ele><time>2026-04-03T13:55:53.232Z</time></trkpt><trkpt lat="44.3434287" lon="7.7184853"><ele>601.0</ele><time>2026-04-03T13:55:55.231Z</time></trkpt><trkpt lat="44.3435029" lon="7.7185346"><ele>599.8333333333334</ele><time>2026-04-03T13:55:56.239Z</time></trkpt><trkpt lat="44.3436073" lon="7.7185809"><ele>598.6666666666667</ele><time>2026-04-03T13:55:57.234Z</time></trkpt><trkpt lat="44.3437065" lon="7.7186181"><ele>597.5</ele><time>2026-04-03T13:55:58.232Z</time></trkpt><trkpt lat="44.343788" lon="7.7186157"><ele>596.3333333333334</ele><time>2026-04-03T13:55:59.231Z</time></trkpt><trkpt lat="44.3438581" lon="7.7186158"><ele>595.1666666666666</ele><time>2026-04-03T13:56:00.226Z</time></trkpt><trkpt lat="44.3439278" lon="7.7186103"><ele>594.0</ele><time>2026-04-03T13:56:01.23Z</time></trkpt><trkpt lat="44.3440073" lon="7.7185935"><ele>594.0</ele><time>2026-04-03T13:56:02.226Z</time></trkpt><trkpt lat="44.3440791" lon="7.7185867"><ele>594.0</ele><time>2026-04-03T13:56:03.234Z</time></trkpt><trkpt lat="44.3441417" lon="7.7185597"><ele>594.0</ele><time>2026-04-03T13:56:04.228Z</time></trkpt><trkpt lat="44.3442145" lon="7.718538"><ele>594.0</ele><time>2026-04-03T13:56:05.234Z</time></trkpt><trkpt lat="44.3442842" lon="7.7185311"><ele>594.0</ele><time>2026-04-03T13:56:06.229Z</time></trkpt><trkpt lat="44.3443606" lon="7.7185051"><ele>594.0</ele><time>2026-04-03T13:56:07.229Z</time></trkpt><trkpt lat="44.344439" lon="7.7184889"><ele>594.0</ele><time>2026-04-03T13:56:08.227Z</time></trkpt><trkpt lat="44.344521" lon="7.7184542"><ele>595.3333333333334</ele><time>2026-04-03T13:56:09.227Z</time></trkpt><trkpt lat="44.3445885" lon="7.7184222"><ele>596.6666666666666</ele><time>2026-04-03T13:56:10.234Z</time></trkpt><trkpt lat="44.3446565" lon="7.7184089"><ele>598.0</ele><time>2026-04-03T13:56:11.228Z</time></trkpt><trkpt lat="44.3447242" lon="7.7184125"><ele>599.3333333333333</ele><time>2026-04-03T13:56:12.23Z</time></trkpt><trkpt lat="44.3447906" lon="7.7184464"><ele>600.6666666666666</ele><time>2026-04-03T13:56:13.231Z</time></trkpt><trkpt lat="44.3448533" lon="7.7185403"><ele>602.0</ele><time>2026-04-03T13:56:14.233Z</time></trkpt><trkpt lat="44.3449114" lon="7.7186491"><ele>602.5</ele><time>2026-04-03T13:56:15.231Z</time></trkpt><trkpt lat="44.3449671" lon="7.7187702"><ele>603.0</ele><time>2026-04-03T13:56:16.233Z</time></trkpt><trkpt lat="44.345004" lon="7.7189242"><ele>603.5</ele><time>2026-04-03T13:56:17.232Z</time></trkpt><trkpt lat="44.3450602" lon="7.7190811"><ele>604.0</ele><time>2026-04-03T13:56:18.23Z</time></trkpt><trkpt lat="44.3451128" lon="7.7192337"><ele>604.0</ele><time>2026-04-03T13:56:19.23Z</time></trkpt><trkpt lat="44.3451774" lon="7.7193624"><ele>604.0</ele><time>2026-04-03T13:56:20.23Z</time></trkpt><trkpt lat="44.3452416" lon="7.7194838"><ele>604.0</ele><time>2026-04-03T13:56:21.229Z</time></trkpt><trkpt lat="44.3453126" lon="7.719603"><ele>604.0</ele><time>2026-04-03T13:56:22.237Z</time></trkpt><trkpt lat="44.3453885" lon="7.7196991"><ele>604.0</ele><time>2026-04-03T13:56:23.236Z</time></trkpt><trkpt lat="44.3454477" lon="7.7197606"><ele>604.6</ele><time>2026-04-03T13:56:24.228Z</time></trkpt><trkpt lat="44.3455214" lon="7.7198201"><ele>605.2</ele><time>2026-04-03T13:56:25.229Z</time></trkpt><trkpt lat="44.345608" lon="7.7198607"><ele>605.8000000000001</ele><time>2026-04-03T13:56:26.228Z</time></trkpt><trkpt lat="44.3457171" lon="7.7198854"><ele>606.4</ele><time>2026-04-03T13:56:27.229Z</time></trkpt><trkpt lat="44.3458477" lon="7.719912"><ele>607.0</ele><time>2026-04-03T13:56:28.228Z</time></trkpt><trkpt lat="44.3459715" lon="7.7199591"><ele>607.0</ele><time>2026-04-03T13:56:29.229Z</time></trkpt><trkpt lat="44.3460871" lon="7.7200021"><ele>607.0</ele><time>2026-04-03T13:56:30.232Z</time></trkpt><trkpt lat="44.3462037" lon="7.7200205"><ele>607.0</ele><time>2026-04-03T13:56:31.23Z</time></trkpt><trkpt lat="44.3463152" lon="7.7200326"><ele>607.0</ele><time>2026-04-03T13:56:32.23Z</time></trkpt><trkpt lat="44.3464028" lon="7.7200365"><ele>607.0</ele><time>2026-04-03T13:56:33.242Z</time></trkpt><trkpt lat="44.3464983" lon="7.7200215"><ele>607.0</ele><time>2026-04-03T13:56:34.23Z</time></trkpt><trkpt lat="44.3465728" lon="7.719995"><ele>607.0</ele><time>2026-04-03T13:56:35.227Z</time></trkpt><trkpt lat="44.3466908" lon="7.7200461"><ele>607.0</ele><time>2026-04-03T13:56:37.23Z</time></trkpt><trkpt lat="44.3467655" lon="7.7200841"><ele>607.0</ele><time>2026-04-03T13:56:38.23Z</time></trkpt><trkpt lat="44.3468671" lon="7.7201381"><ele>607.0</ele><time>2026-04-03T13:56:39.23Z</time></trkpt><trkpt lat="44.3469999" lon="7.7202234"><ele>605.8333333333334</ele><time>2026-04-03T13:56:40.228Z</time></trkpt><trkpt lat="44.347084" lon="7.7202631"><ele>604.6666666666667</ele><time>2026-04-03T13:56:41.232Z</time></trkpt><trkpt lat="44.3471798" lon="7.7202646"><ele>603.5</ele><time>2026-04-03T13:56:42.231Z</time></trkpt><trkpt lat="44.3472652" lon="7.7202674"><ele>602.3333333333334</ele><time>2026-04-03T13:56:43.227Z</time></trkpt><trkpt lat="44.3473338" lon="7.7203092"><ele>601.1666666666666</ele><time>2026-04-03T13:56:44.231Z</time></trkpt><trkpt lat="44.3473901" lon="7.7203572"><ele>600.0</ele><time>2026-04-03T13:56:45.228Z</time></trkpt><trkpt lat="44.3474408" lon="7.720432"><ele>600.0</ele><time>2026-04-03T13:56:46.23Z</time></trkpt><trkpt lat="44.3475204" lon="7.7205301"><ele>600.0</ele><time>2026-04-03T13:56:47.228Z</time></trkpt><trkpt lat="44.3476452" lon="7.7206297"><ele>600.0</ele><time>2026-04-03T13:56:48.23Z</time></trkpt><trkpt lat="44.3477532" lon="7.7207239"><ele>600.0</ele><time>2026-04-03T13:56:49.231Z</time></trkpt><trkpt lat="44.3478402" lon="7.7208315"><ele>600.0</ele><time>2026-04-03T13:56:50.23Z</time></trkpt><trkpt lat="44.3479272" lon="7.7209366"><ele>600.0</ele><time>2026-04-03T13:56:51.23Z</time></trkpt><trkpt lat="44.3480109" lon="7.7209976"><ele>600.0</ele><time>2026-04-03T13:56:52.229Z</time></trkpt><trkpt lat="44.3480875" lon="7.7210452"><ele>600.0</ele><time>2026-04-03T13:56:53.23Z</time></trkpt><trkpt lat="44.3481651" lon="7.7211019"><ele>600.0</ele><time>2026-04-03T13:56:54.23Z</time></trkpt><trkpt lat="44.3482868" lon="7.7211373"><ele>599.6</ele><time>2026-04-03T13:56:55.227Z</time></trkpt><trkpt lat="44.3484266" lon="7.7211816"><ele>599.2</ele><time>2026-04-03T13:56:56.232Z</time></trkpt><trkpt lat="44.3485384" lon="7.7212125"><ele>598.8</ele><time>2026-04-03T13:56:57.231Z</time></trkpt><trkpt lat="44.3486304" lon="7.7212426"><ele>598.4</ele><time>2026-04-03T13:56:58.231Z</time></trkpt><trkpt lat="44.3487158" lon="7.7212416"><ele>598.0</ele><time>2026-04-03T13:56:59.23Z</time></trkpt><trkpt lat="44.3488086" lon="7.7212497"><ele>597.5</ele><time>2026-04-03T13:57:00.23Z</time></trkpt><trkpt lat="44.3489054" lon="7.7212101"><ele>597.0</ele><time>2026-04-03T13:57:01.236Z</time></trkpt><trkpt lat="44.3490217" lon="7.7211539"><ele>596.5</ele><time>2026-04-03T13:57:02.233Z</time></trkpt><trkpt lat="44.3491652" lon="7.7211327"><ele>596.0</ele><time>2026-04-03T13:57:03.234Z</time></trkpt><trkpt lat="44.3492996" lon="7.7211538"><ele>596.0</ele><time>2026-04-03T13:57:04.232Z</time></trkpt><trkpt lat="44.3493974" lon="7.7211253"><ele>596.0</ele><time>2026-04-03T13:57:05.232Z</time></trkpt><trkpt lat="44.3494954" lon="7.7211004"><ele>596.0</ele><time>2026-04-03T13:57:06.229Z</time></trkpt><trkpt lat="44.3495996" lon="7.7210295"><ele>596.0</ele><time>2026-04-03T13:57:07.23Z</time></trkpt><trkpt lat="44.349684" lon="7.7209795"><ele>596.0</ele><time>2026-04-03T13:57:08.23Z</time></trkpt><trkpt lat="44.3497772" lon="7.7209468"><ele>595.6666666666666</ele><time>2026-04-03T13:57:09.235Z</time></trkpt><trkpt lat="44.3498726" lon="7.7209009"><ele>595.3333333333333</ele><time>2026-04-03T13:57:10.229Z</time></trkpt><trkpt lat="44.3499446" lon="7.7208288"><ele>595.0</ele><time>2026-04-03T13:57:11.231Z</time></trkpt><trkpt lat="44.3500175" lon="7.7207661"><ele>594.6666666666666</ele><time>2026-04-03T13:57:12.23Z</time></trkpt><trkpt lat="44.350109" lon="7.7207371"><ele>594.3333333333334</ele><time>2026-04-03T13:57:13.231Z</time></trkpt><trkpt lat="44.3501865" lon="7.7207573"><ele>594.0</ele><time>2026-04-03T13:57:14.229Z</time></trkpt><trkpt lat="44.3502808" lon="7.7207818"><ele>594.0</ele><time>2026-04-03T13:57:15.234Z</time></trkpt><trkpt lat="44.3503525" lon="7.7208065"><ele>594.0</ele><time>2026-04-03T13:57:16.231Z</time></trkpt><trkpt lat="44.3504338" lon="7.7208432"><ele>594.0</ele><time>2026-04-03T13:57:17.229Z</time></trkpt><trkpt lat="44.3505299" lon="7.7209262"><ele>594.0</ele><time>2026-04-03T13:57:18.231Z</time></trkpt><trkpt lat="44.3506182" lon="7.7210354"><ele>594.0</ele><time>2026-04-03T13:57:19.229Z</time></trkpt><trkpt lat="44.3507127" lon="7.7211176"><ele>593.0</ele><time>2026-04-03T13:57:20.232Z</time></trkpt><trkpt lat="44.3507951" lon="7.7211694"><ele>592.0</ele><time>2026-04-03T13:57:21.229Z</time></trkpt><trkpt lat="44.3508722" lon="7.7212161"><ele>591.0</ele><time>2026-04-03T13:57:22.234Z</time></trkpt><trkpt lat="44.3509603" lon="7.7212653"><ele>590.0</ele><time>2026-04-03T13:57:23.228Z</time></trkpt><trkpt lat="44.3510862" lon="7.7213197"><ele>589.0</ele><time>2026-04-03T13:57:24.231Z</time></trkpt><trkpt lat="44.3511784" lon="7.7213618"><ele>589.0</ele><time>2026-04-03T13:57:25.228Z</time></trkpt><trkpt lat="44.3512645" lon="7.7214135"><ele>589.0</ele><time>2026-04-03T13:57:26.233Z</time></trkpt><trkpt lat="44.3513248" lon="7.7215125"><ele>589.0</ele><time>2026-04-03T13:57:27.23Z</time></trkpt><trkpt lat="44.3513896" lon="7.7215981"><ele>589.0</ele><time>2026-04-03T13:57:28.229Z</time></trkpt><trkpt lat="44.3514304" lon="7.7216732"><ele>589.0</ele><time>2026-04-03T13:57:29.23Z</time></trkpt><trkpt lat="44.3514444" lon="7.7217946"><ele>589.0</ele><time>2026-04-03T13:57:30.231Z</time></trkpt><trkpt lat="44.3514375" lon="7.7219572"><ele>592.0</ele><time>2026-04-03T13:57:31.229Z</time></trkpt><trkpt lat="44.351462" lon="7.7220858"><ele>595.0</ele><time>2026-04-03T13:57:32.231Z</time></trkpt><trkpt lat="44.3515043" lon="7.7222206"><ele>598.0</ele><time>2026-04-03T13:57:33.231Z</time></trkpt><trkpt lat="44.351567" lon="7.7223696"><ele>601.0</ele><time>2026-04-03T13:57:34.23Z</time></trkpt><trkpt lat="44.3516155" lon="7.7225081"><ele>604.0</ele><time>2026-04-03T13:57:35.23Z</time></trkpt><trkpt lat="44.3516878" lon="7.7226552"><ele>603.8</ele><time>2026-04-03T13:57:36.231Z</time></trkpt><trkpt lat="44.3517302" lon="7.7227955"><ele>603.5999999999999</ele><time>2026-04-03T13:57:37.231Z</time></trkpt><trkpt lat="44.3517765" lon="7.7229386"><ele>603.4</ele><time>2026-04-03T13:57:38.232Z</time></trkpt><trkpt lat="44.3518092" lon="7.7230708"><ele>603.1999999999999</ele><time>2026-04-03T13:57:39.23Z</time></trkpt><trkpt lat="44.3518512" lon="7.723196"><ele>603.0</ele><time>2026-04-03T13:57:40.229Z</time></trkpt><trkpt lat="44.3519614" lon="7.7232597"><ele>603.0</ele><time>2026-04-03T13:57:42.233Z</time></trkpt><trkpt lat="44.3520484" lon="7.7233421"><ele>603.0</ele><time>2026-04-03T13:57:44.232Z</time></trkpt><trkpt lat="44.3521073" lon="7.7234129"><ele>603.0</ele><time>2026-04-03T13:57:47.237Z</time></trkpt><trkpt lat="44.3521875" lon="7.7235533"><ele>603.0</ele><time>2026-04-03T13:57:50.228Z</time></trkpt><trkpt lat="44.3523193" lon="7.7237466"><ele>600.4</ele><time>2026-04-03T13:57:51.227Z</time></trkpt><trkpt lat="44.3523859" lon="7.7238203"><ele>597.8</ele><time>2026-04-03T13:57:52.223Z</time></trkpt><trkpt lat="44.3524581" lon="7.7239225"><ele>595.2</ele><time>2026-04-03T13:57:53.226Z</time></trkpt><trkpt lat="44.3525283" lon="7.7240226"><ele>592.6</ele><time>2026-04-03T13:57:54.233Z</time></trkpt><trkpt lat="44.3525934" lon="7.7241226"><ele>590.0</ele><time>2026-04-03T13:57:55.231Z</time></trkpt><trkpt lat="44.352642" lon="7.7242065"><ele>590.0</ele><time>2026-04-03T13:57:56.231Z</time></trkpt><trkpt lat="44.3526776" lon="7.7243205"><ele>590.0</ele><time>2026-04-03T13:57:58.229Z</time></trkpt><trkpt lat="44.3526407" lon="7.7243993"><ele>590.0</ele><time>2026-04-03T13:58:13.23Z</time></trkpt><trkpt lat="44.3526275" lon="7.7245543"><ele>590.0</ele><time>2026-04-03T13:58:15.229Z</time></trkpt><trkpt lat="44.3526352" lon="7.7246688"><ele>590.0</ele><time>2026-04-03T13:58:17.232Z</time></trkpt><trkpt lat="44.3526065" lon="7.7247763"><ele>590.0</ele><time>2026-04-03T13:58:20.245Z</time></trkpt><trkpt lat="44.352577" lon="7.7249993"><ele>591.0</ele><time>2026-04-03T13:58:21.233Z</time></trkpt><trkpt lat="44.352539" lon="7.7256679"><ele>591.0</ele><time>2026-04-03T13:58:22.232Z</time></trkpt><trkpt lat="44.3525595" lon="7.7258431"><ele>591.0</ele><time>2026-04-03T13:58:23.224Z</time></trkpt><trkpt lat="44.3525907" lon="7.7260012"><ele>591.0</ele><time>2026-04-03T13:58:24.224Z</time></trkpt><trkpt lat="44.3526162" lon="7.7261495"><ele>591.0</ele><time>2026-04-03T13:58:25.232Z</time></trkpt><trkpt lat="44.3526735" lon="7.7262753"><ele>591.75</ele><time>2026-04-03T13:58:26.233Z</time></trkpt><trkpt lat="44.3527006" lon="7.7263959"><ele>592.5</ele><time>2026-04-03T13:58:27.229Z</time></trkpt><trkpt lat="44.3527177" lon="7.7265542"><ele>593.25</ele><time>2026-04-03T13:58:28.23Z</time></trkpt><trkpt lat="44.3527292" lon="7.7267187"><ele>594.0</ele><time>2026-04-03T13:58:29.23Z</time></trkpt><trkpt lat="44.3527485" lon="7.7269057"><ele>594.25</ele><time>2026-04-03T13:58:30.229Z</time></trkpt><trkpt lat="44.3527615" lon="7.7271379"><ele>594.5</ele><time>2026-04-03T13:58:31.23Z</time></trkpt><trkpt lat="44.3527753" lon="7.7273407"><ele>594.75</ele><time>2026-04-03T13:58:32.23Z</time></trkpt><trkpt lat="44.3527945" lon="7.7275123"><ele>595.0</ele><time>2026-04-03T13:58:33.231Z</time></trkpt><trkpt lat="44.352802" lon="7.7276642"><ele>594.5</ele><time>2026-04-03T13:58:34.232Z</time></trkpt><trkpt lat="44.3528391" lon="7.7277883"><ele>594.0</ele><time>2026-04-03T13:58:35.233Z</time></trkpt><trkpt lat="44.3528856" lon="7.7279336"><ele>593.5</ele><time>2026-04-03T13:58:36.229Z</time></trkpt><trkpt lat="44.3529386" lon="7.7281002"><ele>593.0</ele><time>2026-04-03T13:58:37.229Z</time></trkpt><trkpt lat="44.3529892" lon="7.7282438"><ele>593.0</ele><time>2026-04-03T13:58:38.232Z</time></trkpt><trkpt lat="44.3530403" lon="7.7283644"><ele>593.0</ele><time>2026-04-03T13:58:39.232Z</time></trkpt><trkpt lat="44.3531222" lon="7.7284867"><ele>593.0</ele><time>2026-04-03T13:58:40.228Z</time></trkpt><trkpt lat="44.3531921" lon="7.7286001"><ele>593.0</ele><time>2026-04-03T13:58:41.231Z</time></trkpt><trkpt lat="44.3532681" lon="7.7287105"><ele>593.0</ele><time>2026-04-03T13:58:42.233Z</time></trkpt><trkpt lat="44.3533294" lon="7.7287982"><ele>593.0</ele><time>2026-04-03T13:58:43.234Z</time></trkpt><trkpt lat="44.3533885" lon="7.728885"><ele>593.0</ele><time>2026-04-03T13:58:45.23Z</time></trkpt><trkpt lat="44.3534485" lon="7.7289445"><ele>593.0</ele><time>2026-04-03T13:58:47.235Z</time></trkpt><trkpt lat="44.3535131" lon="7.7289496"><ele>593.0</ele><time>2026-04-03T13:58:48.233Z</time></trkpt><trkpt lat="44.35362" lon="7.7289719"><ele>593.0</ele><time>2026-04-03T13:58:50.228Z</time></trkpt><trkpt lat="44.3536372" lon="7.7290639"><ele>593.0</ele><time>2026-04-03T13:58:54.23Z</time></trkpt><trkpt lat="44.3536535" lon="7.7291617"><ele>593.0</ele><time>2026-04-03T13:58:57.232Z</time></trkpt><trkpt lat="44.3537318" lon="7.7292406"><ele>593.0</ele><time>2026-04-03T13:59:00.226Z</time></trkpt><trkpt lat="44.3537914" lon="7.7292768"><ele>593.0</ele><time>2026-04-03T13:59:02.232Z</time></trkpt><trkpt lat="44.3538517" lon="7.7293034"><ele>593.0</ele><time>2026-04-03T13:59:04.24Z</time></trkpt><trkpt lat="44.3540858" lon="7.72936"><ele>594.25</ele><time>2026-04-03T13:59:06.23Z</time></trkpt><trkpt lat="44.3542464" lon="7.7293456"><ele>595.5</ele><time>2026-04-03T13:59:07.229Z</time></trkpt><trkpt lat="44.3543457" lon="7.7293618"><ele>596.75</ele><time>2026-04-03T13:59:08.224Z</time></trkpt><trkpt lat="44.3544395" lon="7.7293477"><ele>598.0</ele><time>2026-04-03T13:59:09.236Z</time></trkpt><trkpt lat="44.3545564" lon="7.7293573"><ele>598.0</ele><time>2026-04-03T13:59:10.229Z</time></trkpt><trkpt lat="44.3546816" lon="7.7293365"><ele>598.0</ele><time>2026-04-03T13:59:11.228Z</time></trkpt><trkpt lat="44.3547995" lon="7.7293363"><ele>598.0</ele><time>2026-04-03T13:59:12.238Z</time></trkpt><trkpt lat="44.3548892" lon="7.7293647"><ele>598.0</ele><time>2026-04-03T13:59:13.229Z</time></trkpt><trkpt lat="44.3549963" lon="7.7293822"><ele>598.0</ele><time>2026-04-03T13:59:14.228Z</time></trkpt><trkpt lat="44.3551021" lon="7.7294241"><ele>600.1999999999999</ele><time>2026-04-03T13:59:15.231Z</time></trkpt><trkpt lat="44.3551894" lon="7.7294567"><ele>602.4</ele><time>2026-04-03T13:59:16.232Z</time></trkpt><trkpt lat="44.3552394" lon="7.7293979"><ele>604.5999999999999</ele><time>2026-04-03T13:59:17.23Z</time></trkpt><trkpt lat="44.3552303" lon="7.7292845"><ele>606.8</ele><time>2026-04-03T13:59:18.228Z</time></trkpt><trkpt lat="44.3552943" lon="7.7291888"><ele>609.0</ele><time>2026-04-03T13:59:19.234Z</time></trkpt><trkpt lat="44.3553767" lon="7.729038"><ele>609.25</ele><time>2026-04-03T13:59:20.231Z</time></trkpt><trkpt lat="44.355459" lon="7.7288885"><ele>609.5</ele><time>2026-04-03T13:59:21.227Z</time></trkpt><trkpt lat="44.3555225" lon="7.7287579"><ele>609.75</ele><time>2026-04-03T13:59:22.231Z</time></trkpt><trkpt lat="44.3556253" lon="7.7286138"><ele>610.0</ele><time>2026-04-03T13:59:23.227Z</time></trkpt><trkpt lat="44.3557161" lon="7.728445"><ele>610.0</ele><time>2026-04-03T13:59:24.233Z</time></trkpt><trkpt lat="44.3557991" lon="7.7282849"><ele>610.0</ele><time>2026-04-03T13:59:25.226Z</time></trkpt><trkpt lat="44.355878" lon="7.728131"><ele>610.0</ele><time>2026-04-03T13:59:26.228Z</time></trkpt><trkpt lat="44.3560041" lon="7.7280185"><ele>610.0</ele><time>2026-04-03T13:59:27.231Z</time></trkpt><trkpt lat="44.3561341" lon="7.7279136"><ele>610.0</ele><time>2026-04-03T13:59:28.231Z</time></trkpt><trkpt lat="44.3562306" lon="7.727827"><ele>610.0</ele><time>2026-04-03T13:59:29.231Z</time></trkpt><trkpt lat="44.3562991" lon="7.7277953"><ele>610.0</ele><time>2026-04-03T13:59:31.228Z</time></trkpt><trkpt lat="44.3563726" lon="7.7277691"><ele>610.0</ele><time>2026-04-03T13:59:32.227Z</time></trkpt><trkpt lat="44.3564475" lon="7.7277445"><ele>610.0</ele><time>2026-04-03T13:59:34.231Z</time></trkpt><trkpt lat="44.3565435" lon="7.7276996"><ele>610.0</ele><time>2026-04-03T13:59:37.228Z</time></trkpt><trkpt lat="44.3566194" lon="7.7276619"><ele>609.6</ele><time>2026-04-03T13:59:41.227Z</time></trkpt><trkpt lat="44.3567219" lon="7.7276484"><ele>609.2</ele><time>2026-04-03T13:59:47.23Z</time></trkpt><trkpt lat="44.3567914" lon="7.7276894"><ele>608.8</ele><time>2026-04-03T13:59:49.228Z</time></trkpt><trkpt lat="44.3568419" lon="7.7277532"><ele>608.4</ele><time>2026-04-03T13:59:51.227Z</time></trkpt><trkpt lat="44.3569086" lon="7.7278411"><ele>608.0</ele><time>2026-04-03T13:59:54.229Z</time></trkpt><trkpt lat="44.3574289" lon="7.7281961"><ele>608.8333333333333</ele><time>2026-04-03T13:59:56.232Z</time></trkpt><trkpt lat="44.3575115" lon="7.7282415"><ele>609.6666666666666</ele><time>2026-04-03T13:59:57.227Z</time></trkpt><trkpt lat="44.3575588" lon="7.7283035"><ele>610.5</ele><time>2026-04-03T13:59:58.226Z</time></trkpt><trkpt lat="44.3575609" lon="7.7284156"><ele>611.3333333333334</ele><time>2026-04-03T14:00:00.232Z</time></trkpt><trkpt lat="44.3575905" lon="7.7285352"><ele>612.1666666666667</ele><time>2026-04-03T14:00:03.229Z</time></trkpt><trkpt lat="44.3576414" lon="7.7286563"><ele>613.0</ele><time>2026-04-03T14:00:05.231Z</time></trkpt><trkpt lat="44.3576803" lon="7.7287363"><ele>613.1428571428571</ele><time>2026-04-03T14:00:07.233Z</time></trkpt><trkpt lat="44.3576955" lon="7.7288239"><ele>613.2857142857142</ele><time>2026-04-03T14:00:28.231Z</time></trkpt><trkpt lat="44.3577572" lon="7.7288465"><ele>613.4285714285713</ele><time>2026-04-03T14:00:30.232Z</time></trkpt><trkpt lat="44.3578263" lon="7.7288564"><ele>613.5714285714286</ele><time>2026-04-03T14:00:31.232Z</time></trkpt><trkpt lat="44.3578795" lon="7.7289068"><ele>613.7142857142857</ele><time>2026-04-03T14:00:32.23Z</time></trkpt><trkpt lat="44.357915" lon="7.7289945"><ele>613.8571428571428</ele><time>2026-04-03T14:00:33.234Z</time></trkpt><trkpt lat="44.3579422" lon="7.7290934"><ele>614.0</ele><time>2026-04-03T14:00:34.228Z</time></trkpt><trkpt lat="44.3579815" lon="7.7291643"><ele>612.5</ele><time>2026-04-03T14:00:35.228Z</time></trkpt><trkpt lat="44.3580513" lon="7.7292159"><ele>611.0</ele><time>2026-04-03T14:00:38.232Z</time></trkpt><trkpt lat="44.3581237" lon="7.7292336"><ele>609.5</ele><time>2026-04-03T14:00:41.227Z</time></trkpt><trkpt lat="44.358212" lon="7.7292427"><ele>608.0</ele><time>2026-04-03T14:00:44.236Z</time></trkpt><trkpt lat="44.3583246" lon="7.7292603"><ele>606.5</ele><time>2026-04-03T14:00:46.23Z</time></trkpt><trkpt lat="44.3583767" lon="7.7293241"><ele>605.0</ele><time>2026-04-03T14:00:47.232Z</time></trkpt><trkpt lat="44.3584128" lon="7.729432"><ele>605.0</ele><time>2026-04-03T14:00:49.221Z</time></trkpt><trkpt lat="44.3584819" lon="7.7294365"><ele>605.0</ele><time>2026-04-03T14:00:52.229Z</time></trkpt><trkpt lat="44.3584433" lon="7.7293397"><ele>605.0</ele><time>2026-04-03T14:00:56.227Z</time></trkpt><trkpt lat="44.358371" lon="7.7292691"><ele>605.0</ele><time>2026-04-03T14:00:59.229Z</time></trkpt><trkpt lat="44.358252" lon="7.7292388"><ele>605.0</ele><time>2026-04-03T14:01:01.231Z</time></trkpt><trkpt lat="44.3581649" lon="7.7292056"><ele>605.0</ele><time>2026-04-03T14:01:02.231Z</time></trkpt><trkpt lat="44.3580869" lon="7.7291566"><ele>606.8</ele><time>2026-04-03T14:01:03.231Z</time></trkpt><trkpt lat="44.3580177" lon="7.7290791"><ele>608.6</ele><time>2026-04-03T14:01:04.228Z</time></trkpt><trkpt lat="44.3579266" lon="7.7289027"><ele>610.4</ele><time>2026-04-03T14:01:05.227Z</time></trkpt><trkpt lat="44.3578384" lon="7.7288365"><ele>612.2</ele><time>2026-04-03T14:01:06.227Z</time></trkpt><trkpt lat="44.3577397" lon="7.7287957"><ele>614.0</ele><time>2026-04-03T14:01:08.225Z</time></trkpt><trkpt lat="44.3577159" lon="7.7287132"><ele>614.0</ele><time>2026-04-03T14:01:10.228Z</time></trkpt><trkpt lat="44.3576907" lon="7.7286038"><ele>614.0</ele><time>2026-04-03T14:01:12.229Z</time></trkpt><trkpt lat="44.3576543" lon="7.7284839"><ele>614.0</ele><time>2026-04-03T14:01:14.23Z</time></trkpt><trkpt lat="44.3576299" lon="7.7283617"><ele>614.0</ele><time>2026-04-03T14:01:16.233Z</time></trkpt><trkpt lat="44.3576029" lon="7.7282523"><ele>614.0</ele><time>2026-04-03T14:01:35.241Z</time></trkpt><trkpt lat="44.3576166" lon="7.7280727"><ele>613.8333333333333</ele><time>2026-04-03T14:01:37.233Z</time></trkpt><trkpt lat="44.3576242" lon="7.7279694"><ele>613.6666666666666</ele><time>2026-04-03T14:01:38.238Z</time></trkpt><trkpt lat="44.3576425" lon="7.7278601"><ele>613.5</ele><time>2026-04-03T14:01:39.245Z</time></trkpt><trkpt lat="44.357674" lon="7.7277435"><ele>613.3333333333334</ele><time>2026-04-03T14:01:40.236Z</time></trkpt><trkpt lat="44.3577205" lon="7.727621"><ele>613.1666666666667</ele><time>2026-04-03T14:01:41.23Z</time></trkpt><trkpt lat="44.3577651" lon="7.7275269"><ele>613.0</ele><time>2026-04-03T14:01:42.23Z</time></trkpt><trkpt lat="44.3578024" lon="7.7274439"><ele>611.6666666666667</ele><time>2026-04-03T14:01:43.227Z</time></trkpt><trkpt lat="44.3578413" lon="7.7273491"><ele>610.3333333333334</ele><time>2026-04-03T14:01:44.231Z</time></trkpt><trkpt lat="44.3579115" lon="7.7272353"><ele>609.0</ele><time>2026-04-03T14:01:45.23Z</time></trkpt><trkpt lat="44.357967" lon="7.7271382"><ele>607.6666666666666</ele><time>2026-04-03T14:01:46.231Z</time></trkpt><trkpt lat="44.3580215" lon="7.7270517"><ele>606.3333333333333</ele><time>2026-04-03T14:01:47.234Z</time></trkpt><trkpt lat="44.3580847" lon="7.7269659"><ele>605.0</ele><time>2026-04-03T14:01:48.231Z</time></trkpt><trkpt lat="44.3580806" lon="7.726866"><ele>603.5714285714286</ele><time>2026-04-03T14:01:49.232Z</time></trkpt><trkpt lat="44.3581026" lon="7.7267655"><ele>602.1428571428571</ele><time>2026-04-03T14:01:51.23Z</time></trkpt><trkpt lat="44.3581276" lon="7.7266724"><ele>600.7142857142858</ele><time>2026-04-03T14:01:53.234Z</time></trkpt><trkpt lat="44.3581642" lon="7.7265946"><ele>599.2857142857142</ele><time>2026-04-03T14:01:56.231Z</time></trkpt><trkpt lat="44.3582082" lon="7.7265031"><ele>597.8571428571429</ele><time>2026-04-03T14:01:59.229Z</time></trkpt><trkpt lat="44.3582777" lon="7.7264788"><ele>596.4285714285714</ele><time>2026-04-03T14:02:02.234Z</time></trkpt><trkpt lat="44.3583275" lon="7.7265346"><ele>595.0</ele><time>2026-04-03T14:02:04.229Z</time></trkpt><trkpt lat="44.3583976" lon="7.7266085"><ele>595.0</ele><time>2026-04-03T14:02:06.228Z</time></trkpt><trkpt lat="44.3584934" lon="7.7267076"><ele>595.0</ele><time>2026-04-03T14:02:08.232Z</time></trkpt><trkpt lat="44.3586857" lon="7.7268985"><ele>595.0</ele><time>2026-04-03T14:02:09.23Z</time></trkpt><trkpt lat="44.3587875" lon="7.7269783"><ele>592.0</ele><time>2026-04-03T14:02:10.229Z</time></trkpt><trkpt lat="44.3589338" lon="7.7270645"><ele>589.0</ele><time>2026-04-03T14:02:11.232Z</time></trkpt><trkpt lat="44.3590411" lon="7.7271412"><ele>586.0</ele><time>2026-04-03T14:02:12.224Z</time></trkpt><trkpt lat="44.3591288" lon="7.7271931"><ele>583.0</ele><time>2026-04-03T14:02:13.223Z</time></trkpt><trkpt lat="44.3592159" lon="7.7272197"><ele>583.0</ele><time>2026-04-03T14:02:14.232Z</time></trkpt><trkpt lat="44.3592969" lon="7.7272561"><ele>583.0</ele><time>2026-04-03T14:02:15.238Z</time></trkpt><trkpt lat="44.3593688" lon="7.7272598"><ele>583.0</ele><time>2026-04-03T14:02:16.233Z</time></trkpt><trkpt lat="44.3594514" lon="7.727312"><ele>583.0</ele><time>2026-04-03T14:02:17.227Z</time></trkpt><trkpt lat="44.359539" lon="7.7273577"><ele>583.0</ele><time>2026-04-03T14:02:18.238Z</time></trkpt><trkpt lat="44.3596085" lon="7.7273989"><ele>583.0</ele><time>2026-04-03T14:02:19.229Z</time></trkpt><trkpt lat="44.3596643" lon="7.7274482"><ele>579.6</ele><time>2026-04-03T14:02:20.228Z</time></trkpt><trkpt lat="44.3597214" lon="7.727504"><ele>576.1999999999999</ele><time>2026-04-03T14:02:21.23Z</time></trkpt><trkpt lat="44.3598231" lon="7.7275436"><ele>572.8</ele><time>2026-04-03T14:02:23.227Z</time></trkpt><trkpt lat="44.3599289" lon="7.7276024"><ele>569.4</ele><time>2026-04-03T14:02:25.228Z</time></trkpt><trkpt lat="44.3600476" lon="7.7276972"><ele>566.0</ele><time>2026-04-03T14:02:27.237Z</time></trkpt><trkpt lat="44.360113" lon="7.7277432"><ele>565.2857142857143</ele><time>2026-04-03T14:02:28.232Z</time></trkpt><trkpt lat="44.3601783" lon="7.7278231"><ele>564.5714285714287</ele><time>2026-04-03T14:02:29.23Z</time></trkpt><trkpt lat="44.3602305" lon="7.7278842"><ele>563.8571428571429</ele><time>2026-04-03T14:02:30.236Z</time></trkpt><trkpt lat="44.3602882" lon="7.7279358"><ele>563.1428571428571</ele><time>2026-04-03T14:02:31.232Z</time></trkpt><trkpt lat="44.3603453" lon="7.728001"><ele>562.4285714285713</ele><time>2026-04-03T14:02:32.23Z</time></trkpt><trkpt lat="44.3604023" lon="7.7280673"><ele>561.7142857142857</ele><time>2026-04-03T14:02:33.228Z</time></trkpt><trkpt lat="44.3604588" lon="7.7281156"><ele>561.0</ele><time>2026-04-03T14:02:34.229Z</time></trkpt><trkpt lat="44.3605602" lon="7.7282134"><ele>559.0</ele><time>2026-04-03T14:02:36.233Z</time></trkpt><trkpt lat="44.3606239" lon="7.728255"><ele>557.0</ele><time>2026-04-03T14:02:37.229Z</time></trkpt><trkpt lat="44.3606861" lon="7.7283179"><ele>555.0</ele><time>2026-04-03T14:02:38.23Z</time></trkpt><trkpt lat="44.3607894" lon="7.7284148"><ele>553.0</ele><time>2026-04-03T14:02:40.225Z</time></trkpt><trkpt lat="44.3608498" lon="7.7284725"><ele>551.0</ele><time>2026-04-03T14:02:41.23Z</time></trkpt><trkpt lat="44.3609102" lon="7.7285233"><ele>549.0</ele><time>2026-04-03T14:02:42.229Z</time></trkpt><trkpt lat="44.3609685" lon="7.7285618"><ele>549.0</ele><time>2026-04-03T14:02:43.227Z</time></trkpt><trkpt lat="44.3610266" lon="7.728599"><ele>549.0</ele><time>2026-04-03T14:02:44.229Z</time></trkpt><trkpt lat="44.3611368" lon="7.7286297"><ele>549.0</ele><time>2026-04-03T14:02:46.228Z</time></trkpt><trkpt lat="44.3612322" lon="7.7285866"><ele>549.0</ele><time>2026-04-03T14:02:48.229Z</time></trkpt><trkpt lat="44.3612769" lon="7.7284797"><ele>549.0</ele><time>2026-04-03T14:02:50.233Z</time></trkpt><trkpt lat="44.3613197" lon="7.7282939"><ele>548.8571428571429</ele><time>2026-04-03T14:02:52.233Z</time></trkpt><trkpt lat="44.361349" lon="7.7281941"><ele>548.7142857142858</ele><time>2026-04-03T14:02:53.241Z</time></trkpt><trkpt lat="44.3613763" lon="7.7281132"><ele>548.5714285714287</ele><time>2026-04-03T14:02:54.24Z</time></trkpt><trkpt lat="44.36142" lon="7.7280483"><ele>548.4285714285714</ele><time>2026-04-03T14:02:55.23Z</time></trkpt><trkpt lat="44.3614769" lon="7.7279926"><ele>548.2857142857143</ele><time>2026-04-03T14:02:56.23Z</time></trkpt><trkpt lat="44.3615459" lon="7.7279363"><ele>548.1428571428572</ele><time>2026-04-03T14:02:57.231Z</time></trkpt><trkpt lat="44.361613" lon="7.7278894"><ele>548.0</ele><time>2026-04-03T14:02:58.228Z</time></trkpt><trkpt lat="44.3616801" lon="7.7278535"><ele>546.4</ele><time>2026-04-03T14:02:59.229Z</time></trkpt><trkpt lat="44.3617449" lon="7.7278375"><ele>544.8</ele><time>2026-04-03T14:03:00.232Z</time></trkpt><trkpt lat="44.3618143" lon="7.7278061"><ele>543.2</ele><time>2026-04-03T14:03:01.229Z</time></trkpt><trkpt lat="44.3618691" lon="7.7277261"><ele>541.6</ele><time>2026-04-03T14:03:02.229Z</time></trkpt><trkpt lat="44.3619195" lon="7.7276341"><ele>540.0</ele><time>2026-04-03T14:03:03.231Z</time></trkpt><trkpt lat="44.3618822" lon="7.7274291"><ele>540.0</ele><time>2026-04-03T14:03:05.227Z</time></trkpt><trkpt lat="44.3619144" lon="7.7272907"><ele>540.0</ele><time>2026-04-03T14:03:07.228Z</time></trkpt><trkpt lat="44.3619853" lon="7.7272932"><ele>540.0</ele><time>2026-04-03T14:03:09.228Z</time></trkpt><trkpt lat="44.3620768" lon="7.7273089"><ele>540.0</ele><time>2026-04-03T14:03:11.228Z</time></trkpt><trkpt lat="44.3622277" lon="7.7273373"><ele>540.0</ele><time>2026-04-03T14:03:13.236Z</time></trkpt><trkpt lat="44.3623149" lon="7.7273576"><ele>536.4</ele><time>2026-04-03T14:03:14.229Z</time></trkpt><trkpt lat="44.362436" lon="7.7273632"><ele>532.8</ele><time>2026-04-03T14:03:15.23Z</time></trkpt><trkpt lat="44.3625448" lon="7.7273734"><ele>529.2</ele><time>2026-04-03T14:03:16.231Z</time></trkpt><trkpt lat="44.3626655" lon="7.7273743"><ele>525.6</ele><time>2026-04-03T14:03:17.23Z</time></trkpt><trkpt lat="44.3627589" lon="7.7273779"><ele>522.0</ele><time>2026-04-03T14:03:18.228Z</time></trkpt><trkpt lat="44.362836" lon="7.72741"><ele>522.0</ele><time>2026-04-03T14:03:19.23Z</time></trkpt><trkpt lat="44.3628989" lon="7.727527"><ele>522.0</ele><time>2026-04-03T14:03:21.225Z</time></trkpt><trkpt lat="44.3629303" lon="7.7276902"><ele>522.0</ele><time>2026-04-03T14:03:23.233Z</time></trkpt><trkpt lat="44.3629683" lon="7.7278396"><ele>522.0</ele><time>2026-04-03T14:03:25.234Z</time></trkpt><trkpt lat="44.3630058" lon="7.7279221"><ele>522.0</ele><time>2026-04-03T14:03:26.226Z</time></trkpt><trkpt lat="44.3630827" lon="7.728037"><ele>521.0</ele><time>2026-04-03T14:03:28.227Z</time></trkpt><trkpt lat="44.3631938" lon="7.7280248"><ele>520.0</ele><time>2026-04-03T14:03:30.227Z</time></trkpt><trkpt lat="44.3632807" lon="7.7280015"><ele>519.0</ele><time>2026-04-03T14:03:31.235Z</time></trkpt><trkpt lat="44.3633664" lon="7.7279964"><ele>518.0</ele><time>2026-04-03T14:03:32.234Z</time></trkpt><trkpt lat="44.363444" lon="7.7279569"><ele>517.0</ele><time>2026-04-03T14:03:33.226Z</time></trkpt><trkpt lat="44.363515" lon="7.7279029"><ele>516.0</ele><time>2026-04-03T14:03:34.231Z</time></trkpt><trkpt lat="44.363609" lon="7.7278781"><ele>516.0</ele><time>2026-04-03T14:03:35.231Z</time></trkpt><trkpt lat="44.3636918" lon="7.7278462"><ele>516.0</ele><time>2026-04-03T14:03:36.226Z</time></trkpt><trkpt lat="44.3637914" lon="7.7278387"><ele>516.0</ele><time>2026-04-03T14:03:37.232Z</time></trkpt><trkpt lat="44.3639109" lon="7.7277987"><ele>516.0</ele><time>2026-04-03T14:03:38.231Z</time></trkpt><trkpt lat="44.3640188" lon="7.7277576"><ele>516.0</ele><time>2026-04-03T14:03:39.23Z</time></trkpt><trkpt lat="44.3641142" lon="7.7277367"><ele>514.2</ele><time>2026-04-03T14:03:40.227Z</time></trkpt><trkpt lat="44.3642086" lon="7.727718"><ele>512.4000000000001</ele><time>2026-04-03T14:03:41.229Z</time></trkpt><trkpt lat="44.3642807" lon="7.7276891"><ele>510.6</ele><time>2026-04-03T14:03:42.232Z</time></trkpt><trkpt lat="44.3643907" lon="7.7276537"><ele>508.8</ele><time>2026-04-03T14:03:44.227Z</time></trkpt><trkpt lat="44.3644747" lon="7.7276924"><ele>507.0</ele><time>2026-04-03T14:03:46.225Z</time></trkpt><trkpt lat="44.3645423" lon="7.7277598"><ele>507.0</ele><time>2026-04-03T14:03:48.224Z</time></trkpt><trkpt lat="44.3646266" lon="7.7278082"><ele>507.0</ele><time>2026-04-03T14:03:51.235Z</time></trkpt><trkpt lat="44.3647194" lon="7.7278497"><ele>507.0</ele><time>2026-04-03T14:03:54.236Z</time></trkpt><trkpt lat="44.3648023" lon="7.7278757"><ele>507.0</ele><time>2026-04-03T14:03:56.229Z</time></trkpt><trkpt lat="44.3648632" lon="7.7279409"><ele>507.0</ele><time>2026-04-03T14:03:58.229Z</time></trkpt><trkpt lat="44.3649368" lon="7.728015"><ele>507.0</ele><time>2026-04-03T14:04:01.223Z</time></trkpt><trkpt lat="44.3649978" lon="7.7280891"><ele>504.20000000000005</ele><time>2026-04-03T14:04:04.226Z</time></trkpt><trkpt lat="44.3650842" lon="7.7281706"><ele>501.40000000000003</ele><time>2026-04-03T14:04:07.228Z</time></trkpt><trkpt lat="44.3651808" lon="7.7283183"><ele>498.59999999999997</ele><time>2026-04-03T14:04:09.227Z</time></trkpt><trkpt lat="44.3652349" lon="7.7284026"><ele>495.79999999999995</ele><time>2026-04-03T14:04:10.228Z</time></trkpt><trkpt lat="44.3652885" lon="7.7285081"><ele>493.0</ele><time>2026-04-03T14:04:11.225Z</time></trkpt><trkpt lat="44.3653596" lon="7.7286085"><ele>493.00000000000006</ele><time>2026-04-03T14:04:12.227Z</time></trkpt><trkpt lat="44.3654326" lon="7.7286977"><ele>493.0</ele><time>2026-04-03T14:04:13.229Z</time></trkpt><trkpt lat="44.3655008" lon="7.7287806"><ele>493.0</ele><time>2026-04-03T14:04:14.227Z</time></trkpt><trkpt lat="44.3655615" lon="7.7288627"><ele>493.0</ele><time>2026-04-03T14:04:15.227Z</time></trkpt><trkpt lat="44.3656139" lon="7.7289189"><ele>493.00000000000006</ele><time>2026-04-03T14:04:16.23Z</time></trkpt><trkpt lat="44.3656899" lon="7.7289562"><ele>493.0</ele><time>2026-04-03T14:04:18.237Z</time></trkpt><trkpt lat="44.3657746" lon="7.7288973"><ele>493.4</ele><time>2026-04-03T14:04:20.229Z</time></trkpt><trkpt lat="44.3658186" lon="7.7288059"><ele>493.79999999999995</ele><time>2026-04-03T14:04:21.231Z</time></trkpt><trkpt lat="44.3658555" lon="7.7286943"><ele>494.2</ele><time>2026-04-03T14:04:22.232Z</time></trkpt><trkpt lat="44.3658953" lon="7.7285685"><ele>494.6</ele><time>2026-04-03T14:04:23.229Z</time></trkpt><trkpt lat="44.3659403" lon="7.7284369"><ele>495.0</ele><time>2026-04-03T14:04:24.227Z</time></trkpt><trkpt lat="44.3659841" lon="7.728291"><ele>495.0</ele><time>2026-04-03T14:04:25.228Z</time></trkpt><trkpt lat="44.366029" lon="7.7281422"><ele>495.0</ele><time>2026-04-03T14:04:26.227Z</time></trkpt><trkpt lat="44.3660789" lon="7.7279915"><ele>495.0</ele><time>2026-04-03T14:04:27.229Z</time></trkpt><trkpt lat="44.3661344" lon="7.7278504"><ele>495.0</ele><time>2026-04-03T14:04:28.228Z</time></trkpt><trkpt lat="44.3661966" lon="7.7277043"><ele>495.25</ele><time>2026-04-03T14:04:29.228Z</time></trkpt><trkpt lat="44.3662642" lon="7.727552"><ele>495.5</ele><time>2026-04-03T14:04:30.228Z</time></trkpt><trkpt lat="44.3663549" lon="7.7274103"><ele>495.75</ele><time>2026-04-03T14:04:31.226Z</time></trkpt><trkpt lat="44.3664579" lon="7.7272746"><ele>496.0</ele><time>2026-04-03T14:04:32.228Z</time></trkpt><trkpt lat="44.366564" lon="7.7271327"><ele>496.0</ele><time>2026-04-03T14:04:33.224Z</time></trkpt><trkpt lat="44.366677" lon="7.7270065"><ele>496.0</ele><time>2026-04-03T14:04:34.226Z</time></trkpt><trkpt lat="44.366791" lon="7.7268859"><ele>496.0</ele><time>2026-04-03T14:04:35.226Z</time></trkpt><trkpt lat="44.3669042" lon="7.7267648"><ele>496.0</ele><time>2026-04-03T14:04:36.227Z</time></trkpt><trkpt lat="44.3670176" lon="7.7266354"><ele>496.25</ele><time>2026-04-03T14:04:37.23Z</time></trkpt><trkpt lat="44.367134" lon="7.726508"><ele>496.5</ele><time>2026-04-03T14:04:38.225Z</time></trkpt><trkpt lat="44.3672453" lon="7.7263882"><ele>496.75</ele><time>2026-04-03T14:04:39.228Z</time></trkpt><trkpt lat="44.367354" lon="7.7262766"><ele>497.0</ele><time>2026-04-03T14:04:40.224Z</time></trkpt><trkpt lat="44.3674594" lon="7.726169"><ele>497.0</ele><time>2026-04-03T14:04:41.227Z</time></trkpt><trkpt lat="44.3675555" lon="7.7260652"><ele>497.00000000000006</ele><time>2026-04-03T14:04:42.227Z</time></trkpt><trkpt lat="44.3676499" lon="7.7259605"><ele>497.00000000000006</ele><time>2026-04-03T14:04:43.226Z</time></trkpt><trkpt lat="44.3677355" lon="7.7258648"><ele>497.0</ele><time>2026-04-03T14:04:44.229Z</time></trkpt><trkpt lat="44.3678071" lon="7.7257836"><ele>497.0</ele><time>2026-04-03T14:04:45.227Z</time></trkpt><trkpt lat="44.3678615" lon="7.725739"><ele>496.6</ele><time>2026-04-03T14:04:46.229Z</time></trkpt><trkpt lat="44.3679254" lon="7.7257869"><ele>496.20000000000005</ele><time>2026-04-03T14:04:48.238Z</time></trkpt><trkpt lat="44.3680004" lon="7.7258982"><ele>495.8</ele><time>2026-04-03T14:04:50.23Z</time></trkpt><trkpt lat="44.3680861" lon="7.7259087"><ele>495.4</ele><time>2026-04-03T14:04:51.234Z</time></trkpt><trkpt lat="44.3682065" lon="7.7259031"><ele>495.0</ele><time>2026-04-03T14:04:52.24Z</time></trkpt><trkpt lat="44.3683227" lon="7.7259233"><ele>495.0</ele><time>2026-04-03T14:04:53.226Z</time></trkpt><trkpt lat="44.3684004" lon="7.7260166"><ele>495.0</ele><time>2026-04-03T14:04:54.232Z</time></trkpt><trkpt lat="44.368456" lon="7.7260963"><ele>495.0</ele><time>2026-04-03T14:04:55.227Z</time></trkpt><trkpt lat="44.3684692" lon="7.7261931"><ele>495.0</ele><time>2026-04-03T14:04:56.23Z</time></trkpt><trkpt lat="44.3683809" lon="7.7263342"><ele>495.0</ele><time>2026-04-03T14:04:58.23Z</time></trkpt><trkpt lat="44.3683071" lon="7.726449"><ele>497.5</ele><time>2026-04-03T14:04:59.23Z</time></trkpt><trkpt lat="44.3682513" lon="7.726621"><ele>500.0</ele><time>2026-04-03T14:05:00.224Z</time></trkpt><trkpt lat="44.3681959" lon="7.7268"><ele>502.5</ele><time>2026-04-03T14:05:01.227Z</time></trkpt><trkpt lat="44.3681327" lon="7.7270018"><ele>505.0</ele><time>2026-04-03T14:05:02.23Z</time></trkpt><trkpt lat="44.3680499" lon="7.7271548"><ele>505.5</ele><time>2026-04-03T14:05:03.227Z</time></trkpt><trkpt lat="44.3679942" lon="7.7272957"><ele>506.0</ele><time>2026-04-03T14:05:04.227Z</time></trkpt><trkpt lat="44.3679678" lon="7.7274642"><ele>506.5</ele><time>2026-04-03T14:05:05.232Z</time></trkpt><trkpt lat="44.3679633" lon="7.727679"><ele>507.0</ele><time>2026-04-03T14:05:06.225Z</time></trkpt><trkpt lat="44.3679487" lon="7.7279207"><ele>509.0</ele><time>2026-04-03T14:05:07.228Z</time></trkpt><trkpt lat="44.3678982" lon="7.7281771"><ele>511.0</ele><time>2026-04-03T14:05:08.225Z</time></trkpt><trkpt lat="44.3678302" lon="7.7284292"><ele>513.0</ele><time>2026-04-03T14:05:09.226Z</time></trkpt><trkpt lat="44.3677668" lon="7.7287256"><ele>516.6666666666666</ele><time>2026-04-03T14:05:10.225Z</time></trkpt><trkpt lat="44.3677241" lon="7.7290194"><ele>520.3333333333333</ele><time>2026-04-03T14:05:11.238Z</time></trkpt><trkpt lat="44.3676701" lon="7.729269"><ele>524.0</ele><time>2026-04-03T14:05:12.226Z</time></trkpt><trkpt lat="44.3676096" lon="7.7294973"><ele>525.6</ele><time>2026-04-03T14:05:13.223Z</time></trkpt><trkpt lat="44.3675678" lon="7.7297006"><ele>527.2</ele><time>2026-04-03T14:05:14.223Z</time></trkpt><trkpt lat="44.3675428" lon="7.7298804"><ele>528.8000000000001</ele><time>2026-04-03T14:05:15.226Z</time></trkpt><trkpt lat="44.3675244" lon="7.7300166"><ele>530.4</ele><time>2026-04-03T14:05:16.225Z</time></trkpt><trkpt lat="44.3675317" lon="7.7301075"><ele>532.0</ele><time>2026-04-03T14:05:17.23Z</time></trkpt><trkpt lat="44.3675532" lon="7.7302176"><ele>532.0</ele><time>2026-04-03T14:05:19.227Z</time></trkpt><trkpt lat="44.3677093" lon="7.7299446"><ele>532.0</ele><time>2026-04-03T14:05:21.236Z</time></trkpt><trkpt lat="44.3677813" lon="7.7298225"><ele>532.0</ele><time>2026-04-03T14:05:22.232Z</time></trkpt><trkpt lat="44.3678624" lon="7.7297136"><ele>532.0</ele><time>2026-04-03T14:05:23.229Z</time></trkpt><trkpt lat="44.3679683" lon="7.7296231"><ele>532.0</ele><time>2026-04-03T14:05:24.223Z</time></trkpt><trkpt lat="44.3680666" lon="7.7295364"><ele>532.0</ele><time>2026-04-03T14:05:25.227Z</time></trkpt><trkpt lat="44.3681526" lon="7.7294356"><ele>532.0</ele><time>2026-04-03T14:05:26.23Z</time></trkpt><trkpt lat="44.3682266" lon="7.7293601"><ele>532.0</ele><time>2026-04-03T14:05:27.228Z</time></trkpt><trkpt lat="44.3682962" lon="7.7292805"><ele>532.8000000000001</ele><time>2026-04-03T14:05:28.225Z</time></trkpt><trkpt lat="44.3684112" lon="7.7292492"><ele>533.6</ele><time>2026-04-03T14:05:29.224Z</time></trkpt><trkpt lat="44.3685226" lon="7.7292124"><ele>534.4000000000001</ele><time>2026-04-03T14:05:30.225Z</time></trkpt><trkpt lat="44.3686344" lon="7.7291832"><ele>535.2</ele><time>2026-04-03T14:05:31.226Z</time></trkpt><trkpt lat="44.3687243" lon="7.7291849"><ele>536.0</ele><time>2026-04-03T14:05:32.227Z</time></trkpt><trkpt lat="44.3688105" lon="7.729213"><ele>537.2</ele><time>2026-04-03T14:05:33.225Z</time></trkpt><trkpt lat="44.3688884" lon="7.729265"><ele>538.4000000000001</ele><time>2026-04-03T14:05:34.227Z</time></trkpt><trkpt lat="44.3689579" lon="7.7293543"><ele>539.6</ele><time>2026-04-03T14:05:35.226Z</time></trkpt><trkpt lat="44.3690138" lon="7.7294666"><ele>540.8000000000001</ele><time>2026-04-03T14:05:36.227Z</time></trkpt><trkpt lat="44.3690807" lon="7.7295822"><ele>542.0</ele><time>2026-04-03T14:05:37.228Z</time></trkpt><trkpt lat="44.3691535" lon="7.7296998"><ele>543.0</ele><time>2026-04-03T14:05:38.228Z</time></trkpt><trkpt lat="44.3692307" lon="7.7298074"><ele>544.0</ele><time>2026-04-03T14:05:39.225Z</time></trkpt><trkpt lat="44.3692788" lon="7.7299221"><ele>545.0</ele><time>2026-04-03T14:05:40.227Z</time></trkpt><trkpt lat="44.3693048" lon="7.7300596"><ele>546.0</ele><time>2026-04-03T14:05:41.224Z</time></trkpt><trkpt lat="44.3692965" lon="7.7301994"><ele>547.0</ele><time>2026-04-03T14:05:42.227Z</time></trkpt><trkpt lat="44.3692724" lon="7.7303459"><ele>548.25</ele><time>2026-04-03T14:05:43.226Z</time></trkpt><trkpt lat="44.3692351" lon="7.7305013"><ele>549.5</ele><time>2026-04-03T14:05:44.229Z</time></trkpt><trkpt lat="44.3692122" lon="7.730669"><ele>550.75</ele><time>2026-04-03T14:05:45.224Z</time></trkpt><trkpt lat="44.369212" lon="7.7308347"><ele>552.0</ele><time>2026-04-03T14:05:46.229Z</time></trkpt><trkpt lat="44.3692843" lon="7.7309921"><ele>552.4</ele><time>2026-04-03T14:05:47.232Z</time></trkpt><trkpt lat="44.3693505" lon="7.7311466"><ele>552.8000000000001</ele><time>2026-04-03T14:05:48.23Z</time></trkpt><trkpt lat="44.3694133" lon="7.7312831"><ele>553.2</ele><time>2026-04-03T14:05:49.226Z</time></trkpt><trkpt lat="44.3694652" lon="7.7313979"><ele>553.6</ele><time>2026-04-03T14:05:50.228Z</time></trkpt><trkpt lat="44.3695031" lon="7.731524"><ele>554.0</ele><time>2026-04-03T14:05:51.228Z</time></trkpt><trkpt lat="44.3695124" lon="7.7316549"><ele>554.0</ele><time>2026-04-03T14:05:52.228Z</time></trkpt><trkpt lat="44.3695088" lon="7.7317869"><ele>554.0</ele><time>2026-04-03T14:05:53.231Z</time></trkpt><trkpt lat="44.3695171" lon="7.7319302"><ele>554.0</ele><time>2026-04-03T14:05:54.224Z</time></trkpt><trkpt lat="44.3695534" lon="7.7320698"><ele>554.0</ele><time>2026-04-03T14:05:55.23Z</time></trkpt><trkpt lat="44.3696092" lon="7.7322106"><ele>554.0</ele><time>2026-04-03T14:05:56.228Z</time></trkpt><trkpt lat="44.3696737" lon="7.7323614"><ele>554.0</ele><time>2026-04-03T14:05:57.227Z</time></trkpt><trkpt lat="44.3697375" lon="7.7325116"><ele>554.0</ele><time>2026-04-03T14:05:58.228Z</time></trkpt><trkpt lat="44.3697967" lon="7.7326789"><ele>554.0</ele><time>2026-04-03T14:05:59.228Z</time></trkpt><trkpt lat="44.3698453" lon="7.7328665"><ele>554.0</ele><time>2026-04-03T14:06:00.226Z</time></trkpt><trkpt lat="44.3698706" lon="7.7330588"><ele>554.25</ele><time>2026-04-03T14:06:01.227Z</time></trkpt><trkpt lat="44.3698906" lon="7.7332347"><ele>554.5</ele><time>2026-04-03T14:06:02.227Z</time></trkpt><trkpt lat="44.3699127" lon="7.7334056"><ele>554.75</ele><time>2026-04-03T14:06:03.226Z</time></trkpt><trkpt lat="44.3699323" lon="7.7335654"><ele>555.0</ele><time>2026-04-03T14:06:04.225Z</time></trkpt><trkpt lat="44.3699454" lon="7.7336849"><ele>555.0</ele><time>2026-04-03T14:06:05.228Z</time></trkpt><trkpt lat="44.369958" lon="7.7337968"><ele>555.0</ele><time>2026-04-03T14:06:07.225Z</time></trkpt><trkpt lat="44.369997" lon="7.7338898"><ele>555.0</ele><time>2026-04-03T14:06:09.227Z</time></trkpt><trkpt lat="44.3700594" lon="7.7339297"><ele>555.0</ele><time>2026-04-03T14:06:10.23Z</time></trkpt><trkpt lat="44.3701476" lon="7.733964"><ele>555.0</ele><time>2026-04-03T14:06:11.233Z</time></trkpt><trkpt lat="44.370264" lon="7.7339934"><ele>555.0</ele><time>2026-04-03T14:06:12.232Z</time></trkpt><trkpt lat="44.3703881" lon="7.7340256"><ele>555.0</ele><time>2026-04-03T14:06:13.229Z</time></trkpt><trkpt lat="44.3705181" lon="7.7340592"><ele>555.0</ele><time>2026-04-03T14:06:14.228Z</time></trkpt><trkpt lat="44.3706882" lon="7.7340559"><ele>555.0</ele><time>2026-04-03T14:06:15.229Z</time></trkpt><trkpt lat="44.3708546" lon="7.7340631"><ele>554.3333333333334</ele><time>2026-04-03T14:06:16.228Z</time></trkpt><trkpt lat="44.371021" lon="7.7340818"><ele>553.6666666666667</ele><time>2026-04-03T14:06:17.229Z</time></trkpt><trkpt lat="44.3711758" lon="7.7340989"><ele>553.0</ele><time>2026-04-03T14:06:18.224Z</time></trkpt><trkpt lat="44.3713271" lon="7.73412"><ele>552.3333333333334</ele><time>2026-04-03T14:06:19.228Z</time></trkpt><trkpt lat="44.3714822" lon="7.7341558"><ele>551.6666666666666</ele><time>2026-04-03T14:06:20.228Z</time></trkpt><trkpt lat="44.3716439" lon="7.7342034"><ele>551.0</ele><time>2026-04-03T14:06:21.225Z</time></trkpt><trkpt lat="44.3718035" lon="7.7342556"><ele>551.0</ele><time>2026-04-03T14:06:22.232Z</time></trkpt><trkpt lat="44.3719655" lon="7.7342977"><ele>551.0</ele><time>2026-04-03T14:06:23.228Z</time></trkpt><trkpt lat="44.3721291" lon="7.7343353"><ele>551.0</ele><time>2026-04-03T14:06:24.228Z</time></trkpt><trkpt lat="44.3722943" lon="7.7343712"><ele>550.0</ele><time>2026-04-03T14:06:25.229Z</time></trkpt><trkpt lat="44.3724587" lon="7.7344015"><ele>549.0</ele><time>2026-04-03T14:06:26.228Z</time></trkpt><trkpt lat="44.3726058" lon="7.7344186"><ele>548.0</ele><time>2026-04-03T14:06:27.225Z</time></trkpt><trkpt lat="44.3727454" lon="7.7344299"><ele>548.0</ele><time>2026-04-03T14:06:28.227Z</time></trkpt><trkpt lat="44.3728752" lon="7.7344418"><ele>548.0</ele><time>2026-04-03T14:06:29.225Z</time></trkpt><trkpt lat="44.3729994" lon="7.7344463"><ele>548.0</ele><time>2026-04-03T14:06:30.228Z</time></trkpt><trkpt lat="44.373122" lon="7.7344444"><ele>548.0</ele><time>2026-04-03T14:06:31.228Z</time></trkpt><trkpt lat="44.3732399" lon="7.7344409"><ele>548.1666666666666</ele><time>2026-04-03T14:06:32.231Z</time></trkpt><trkpt lat="44.3733504" lon="7.7344313"><ele>548.3333333333333</ele><time>2026-04-03T14:06:33.23Z</time></trkpt><trkpt lat="44.3734477" lon="7.7344259"><ele>548.5</ele><time>2026-04-03T14:06:34.225Z</time></trkpt><trkpt lat="44.3735344" lon="7.734427"><ele>548.6666666666666</ele><time>2026-04-03T14:06:35.229Z</time></trkpt><trkpt lat="44.3736062" lon="7.7344286"><ele>548.8333333333334</ele><time>2026-04-03T14:06:36.228Z</time></trkpt><trkpt lat="44.3736743" lon="7.7343997"><ele>549.0</ele><time>2026-04-03T14:06:37.228Z</time></trkpt><trkpt lat="44.3737341" lon="7.7343333"><ele>549.0</ele><time>2026-04-03T14:06:38.231Z</time></trkpt><trkpt lat="44.3737822" lon="7.7342283"><ele>549.0</ele><time>2026-04-03T14:06:39.224Z</time></trkpt><trkpt lat="44.3738298" lon="7.7341126"><ele>549.0</ele><time>2026-04-03T14:06:40.229Z</time></trkpt><trkpt lat="44.3738723" lon="7.7339826"><ele>549.0</ele><time>2026-04-03T14:06:41.225Z</time></trkpt><trkpt lat="44.3739369" lon="7.733852"><ele>549.0</ele><time>2026-04-03T14:06:42.224Z</time></trkpt><trkpt lat="44.3739934" lon="7.7337335"><ele>548.5</ele><time>2026-04-03T14:06:43.224Z</time></trkpt><trkpt lat="44.374043" lon="7.7336188"><ele>548.0</ele><time>2026-04-03T14:06:44.225Z</time></trkpt><trkpt lat="44.3740754" lon="7.7335065"><ele>547.5</ele><time>2026-04-03T14:06:45.224Z</time></trkpt><trkpt lat="44.3741047" lon="7.7333936"><ele>547.0</ele><time>2026-04-03T14:06:46.23Z</time></trkpt><trkpt lat="44.3741138" lon="7.7332894"><ele>546.5</ele><time>2026-04-03T14:06:47.226Z</time></trkpt><trkpt lat="44.3741233" lon="7.7331883"><ele>546.0</ele><time>2026-04-03T14:06:48.227Z</time></trkpt><trkpt lat="44.3741468" lon="7.7330935"><ele>546.0</ele><time>2026-04-03T14:06:49.224Z</time></trkpt><trkpt lat="44.3741921" lon="7.7330091"><ele>546.0</ele><time>2026-04-03T14:06:50.225Z</time></trkpt><trkpt lat="44.3742446" lon="7.7329591"><ele>546.0</ele><time>2026-04-03T14:06:51.224Z</time></trkpt><trkpt lat="44.3742859" lon="7.7328804"><ele>546.0</ele><time>2026-04-03T14:06:52.23Z</time></trkpt><trkpt lat="44.3743237" lon="7.732806"><ele>546.0</ele><time>2026-04-03T14:06:53.226Z</time></trkpt><trkpt lat="44.3744588" lon="7.732727"><ele>546.0</ele><time>2026-04-03T14:06:55.229Z</time></trkpt><trkpt lat="44.3745323" lon="7.732694"><ele>545.6666666666666</ele><time>2026-04-03T14:06:56.229Z</time></trkpt><trkpt lat="44.3745982" lon="7.7326083"><ele>545.3333333333334</ele><time>2026-04-03T14:06:57.23Z</time></trkpt><trkpt lat="44.3746512" lon="7.7325239"><ele>545.0</ele><time>2026-04-03T14:06:58.23Z</time></trkpt><trkpt lat="44.3746774" lon="7.7324352"><ele>544.6666666666667</ele><time>2026-04-03T14:06:59.227Z</time></trkpt><trkpt lat="44.3747025" lon="7.7323537"><ele>544.3333333333334</ele><time>2026-04-03T14:07:00.223Z</time></trkpt><trkpt lat="44.3747683" lon="7.7322443"><ele>544.0</ele><time>2026-04-03T14:07:02.229Z</time></trkpt><trkpt lat="44.3748291" lon="7.732197"><ele>543.3333333333334</ele><time>2026-04-03T14:07:04.228Z</time></trkpt><trkpt lat="44.3748813" lon="7.7321161"><ele>542.6666666666666</ele><time>2026-04-03T14:07:06.23Z</time></trkpt><trkpt lat="44.3749181" lon="7.732016"><ele>542.0</ele><time>2026-04-03T14:07:10.229Z</time></trkpt><trkpt lat="44.3752747" lon="7.7315444"><ele>540.0</ele><time>2026-04-03T14:07:13.225Z</time></trkpt><trkpt lat="44.3753212" lon="7.7314013"><ele>538.0</ele><time>2026-04-03T14:07:14.222Z</time></trkpt><trkpt lat="44.3753577" lon="7.7312628"><ele>536.0</ele><time>2026-04-03T14:07:15.227Z</time></trkpt><trkpt lat="44.3753965" lon="7.7311384"><ele>534.0</ele><time>2026-04-03T14:07:16.226Z</time></trkpt><trkpt lat="44.3754561" lon="7.7309987"><ele>532.0</ele><time>2026-04-03T14:07:17.23Z</time></trkpt><trkpt lat="44.3755219" lon="7.7308914"><ele>530.2</ele><time>2026-04-03T14:07:18.227Z</time></trkpt><trkpt lat="44.3755676" lon="7.7307899"><ele>528.4000000000001</ele><time>2026-04-03T14:07:19.231Z</time></trkpt><trkpt lat="44.3756336" lon="7.7306696"><ele>526.5999999999999</ele><time>2026-04-03T14:07:20.227Z</time></trkpt><trkpt lat="44.3756781" lon="7.7305567"><ele>524.8</ele><time>2026-04-03T14:07:21.23Z</time></trkpt><trkpt lat="44.3757327" lon="7.7304608"><ele>523.0</ele><time>2026-04-03T14:07:22.228Z</time></trkpt><trkpt lat="44.3757965" lon="7.7303694"><ele>523.0</ele><time>2026-04-03T14:07:23.226Z</time></trkpt><trkpt lat="44.375859" lon="7.7302686"><ele>523.0</ele><time>2026-04-03T14:07:24.231Z</time></trkpt><trkpt lat="44.3759001" lon="7.7301514"><ele>523.0</ele><time>2026-04-03T14:07:25.225Z</time></trkpt><trkpt lat="44.3759383" lon="7.7300321"><ele>523.0</ele><time>2026-04-03T14:07:26.23Z</time></trkpt><trkpt lat="44.3759733" lon="7.7299172"><ele>523.0</ele><time>2026-04-03T14:07:27.23Z</time></trkpt><trkpt lat="44.3760219" lon="7.7297947"><ele>520.0</ele><time>2026-04-03T14:07:28.224Z</time></trkpt><trkpt lat="44.3760748" lon="7.7296576"><ele>517.0</ele><time>2026-04-03T14:07:29.227Z</time></trkpt><trkpt lat="44.376127" lon="7.7295454"><ele>514.0</ele><time>2026-04-03T14:07:30.229Z</time></trkpt><trkpt lat="44.3761725" lon="7.7294453"><ele>511.0</ele><time>2026-04-03T14:07:31.224Z</time></trkpt><trkpt lat="44.3762278" lon="7.7293399"><ele>508.0</ele><time>2026-04-03T14:07:32.226Z</time></trkpt><trkpt lat="44.3762749" lon="7.7292401"><ele>507.1666666666667</ele><time>2026-04-03T14:07:33.228Z</time></trkpt><trkpt lat="44.3763251" lon="7.7291494"><ele>506.33333333333337</ele><time>2026-04-03T14:07:34.224Z</time></trkpt><trkpt lat="44.376381" lon="7.7290545"><ele>505.5</ele><time>2026-04-03T14:07:35.229Z</time></trkpt><trkpt lat="44.376448" lon="7.7289895"><ele>504.66666666666663</ele><time>2026-04-03T14:07:36.228Z</time></trkpt><trkpt lat="44.376518" lon="7.7289556"><ele>503.8333333333333</ele><time>2026-04-03T14:07:37.227Z</time></trkpt><trkpt lat="44.3765915" lon="7.7289145"><ele>503.0</ele><time>2026-04-03T14:07:38.228Z</time></trkpt><trkpt lat="44.3766581" lon="7.7288727"><ele>502.16666666666663</ele><time>2026-04-03T14:07:39.228Z</time></trkpt><trkpt lat="44.3767564" lon="7.7288584"><ele>501.3333333333333</ele><time>2026-04-03T14:07:42.225Z</time></trkpt><trkpt lat="44.3768279" lon="7.728818"><ele>500.5</ele><time>2026-04-03T14:07:44.223Z</time></trkpt><trkpt lat="44.3768965" lon="7.7287825"><ele>499.66666666666663</ele><time>2026-04-03T14:07:48.233Z</time></trkpt><trkpt lat="44.3769655" lon="7.7287969"><ele>498.8333333333333</ele><time>2026-04-03T14:07:53.227Z</time></trkpt><trkpt lat="44.3770456" lon="7.7287872"><ele>498.0</ele><time>2026-04-03T14:07:55.225Z</time></trkpt><trkpt lat="44.3771152" lon="7.7287343"><ele>491.0</ele><time>2026-04-03T14:07:59.226Z</time></trkpt><trkpt lat="44.3776489" lon="7.7286553"><ele>491.0</ele><time>2026-04-03T14:08:02.228Z</time></trkpt><trkpt lat="44.3777239" lon="7.7286284"><ele>491.0</ele><time>2026-04-03T14:08:03.22Z</time></trkpt><trkpt lat="44.3778445" lon="7.7286485"><ele>491.0</ele><time>2026-04-03T14:08:04.222Z</time></trkpt><trkpt lat="44.3779265" lon="7.7286259"><ele>491.0</ele><time>2026-04-03T14:08:05.235Z</time></trkpt><trkpt lat="44.3780396" lon="7.7286288"><ele>491.0</ele><time>2026-04-03T14:08:06.231Z</time></trkpt><trkpt lat="44.3781144" lon="7.7286037"><ele>489.6</ele><time>2026-04-03T14:08:07.23Z</time></trkpt><trkpt lat="44.3781925" lon="7.7286158"><ele>488.20000000000005</ele><time>2026-04-03T14:08:09.226Z</time></trkpt><trkpt lat="44.3782597" lon="7.7286537"><ele>486.79999999999995</ele><time>2026-04-03T14:08:11.222Z</time></trkpt><trkpt lat="44.3783345" lon="7.7286557"><ele>485.4</ele><time>2026-04-03T14:08:15.225Z</time></trkpt><trkpt lat="44.3784609" lon="7.7285689"><ele>484.0</ele><time>2026-04-03T14:08:17.224Z</time></trkpt><trkpt lat="44.3786696" lon="7.7285736"><ele>484.00000000000006</ele><time>2026-04-03T14:08:18.222Z</time></trkpt><trkpt lat="44.3787501" lon="7.7285856"><ele>484.0</ele><time>2026-04-03T14:08:19.22Z</time></trkpt><trkpt lat="44.378816" lon="7.7285982"><ele>484.0</ele><time>2026-04-03T14:08:20.225Z</time></trkpt><trkpt lat="44.3789387" lon="7.7286014"><ele>484.0</ele><time>2026-04-03T14:08:22.229Z</time></trkpt><trkpt lat="44.3789927" lon="7.7286604"><ele>484.00000000000006</ele><time>2026-04-03T14:08:23.233Z</time></trkpt><trkpt lat="44.3790889" lon="7.7287"><ele>484.0</ele><time>2026-04-03T14:08:25.224Z</time></trkpt><trkpt lat="44.379143" lon="7.7287688"><ele>484.0</ele><time>2026-04-03T14:08:26.225Z</time></trkpt><trkpt lat="44.3792158" lon="7.7288128"><ele>484.0</ele><time>2026-04-03T14:08:27.228Z</time></trkpt><trkpt lat="44.3793145" lon="7.7289016"><ele>484.0</ele><time>2026-04-03T14:08:28.229Z</time></trkpt><trkpt lat="44.3794082" lon="7.7289835"><ele>484.0</ele><time>2026-04-03T14:08:29.224Z</time></trkpt><trkpt lat="44.3795097" lon="7.7290308"><ele>484.0</ele><time>2026-04-03T14:08:30.227Z</time></trkpt><trkpt lat="44.3795959" lon="7.7290693"><ele>484.0</ele><time>2026-04-03T14:08:31.228Z</time></trkpt><trkpt lat="44.3796647" lon="7.7291235"><ele>483.99999999999994</ele><time>2026-04-03T14:08:32.226Z</time></trkpt><trkpt lat="44.3797241" lon="7.7291562"><ele>484.0</ele><time>2026-04-03T14:08:33.224Z</time></trkpt><trkpt lat="44.3797842" lon="7.7291851"><ele>484.0</ele><time>2026-04-03T14:08:34.229Z</time></trkpt><trkpt lat="44.3798554" lon="7.7291984"><ele>483.99999999999994</ele><time>2026-04-03T14:08:35.227Z</time></trkpt><trkpt lat="44.379934" lon="7.729231"><ele>484.0</ele><time>2026-04-03T14:08:36.228Z</time></trkpt><trkpt lat="44.379999" lon="7.7292379"><ele>484.0</ele><time>2026-04-03T14:08:37.223Z</time></trkpt><trkpt lat="44.3800623" lon="7.7292417"><ele>481.0</ele><time>2026-04-03T14:08:38.231Z</time></trkpt><trkpt lat="44.3801407" lon="7.7292701"><ele>478.0</ele><time>2026-04-03T14:08:39.223Z</time></trkpt><trkpt lat="44.3802376" lon="7.7292663"><ele>475.0</ele><time>2026-04-03T14:08:40.224Z</time></trkpt><trkpt lat="44.3803255" lon="7.7292754"><ele>472.0</ele><time>2026-04-03T14:08:41.23Z</time></trkpt><trkpt lat="44.3804261" lon="7.7293214"><ele>469.0</ele><time>2026-04-03T14:08:42.225Z</time></trkpt><trkpt lat="44.3805463" lon="7.7293627"><ele>470.0</ele><time>2026-04-03T14:08:43.228Z</time></trkpt><trkpt lat="44.380617" lon="7.7294292"><ele>471.0</ele><time>2026-04-03T14:08:44.226Z</time></trkpt><trkpt lat="44.3807023" lon="7.7294873"><ele>472.0</ele><time>2026-04-03T14:08:45.225Z</time></trkpt><trkpt lat="44.3808015" lon="7.7295546"><ele>473.0</ele><time>2026-04-03T14:08:46.225Z</time></trkpt><trkpt lat="44.3809075" lon="7.7296412"><ele>474.0</ele><time>2026-04-03T14:08:47.226Z</time></trkpt><trkpt lat="44.3810157" lon="7.7297307"><ele>474.0</ele><time>2026-04-03T14:08:48.225Z</time></trkpt><trkpt lat="44.3811159" lon="7.7298122"><ele>474.0</ele><time>2026-04-03T14:08:49.231Z</time></trkpt><trkpt lat="44.3811854" lon="7.7298699"><ele>474.0</ele><time>2026-04-03T14:08:50.226Z</time></trkpt><trkpt lat="44.3812664" lon="7.7299289"><ele>474.0</ele><time>2026-04-03T14:08:51.228Z</time></trkpt><trkpt lat="44.3814051" lon="7.7299239"><ele>474.0</ele><time>2026-04-03T14:08:52.228Z</time></trkpt><trkpt lat="44.3814972" lon="7.7299485"><ele>472.1666666666667</ele><time>2026-04-03T14:08:53.225Z</time></trkpt><trkpt lat="44.3815869" lon="7.7299496"><ele>470.33333333333337</ele><time>2026-04-03T14:08:54.227Z</time></trkpt><trkpt lat="44.3816742" lon="7.7299335"><ele>468.5</ele><time>2026-04-03T14:08:55.223Z</time></trkpt><trkpt lat="44.381751" lon="7.7298936"><ele>466.6666666666667</ele><time>2026-04-03T14:08:56.228Z</time></trkpt><trkpt lat="44.3818139" lon="7.7298379"><ele>464.83333333333337</ele><time>2026-04-03T14:08:57.226Z</time></trkpt><trkpt lat="44.3818812" lon="7.7297976"><ele>463.0</ele><time>2026-04-03T14:08:58.228Z</time></trkpt><trkpt lat="44.3820307" lon="7.7297587"><ele>463.0</ele><time>2026-04-03T14:09:00.232Z</time></trkpt><trkpt lat="44.3821469" lon="7.7297752"><ele>463.0</ele><time>2026-04-03T14:09:01.226Z</time></trkpt><trkpt lat="44.3822635" lon="7.7298218"><ele>463.0</ele><time>2026-04-03T14:09:02.224Z</time></trkpt><trkpt lat="44.3823737" lon="7.72986"><ele>463.0</ele><time>2026-04-03T14:09:03.227Z</time></trkpt><trkpt lat="44.382467" lon="7.7299116"><ele>463.4</ele><time>2026-04-03T14:09:04.223Z</time></trkpt><trkpt lat="44.3825403" lon="7.7299772"><ele>463.79999999999995</ele><time>2026-04-03T14:09:05.227Z</time></trkpt><trkpt lat="44.3826202" lon="7.7300462"><ele>464.2</ele><time>2026-04-03T14:09:06.232Z</time></trkpt><trkpt lat="44.3827066" lon="7.7301794"><ele>464.6</ele><time>2026-04-03T14:09:07.228Z</time></trkpt><trkpt lat="44.3827937" lon="7.7303232"><ele>465.0</ele><time>2026-04-03T14:09:08.225Z</time></trkpt><trkpt lat="44.3828621" lon="7.7304528"><ele>465.0</ele><time>2026-04-03T14:09:09.225Z</time></trkpt><trkpt lat="44.3829098" lon="7.7305801"><ele>465.0</ele><time>2026-04-03T14:09:10.226Z</time></trkpt><trkpt lat="44.3829441" lon="7.7306887"><ele>465.0</ele><time>2026-04-03T14:09:11.226Z</time></trkpt><trkpt lat="44.3829888" lon="7.7307927"><ele>465.0</ele><time>2026-04-03T14:09:12.232Z</time></trkpt><trkpt lat="44.383038" lon="7.7309012"><ele>465.0</ele><time>2026-04-03T14:09:13.225Z</time></trkpt><trkpt lat="44.3830907" lon="7.7310091"><ele>464.0</ele><time>2026-04-03T14:09:14.23Z</time></trkpt><trkpt lat="44.3831416" lon="7.731104"><ele>463.0</ele><time>2026-04-03T14:09:15.231Z</time></trkpt><trkpt lat="44.3832109" lon="7.7311777"><ele>462.0</ele><time>2026-04-03T14:09:16.223Z</time></trkpt><trkpt lat="44.3832835" lon="7.7312375"><ele>461.0</ele><time>2026-04-03T14:09:17.227Z</time></trkpt><trkpt lat="44.3833928" lon="7.7312815"><ele>460.0</ele><time>2026-04-03T14:09:18.236Z</time></trkpt><trkpt lat="44.3834929" lon="7.7313316"><ele>460.0</ele><time>2026-04-03T14:09:19.225Z</time></trkpt><trkpt lat="44.3835951" lon="7.7314037"><ele>460.0</ele><time>2026-04-03T14:09:20.223Z</time></trkpt><trkpt lat="44.3836873" lon="7.7315146"><ele>460.0</ele><time>2026-04-03T14:09:21.23Z</time></trkpt><trkpt lat="44.3837729" lon="7.7316255"><ele>460.0</ele><time>2026-04-03T14:09:22.224Z</time></trkpt><trkpt lat="44.3838804" lon="7.7317179"><ele>459.75</ele><time>2026-04-03T14:09:23.225Z</time></trkpt><trkpt lat="44.3839939" lon="7.7318003"><ele>459.5</ele><time>2026-04-03T14:09:24.224Z</time></trkpt><trkpt lat="44.384131" lon="7.7318402"><ele>459.25</ele><time>2026-04-03T14:09:25.232Z</time></trkpt><trkpt lat="44.384262" lon="7.7318955"><ele>459.0</ele><time>2026-04-03T14:09:26.226Z</time></trkpt><trkpt lat="44.3843915" lon="7.7319815"><ele>459.0</ele><time>2026-04-03T14:09:27.225Z</time></trkpt><trkpt lat="44.3844972" lon="7.7320804"><ele>459.0</ele><time>2026-04-03T14:09:28.224Z</time></trkpt><trkpt lat="44.3845912" lon="7.7321588"><ele>459.0</ele><time>2026-04-03T14:09:29.228Z</time></trkpt><trkpt lat="44.3846835" lon="7.7322088"><ele>459.0</ele><time>2026-04-03T14:09:30.226Z</time></trkpt><trkpt lat="44.3847622" lon="7.7322608"><ele>459.0</ele><time>2026-04-03T14:09:31.228Z</time></trkpt><trkpt lat="44.3848228" lon="7.732326"><ele>458.6666666666667</ele><time>2026-04-03T14:09:32.228Z</time></trkpt><trkpt lat="44.3848642" lon="7.7323979"><ele>458.33333333333337</ele><time>2026-04-03T14:09:33.223Z</time></trkpt><trkpt lat="44.3848889" lon="7.7324856"><ele>458.0</ele><time>2026-04-03T14:09:34.226Z</time></trkpt><trkpt lat="44.3848997" lon="7.7326345"><ele>457.6666666666667</ele><time>2026-04-03T14:09:36.225Z</time></trkpt><trkpt lat="44.3848644" lon="7.7327093"><ele>457.33333333333337</ele><time>2026-04-03T14:09:40.228Z</time></trkpt><trkpt lat="44.3848912" lon="7.7328387"><ele>457.0</ele><time>2026-04-03T14:11:28.23Z</time></trkpt><trkpt lat="44.3849421" lon="7.7329154"><ele>457.0</ele><time>2026-04-03T14:11:31.224Z</time></trkpt><trkpt lat="44.3849923" lon="7.732972"><ele>457.00000000000006</ele><time>2026-04-03T14:11:33.224Z</time></trkpt><trkpt lat="44.3850603" lon="7.7330362"><ele>457.00000000000006</ele><time>2026-04-03T14:11:35.227Z</time></trkpt><trkpt lat="44.3851456" lon="7.7331065"><ele>457.0</ele><time>2026-04-03T14:11:37.223Z</time></trkpt><trkpt lat="44.3852312" lon="7.7331856"><ele>457.0</ele><time>2026-04-03T14:11:39.231Z</time></trkpt><trkpt lat="44.3853231" lon="7.7332809"><ele>457.0</ele><time>2026-04-03T14:11:41.229Z</time></trkpt><trkpt lat="44.3854117" lon="7.7333874"><ele>457.00000000000006</ele><time>2026-04-03T14:11:43.226Z</time></trkpt><trkpt lat="44.3854989" lon="7.7334996"><ele>457.00000000000006</ele><time>2026-04-03T14:11:45.224Z</time></trkpt><trkpt lat="44.3855447" lon="7.733591"><ele>457.0</ele><time>2026-04-03T14:11:47.222Z</time></trkpt><trkpt lat="44.3855922" lon="7.733703"><ele>457.0</ele><time>2026-04-03T14:11:50.224Z</time></trkpt><trkpt lat="44.385623" lon="7.7338205"><ele>456.6666666666667</ele><time>2026-04-03T14:11:53.223Z</time></trkpt><trkpt lat="44.3856739" lon="7.7339106"><ele>456.33333333333337</ele><time>2026-04-03T14:11:56.228Z</time></trkpt><trkpt lat="44.3857223" lon="7.7339911"><ele>456.0</ele><time>2026-04-03T14:11:59.228Z</time></trkpt><trkpt lat="44.38576" lon="7.7340709"><ele>455.66666666666663</ele><time>2026-04-03T14:12:02.226Z</time></trkpt><trkpt lat="44.3858139" lon="7.7341311"><ele>455.3333333333333</ele><time>2026-04-03T14:12:06.23Z</time></trkpt><trkpt lat="44.3858794" lon="7.7342007"><ele>455.0</ele><time>2026-04-03T14:12:10.227Z</time></trkpt><trkpt lat="44.3859488" lon="7.7342824"><ele>455.0</ele><time>2026-04-03T14:12:13.227Z</time></trkpt><trkpt lat="44.3859956" lon="7.7343459"><ele>455.0</ele><time>2026-04-03T14:12:15.228Z</time></trkpt><trkpt lat="44.3860365" lon="7.7344396"><ele>455.0</ele><time>2026-04-03T14:12:18.229Z</time></trkpt><trkpt lat="44.3860594" lon="7.7345422"><ele>455.0</ele><time>2026-04-03T14:12:22.233Z</time></trkpt><trkpt lat="44.3860874" lon="7.7346346"><ele>455.0</ele><time>2026-04-03T14:12:26.227Z</time></trkpt><trkpt lat="44.3861109" lon="7.7347342"><ele>455.0</ele><time>2026-04-03T14:12:29.225Z</time></trkpt><trkpt lat="44.3861133" lon="7.7348438"><ele>455.0</ele><time>2026-04-03T14:12:32.225Z</time></trkpt><trkpt lat="44.3860945" lon="7.734956"><ele>456.8</ele><time>2026-04-03T14:12:35.229Z</time></trkpt><trkpt lat="44.3861024" lon="7.7350518"><ele>458.6</ele><time>2026-04-03T14:12:38.232Z</time></trkpt><trkpt lat="44.3861328" lon="7.7351607"><ele>460.4</ele><time>2026-04-03T14:12:41.224Z</time></trkpt><trkpt lat="44.3861689" lon="7.7352426"><ele>462.2</ele><time>2026-04-03T14:12:43.227Z</time></trkpt><trkpt lat="44.3862055" lon="7.7353209"><ele>464.0</ele><time>2026-04-03T14:12:46.225Z</time></trkpt><trkpt lat="44.3862833" lon="7.7355346"><ele>465.49999999999994</ele><time>2026-04-03T14:12:49.222Z</time></trkpt><trkpt lat="44.3862936" lon="7.7356231"><ele>467.0</ele><time>2026-04-03T14:12:51.218Z</time></trkpt><trkpt lat="44.3863167" lon="7.7357213"><ele>468.5</ele><time>2026-04-03T14:12:53.227Z</time></trkpt><trkpt lat="44.3863535" lon="7.7358244"><ele>470.0</ele><time>2026-04-03T14:12:56.226Z</time></trkpt><trkpt lat="44.3864188" lon="7.7358836"><ele>471.49999999999994</ele><time>2026-04-03T14:12:58.224Z</time></trkpt><trkpt lat="44.3865158" lon="7.7359554"><ele>473.0</ele><time>2026-04-03T14:13:00.224Z</time></trkpt><trkpt lat="44.3865936" lon="7.7360085"><ele>470.59999999999997</ele><time>2026-04-03T14:13:02.223Z</time></trkpt><trkpt lat="44.3866701" lon="7.7360622"><ele>468.19999999999993</ele><time>2026-04-03T14:13:04.227Z</time></trkpt><trkpt lat="44.3867316" lon="7.7361318"><ele>465.8</ele><time>2026-04-03T14:13:06.225Z</time></trkpt><trkpt lat="44.3868449" lon="7.7361983"><ele>463.4</ele><time>2026-04-03T14:13:08.227Z</time></trkpt><trkpt lat="44.3869462" lon="7.7362246"><ele>461.0</ele><time>2026-04-03T14:13:10.224Z</time></trkpt><trkpt lat="44.3870624" lon="7.7362196"><ele>460.99999999999994</ele><time>2026-04-03T14:13:12.229Z</time></trkpt><trkpt lat="44.3871279" lon="7.7362662"><ele>461.0</ele><time>2026-04-03T14:13:13.225Z</time></trkpt><trkpt lat="44.3871887" lon="7.736309"><ele>461.0</ele><time>2026-04-03T14:13:14.228Z</time></trkpt><trkpt lat="44.3872647" lon="7.7363567"><ele>461.0</ele><time>2026-04-03T14:13:15.226Z</time></trkpt><trkpt lat="44.3873531" lon="7.7364107"><ele>460.99999999999994</ele><time>2026-04-03T14:13:16.221Z</time></trkpt><trkpt lat="44.3874462" lon="7.7364566"><ele>461.0</ele><time>2026-04-03T14:13:17.227Z</time></trkpt><trkpt lat="44.3875413" lon="7.7365063"><ele>459.4</ele><time>2026-04-03T14:13:18.23Z</time></trkpt><trkpt lat="44.3876176" lon="7.7365507"><ele>457.8</ele><time>2026-04-03T14:13:19.225Z</time></trkpt><trkpt lat="44.3876887" lon="7.7365911"><ele>456.19999999999993</ele><time>2026-04-03T14:13:20.229Z</time></trkpt><trkpt lat="44.3877517" lon="7.7366188"><ele>454.59999999999997</ele><time>2026-04-03T14:13:21.227Z</time></trkpt><trkpt lat="44.3878717" lon="7.7366766"><ele>453.0</ele><time>2026-04-03T14:13:23.224Z</time></trkpt><trkpt lat="44.3879646" lon="7.7367276"><ele>452.8333333333333</ele><time>2026-04-03T14:13:25.227Z</time></trkpt><trkpt lat="44.388028" lon="7.736742"><ele>452.66666666666663</ele><time>2026-04-03T14:13:32.227Z</time></trkpt><trkpt lat="44.3880975" lon="7.7367695"><ele>452.5</ele><time>2026-04-03T14:13:37.225Z</time></trkpt><trkpt lat="44.3881666" lon="7.7368078"><ele>452.3333333333333</ele><time>2026-04-03T14:13:40.228Z</time></trkpt><trkpt lat="44.3882306" lon="7.7368475"><ele>452.16666666666663</ele><time>2026-04-03T14:13:43.223Z</time></trkpt><trkpt lat="44.3883213" lon="7.7368893"><ele>452.0</ele><time>2026-04-03T14:13:46.227Z</time></trkpt><trkpt lat="44.3884068" lon="7.7369354"><ele>456.5</ele><time>2026-04-03T14:13:48.228Z</time></trkpt><trkpt lat="44.3885125" lon="7.7369956"><ele>461.0</ele><time>2026-04-03T14:13:50.228Z</time></trkpt><trkpt lat="44.3889469" lon="7.7372386"><ele>460.99999999999994</ele><time>2026-04-03T14:13:52.229Z</time></trkpt><trkpt lat="44.3889999" lon="7.7373387"><ele>461.0</ele><time>2026-04-03T14:13:54.221Z</time></trkpt><trkpt lat="44.3890332" lon="7.7374195"><ele>461.0</ele><time>2026-04-03T14:13:55.224Z</time></trkpt><trkpt lat="44.3890388" lon="7.7375635"><ele>461.0</ele><time>2026-04-03T14:13:57.231Z</time></trkpt><trkpt lat="44.3890237" lon="7.7376604"><ele>460.99999999999994</ele><time>2026-04-03T14:13:58.226Z</time></trkpt><trkpt lat="44.3890165" lon="7.7377768"><ele>461.0</ele><time>2026-04-03T14:13:59.231Z</time></trkpt><trkpt lat="44.389019" lon="7.7378874"><ele>463.16666666666663</ele><time>2026-04-03T14:14:00.234Z</time></trkpt><trkpt lat="44.3890211" lon="7.7380058"><ele>465.3333333333333</ele><time>2026-04-03T14:14:01.224Z</time></trkpt><trkpt lat="44.389043" lon="7.7381071"><ele>467.5</ele><time>2026-04-03T14:14:02.23Z</time></trkpt><trkpt lat="44.3890913" lon="7.738243"><ele>469.66666666666663</ele><time>2026-04-03T14:14:04.226Z</time></trkpt><trkpt lat="44.389116" lon="7.7383332"><ele>471.8333333333333</ele><time>2026-04-03T14:14:05.224Z</time></trkpt><trkpt lat="44.3891379" lon="7.7384252"><ele>474.0</ele><time>2026-04-03T14:14:06.229Z</time></trkpt><trkpt lat="44.3891589" lon="7.7385476"><ele>475.1666666666667</ele><time>2026-04-03T14:14:07.233Z</time></trkpt><trkpt lat="44.3892014" lon="7.7386564"><ele>476.33333333333337</ele><time>2026-04-03T14:14:08.224Z</time></trkpt><trkpt lat="44.3892483" lon="7.7387435"><ele>477.5</ele><time>2026-04-03T14:14:09.224Z</time></trkpt><trkpt lat="44.389276" lon="7.7388376"><ele>478.6666666666667</ele><time>2026-04-03T14:14:10.225Z</time></trkpt><trkpt lat="44.3893044" lon="7.7389282"><ele>479.83333333333337</ele><time>2026-04-03T14:14:11.226Z</time></trkpt><trkpt lat="44.3893296" lon="7.7390123"><ele>481.0</ele><time>2026-04-03T14:14:12.221Z</time></trkpt><trkpt lat="44.3893335" lon="7.7391672"><ele>480.99999999999994</ele><time>2026-04-03T14:14:14.232Z</time></trkpt><trkpt lat="44.3893477" lon="7.7392736"><ele>481.0</ele><time>2026-04-03T14:14:17.227Z</time></trkpt><trkpt lat="44.3893635" lon="7.7393605"><ele>480.99999999999994</ele><time>2026-04-03T14:14:46.224Z</time></trkpt><trkpt lat="44.3894193" lon="7.7394147"><ele>480.99999999999994</ele><time>2026-04-03T14:14:52.227Z</time></trkpt><trkpt lat="44.389456" lon="7.7394952"><ele>481.0</ele><time>2026-04-03T14:15:00.227Z</time></trkpt><trkpt lat="44.3895197" lon="7.739548"><ele>480.99999999999994</ele><time>2026-04-03T14:15:05.232Z</time></trkpt><trkpt lat="44.3895691" lon="7.7396083"><ele>480.99999999999994</ele><time>2026-04-03T14:15:14.226Z</time></trkpt><trkpt lat="44.3896109" lon="7.7396788"><ele>481.2857142857142</ele><time>2026-04-03T14:15:18.229Z</time></trkpt><trkpt lat="44.389654" lon="7.7397478"><ele>481.57142857142856</ele><time>2026-04-03T14:15:22.223Z</time></trkpt><trkpt lat="44.3897108" lon="7.7398006"><ele>481.85714285714283</ele><time>2026-04-03T14:15:31.227Z</time></trkpt><trkpt lat="44.3897616" lon="7.7397334"><ele>482.1428571428571</ele><time>2026-04-03T14:15:50.232Z</time></trkpt><trkpt lat="44.3898094" lon="7.7396723"><ele>482.42857142857144</ele><time>2026-04-03T14:15:54.222Z</time></trkpt><trkpt lat="44.3898701" lon="7.7397121"><ele>482.7142857142857</ele><time>2026-04-03T14:15:57.223Z</time></trkpt><trkpt lat="44.3899351" lon="7.7398013"><ele>483.0</ele><time>2026-04-03T14:16:00.226Z</time></trkpt><trkpt lat="44.3899901" lon="7.7398714"><ele>479.2</ele><time>2026-04-03T14:16:02.227Z</time></trkpt><trkpt lat="44.3900556" lon="7.7399608"><ele>475.4</ele><time>2026-04-03T14:16:04.227Z</time></trkpt><trkpt lat="44.3901447" lon="7.7400903"><ele>471.59999999999997</ele><time>2026-04-03T14:16:06.224Z</time></trkpt><trkpt lat="44.3902005" lon="7.7401748"><ele>467.79999999999995</ele><time>2026-04-03T14:16:07.225Z</time></trkpt><trkpt lat="44.3902542" lon="7.7402627"><ele>464.0</ele><time>2026-04-03T14:16:08.226Z</time></trkpt><trkpt lat="44.3903059" lon="7.7403517"><ele>463.0</ele><time>2026-04-03T14:16:09.228Z</time></trkpt><trkpt lat="44.3904104" lon="7.7405128"><ele>462.0</ele><time>2026-04-03T14:16:10.223Z</time></trkpt><trkpt lat="44.3904532" lon="7.7406535"><ele>461.0</ele><time>2026-04-03T14:16:12.224Z</time></trkpt><trkpt lat="44.3904609" lon="7.7407558"><ele>460.0</ele><time>2026-04-03T14:16:14.229Z</time></trkpt><trkpt lat="44.3904081" lon="7.7408271"><ele>459.0</ele><time>2026-04-03T14:16:18.224Z</time></trkpt><trkpt lat="44.3903413" lon="7.7408865"><ele>459.0</ele><time>2026-04-03T14:16:21.228Z</time></trkpt><trkpt lat="44.3902665" lon="7.7409252"><ele>459.0</ele><time>2026-04-03T14:16:22.226Z</time></trkpt><trkpt lat="44.3901527" lon="7.7410807"><ele>459.0</ele><time>2026-04-03T14:16:23.221Z</time></trkpt><trkpt lat="44.3900821" lon="7.7411406"><ele>459.0</ele><time>2026-04-03T14:16:25.222Z</time></trkpt><trkpt lat="44.3900025" lon="7.7412317"><ele>459.0</ele><time>2026-04-03T14:16:27.226Z</time></trkpt><trkpt lat="44.3899298" lon="7.7412864"><ele>459.6666666666667</ele><time>2026-04-03T14:16:29.225Z</time></trkpt><trkpt lat="44.3898647" lon="7.7412933"><ele>460.33333333333337</ele><time>2026-04-03T14:16:32.225Z</time></trkpt><trkpt lat="44.3897558" lon="7.741333"><ele>461.0</ele><time>2026-04-03T14:16:34.224Z</time></trkpt><trkpt lat="44.3896918" lon="7.7413655"><ele>461.6666666666667</ele><time>2026-04-03T14:16:35.225Z</time></trkpt><trkpt lat="44.3896234" lon="7.7413915"><ele>462.33333333333337</ele><time>2026-04-03T14:16:36.222Z</time></trkpt><trkpt lat="44.3895539" lon="7.7414288"><ele>463.0</ele><time>2026-04-03T14:16:37.225Z</time></trkpt><trkpt lat="44.3894839" lon="7.7414676"><ele>463.0</ele><time>2026-04-03T14:16:38.228Z</time></trkpt><trkpt lat="44.3894175" lon="7.7415551"><ele>462.99999999999994</ele><time>2026-04-03T14:16:39.226Z</time></trkpt><trkpt lat="44.3893439" lon="7.7416314"><ele>462.99999999999994</ele><time>2026-04-03T14:16:40.225Z</time></trkpt><trkpt lat="44.3892704" lon="7.7416994"><ele>463.0</ele><time>2026-04-03T14:16:41.226Z</time></trkpt><trkpt lat="44.3891954" lon="7.7417746"><ele>463.0</ele><time>2026-04-03T14:16:42.226Z</time></trkpt><trkpt lat="44.3891133" lon="7.7418381"><ele>464.0</ele><time>2026-04-03T14:16:43.221Z</time></trkpt><trkpt lat="44.3890206" lon="7.7418985"><ele>464.99999999999994</ele><time>2026-04-03T14:16:44.224Z</time></trkpt><trkpt lat="44.3889266" lon="7.7419528"><ele>465.99999999999994</ele><time>2026-04-03T14:16:45.226Z</time></trkpt><trkpt lat="44.3888353" lon="7.7419961"><ele>467.0</ele><time>2026-04-03T14:16:46.226Z</time></trkpt><trkpt lat="44.3887381" lon="7.7420439"><ele>468.0</ele><time>2026-04-03T14:16:47.224Z</time></trkpt><trkpt lat="44.388637" lon="7.7420842"><ele>468.0</ele><time>2026-04-03T14:16:48.223Z</time></trkpt><trkpt lat="44.3885457" lon="7.7421356"><ele>467.99999999999994</ele><time>2026-04-03T14:16:49.223Z</time></trkpt><trkpt lat="44.3884535" lon="7.7421841"><ele>467.99999999999994</ele><time>2026-04-03T14:16:50.228Z</time></trkpt><trkpt lat="44.3883653" lon="7.7422434"><ele>468.0</ele><time>2026-04-03T14:16:51.224Z</time></trkpt><trkpt lat="44.3882734" lon="7.7422777"><ele>468.0</ele><time>2026-04-03T14:16:52.226Z</time></trkpt><trkpt lat="44.3881655" lon="7.7423048"><ele>468.0</ele><time>2026-04-03T14:16:53.227Z</time></trkpt><trkpt lat="44.3880451" lon="7.7423468"><ele>467.99999999999994</ele><time>2026-04-03T14:16:54.228Z</time></trkpt><trkpt lat="44.3879404" lon="7.7423897"><ele>467.99999999999994</ele><time>2026-04-03T14:16:55.23Z</time></trkpt><trkpt lat="44.3878428" lon="7.7424421"><ele>468.0</ele><time>2026-04-03T14:16:56.23Z</time></trkpt><trkpt lat="44.3877531" lon="7.742508"><ele>468.0</ele><time>2026-04-03T14:16:57.221Z</time></trkpt><trkpt lat="44.387671" lon="7.7425826"><ele>467.59999999999997</ele><time>2026-04-03T14:16:58.222Z</time></trkpt><trkpt lat="44.3875861" lon="7.7426434"><ele>467.19999999999993</ele><time>2026-04-03T14:16:59.225Z</time></trkpt><trkpt lat="44.3874969" lon="7.7426751"><ele>466.8</ele><time>2026-04-03T14:17:00.225Z</time></trkpt><trkpt lat="44.3874011" lon="7.7426886"><ele>466.4</ele><time>2026-04-03T14:17:01.225Z</time></trkpt><trkpt lat="44.3872995" lon="7.7427155"><ele>466.0</ele><time>2026-04-03T14:17:02.225Z</time></trkpt><trkpt lat="44.3872053" lon="7.7427304"><ele>467.4</ele><time>2026-04-03T14:17:03.224Z</time></trkpt><trkpt lat="44.3871048" lon="7.7427466"><ele>468.8</ele><time>2026-04-03T14:17:04.225Z</time></trkpt><trkpt lat="44.3870063" lon="7.7427464"><ele>470.19999999999993</ele><time>2026-04-03T14:17:05.226Z</time></trkpt><trkpt lat="44.3869032" lon="7.7427548"><ele>471.59999999999997</ele><time>2026-04-03T14:17:06.224Z</time></trkpt><trkpt lat="44.3867996" lon="7.7427577"><ele>473.0</ele><time>2026-04-03T14:17:07.227Z</time></trkpt><trkpt lat="44.3866872" lon="7.7427539"><ele>473.0</ele><time>2026-04-03T14:17:08.224Z</time></trkpt><trkpt lat="44.3865792" lon="7.7427378"><ele>473.0</ele><time>2026-04-03T14:17:09.223Z</time></trkpt><trkpt lat="44.386466" lon="7.7427216"><ele>473.0</ele><time>2026-04-03T14:17:10.224Z</time></trkpt><trkpt lat="44.3863431" lon="7.7427271"><ele>473.0</ele><time>2026-04-03T14:17:11.225Z</time></trkpt><trkpt lat="44.3862259" lon="7.7427446"><ele>476.0</ele><time>2026-04-03T14:17:12.224Z</time></trkpt><trkpt lat="44.3861194" lon="7.7427382"><ele>479.0</ele><time>2026-04-03T14:17:13.224Z</time></trkpt><trkpt lat="44.3859797" lon="7.7427452"><ele>482.0</ele><time>2026-04-03T14:17:14.224Z</time></trkpt><trkpt lat="44.385853" lon="7.7427619"><ele>485.0</ele><time>2026-04-03T14:17:15.224Z</time></trkpt><trkpt lat="44.3857243" lon="7.74277"><ele>485.0</ele><time>2026-04-03T14:17:16.224Z</time></trkpt><trkpt lat="44.3855942" lon="7.7427908"><ele>485.0</ele><time>2026-04-03T14:17:17.226Z</time></trkpt><trkpt lat="44.3854639" lon="7.7428144"><ele>485.0</ele><time>2026-04-03T14:17:18.223Z</time></trkpt><trkpt lat="44.385323" lon="7.7428377"><ele>485.0</ele><time>2026-04-03T14:17:19.223Z</time></trkpt><trkpt lat="44.3852047" lon="7.7428591"><ele>486.75</ele><time>2026-04-03T14:17:20.222Z</time></trkpt><trkpt lat="44.3850859" lon="7.7428772"><ele>488.5</ele><time>2026-04-03T14:17:21.223Z</time></trkpt><trkpt lat="44.3849673" lon="7.742898"><ele>490.25</ele><time>2026-04-03T14:17:22.228Z</time></trkpt><trkpt lat="44.3848647" lon="7.7429482"><ele>492.0</ele><time>2026-04-03T14:17:23.223Z</time></trkpt><trkpt lat="44.384749" lon="7.7429905"><ele>492.8</ele><time>2026-04-03T14:17:24.223Z</time></trkpt><trkpt lat="44.3846401" lon="7.7430405"><ele>493.6</ele><time>2026-04-03T14:17:25.227Z</time></trkpt><trkpt lat="44.38453" lon="7.7430837"><ele>494.40000000000003</ele><time>2026-04-03T14:17:26.226Z</time></trkpt><trkpt lat="44.3844449" lon="7.7430874"><ele>495.20000000000005</ele><time>2026-04-03T14:17:27.225Z</time></trkpt><trkpt lat="44.3843591" lon="7.7430946"><ele>496.0</ele><time>2026-04-03T14:17:28.223Z</time></trkpt><trkpt lat="44.3843022" lon="7.7430505"><ele>496.0</ele><time>2026-04-03T14:17:30.224Z</time></trkpt><trkpt lat="44.3844143" lon="7.743006"><ele>496.0</ele><time>2026-04-03T14:17:33.224Z</time></trkpt><trkpt lat="44.3845384" lon="7.7429359"><ele>496.0</ele><time>2026-04-03T14:17:35.235Z</time></trkpt><trkpt lat="44.3845866" lon="7.742809"><ele>496.0</ele><time>2026-04-03T14:17:36.225Z</time></trkpt><trkpt lat="44.3846673" lon="7.7426593"><ele>499.5</ele><time>2026-04-03T14:17:37.228Z</time></trkpt><trkpt lat="44.3847358" lon="7.7425099"><ele>503.0</ele><time>2026-04-03T14:17:38.227Z</time></trkpt><trkpt lat="44.38482" lon="7.7423904"><ele>506.5</ele><time>2026-04-03T14:17:39.225Z</time></trkpt><trkpt lat="44.3848942" lon="7.7422597"><ele>510.0</ele><time>2026-04-03T14:17:40.224Z</time></trkpt><trkpt lat="44.3849548" lon="7.7421209"><ele>510.0</ele><time>2026-04-03T14:17:41.226Z</time></trkpt><trkpt lat="44.3849829" lon="7.7419928"><ele>510.0</ele><time>2026-04-03T14:17:42.223Z</time></trkpt><trkpt lat="44.3850016" lon="7.7418555"><ele>510.0</ele><time>2026-04-03T14:17:43.222Z</time></trkpt><trkpt lat="44.3849963" lon="7.7417214"><ele>510.0</ele><time>2026-04-03T14:17:44.225Z</time></trkpt><trkpt lat="44.3849722" lon="7.7416251"><ele>510.0</ele><time>2026-04-03T14:17:45.226Z</time></trkpt><trkpt lat="44.3849082" lon="7.7415234"><ele>512.0</ele><time>2026-04-03T14:17:47.226Z</time></trkpt><trkpt lat="44.3847904" lon="7.7415242"><ele>514.0</ele><time>2026-04-03T14:17:49.231Z</time></trkpt><trkpt lat="44.3847196" lon="7.7415382"><ele>516.0</ele><time>2026-04-03T14:17:50.225Z</time></trkpt><trkpt lat="44.3846335" lon="7.7415445"><ele>518.0</ele><time>2026-04-03T14:17:51.227Z</time></trkpt><trkpt lat="44.3845407" lon="7.7415612"><ele>520.0</ele><time>2026-04-03T14:17:52.222Z</time></trkpt><trkpt lat="44.3844417" lon="7.7415729"><ele>520.5</ele><time>2026-04-03T14:17:53.23Z</time></trkpt><trkpt lat="44.384342" lon="7.7415943"><ele>521.0</ele><time>2026-04-03T14:17:54.225Z</time></trkpt><trkpt lat="44.3842267" lon="7.7416184"><ele>521.5</ele><time>2026-04-03T14:17:55.227Z</time></trkpt><trkpt lat="44.3841084" lon="7.741649"><ele>522.0</ele><time>2026-04-03T14:17:56.222Z</time></trkpt><trkpt lat="44.3839934" lon="7.7416674"><ele>522.0</ele><time>2026-04-03T14:17:57.226Z</time></trkpt><trkpt lat="44.383889" lon="7.7416916"><ele>522.0</ele><time>2026-04-03T14:17:58.225Z</time></trkpt><trkpt lat="44.3837836" lon="7.7417097"><ele>522.0</ele><time>2026-04-03T14:17:59.226Z</time></trkpt><trkpt lat="44.383682" lon="7.7417316"><ele>522.0</ele><time>2026-04-03T14:18:00.228Z</time></trkpt><trkpt lat="44.3835758" lon="7.7417488"><ele>522.0</ele><time>2026-04-03T14:18:01.229Z</time></trkpt><trkpt lat="44.3834717" lon="7.7417662"><ele>521.4</ele><time>2026-04-03T14:18:02.227Z</time></trkpt><trkpt lat="44.3833703" lon="7.7417932"><ele>520.8000000000001</ele><time>2026-04-03T14:18:03.23Z</time></trkpt><trkpt lat="44.3832609" lon="7.7418074"><ele>520.2</ele><time>2026-04-03T14:18:04.226Z</time></trkpt><trkpt lat="44.3831475" lon="7.7418175"><ele>519.6</ele><time>2026-04-03T14:18:05.226Z</time></trkpt><trkpt lat="44.3830301" lon="7.7418438"><ele>519.0</ele><time>2026-04-03T14:18:06.227Z</time></trkpt><trkpt lat="44.3829133" lon="7.7418778"><ele>517.25</ele><time>2026-04-03T14:18:07.227Z</time></trkpt><trkpt lat="44.3827924" lon="7.7419045"><ele>515.5</ele><time>2026-04-03T14:18:08.228Z</time></trkpt><trkpt lat="44.3826746" lon="7.7419297"><ele>513.75</ele><time>2026-04-03T14:18:09.225Z</time></trkpt><trkpt lat="44.3825571" lon="7.7419416"><ele>512.0</ele><time>2026-04-03T14:18:10.224Z</time></trkpt><trkpt lat="44.3824382" lon="7.741929"><ele>512.0</ele><time>2026-04-03T14:18:11.223Z</time></trkpt><trkpt lat="44.382309" lon="7.7419175"><ele>512.0</ele><time>2026-04-03T14:18:12.227Z</time></trkpt><trkpt lat="44.3821852" lon="7.7419302"><ele>512.0</ele><time>2026-04-03T14:18:13.224Z</time></trkpt><trkpt lat="44.3820497" lon="7.7419332"><ele>512.0</ele><time>2026-04-03T14:18:14.226Z</time></trkpt><trkpt lat="44.3819127" lon="7.7419243"><ele>513.4</ele><time>2026-04-03T14:18:15.23Z</time></trkpt><trkpt lat="44.3817902" lon="7.7419211"><ele>514.8000000000001</ele><time>2026-04-03T14:18:16.228Z</time></trkpt><trkpt lat="44.3816703" lon="7.7419101"><ele>516.2</ele><time>2026-04-03T14:18:17.226Z</time></trkpt><trkpt lat="44.3815603" lon="7.7418899"><ele>517.6</ele><time>2026-04-03T14:18:18.226Z</time></trkpt><trkpt lat="44.3814687" lon="7.7418725"><ele>519.0</ele><time>2026-04-03T14:18:19.226Z</time></trkpt><trkpt lat="44.3813887" lon="7.7418657"><ele>520.2</ele><time>2026-04-03T14:18:20.223Z</time></trkpt><trkpt lat="44.3813054" lon="7.7418764"><ele>521.4</ele><time>2026-04-03T14:18:21.228Z</time></trkpt><trkpt lat="44.3812263" lon="7.7419107"><ele>522.6</ele><time>2026-04-03T14:18:22.228Z</time></trkpt><trkpt lat="44.3811426" lon="7.7419458"><ele>523.8</ele><time>2026-04-03T14:18:23.227Z</time></trkpt><trkpt lat="44.3810396" lon="7.741953"><ele>525.0</ele><time>2026-04-03T14:18:24.224Z</time></trkpt><trkpt lat="44.3809361" lon="7.7419447"><ele>525.0</ele><time>2026-04-03T14:18:25.224Z</time></trkpt><trkpt lat="44.3808182" lon="7.741935"><ele>525.0</ele><time>2026-04-03T14:18:26.223Z</time></trkpt><trkpt lat="44.3807148" lon="7.7419267"><ele>525.0</ele><time>2026-04-03T14:18:27.224Z</time></trkpt><trkpt lat="44.3806159" lon="7.7419227"><ele>525.0</ele><time>2026-04-03T14:18:28.228Z</time></trkpt><trkpt lat="44.3805043" lon="7.7419178"><ele>525.0</ele><time>2026-04-03T14:18:29.225Z</time></trkpt><trkpt lat="44.3803861" lon="7.7418988"><ele>525.8</ele><time>2026-04-03T14:18:30.231Z</time></trkpt><trkpt lat="44.3802789" lon="7.7418724"><ele>526.6</ele><time>2026-04-03T14:18:31.223Z</time></trkpt><trkpt lat="44.3801808" lon="7.7418383"><ele>527.4</ele><time>2026-04-03T14:18:32.223Z</time></trkpt><trkpt lat="44.3800854" lon="7.741815"><ele>528.2</ele><time>2026-04-03T14:18:33.228Z</time></trkpt><trkpt lat="44.3800021" lon="7.7417892"><ele>529.0</ele><time>2026-04-03T14:18:34.222Z</time></trkpt><trkpt lat="44.3799291" lon="7.7417692"><ele>529.0</ele><time>2026-04-03T14:18:35.224Z</time></trkpt><trkpt lat="44.3798615" lon="7.7417493"><ele>529.0</ele><time>2026-04-03T14:18:36.223Z</time></trkpt><trkpt lat="44.3797736" lon="7.7417147"><ele>529.0</ele><time>2026-04-03T14:18:38.224Z</time></trkpt><trkpt lat="44.379702" lon="7.7416699"><ele>529.0</ele><time>2026-04-03T14:19:36.226Z</time></trkpt><trkpt lat="44.3796663" lon="7.7415172"><ele>529.0</ele><time>2026-04-03T14:19:38.233Z</time></trkpt><trkpt lat="44.3796962" lon="7.7414152"><ele>529.0</ele><time>2026-04-03T14:19:39.231Z</time></trkpt><trkpt lat="44.3797183" lon="7.7413022"><ele>529.0</ele><time>2026-04-03T14:19:40.227Z</time></trkpt><trkpt lat="44.3797317" lon="7.7411799"><ele>529.0</ele><time>2026-04-03T14:19:41.23Z</time></trkpt><trkpt lat="44.3797141" lon="7.7410554"><ele>529.0</ele><time>2026-04-03T14:19:42.223Z</time></trkpt><trkpt lat="44.3796641" lon="7.7409404"><ele>529.0</ele><time>2026-04-03T14:19:43.225Z</time></trkpt><trkpt lat="44.3795847" lon="7.7408488"><ele>529.0</ele><time>2026-04-03T14:19:44.225Z</time></trkpt><trkpt lat="44.3794905" lon="7.7407762"><ele>528.5</ele><time>2026-04-03T14:19:45.226Z</time></trkpt><trkpt lat="44.3793703" lon="7.7407"><ele>528.0</ele><time>2026-04-03T14:19:46.225Z</time></trkpt><trkpt lat="44.3792489" lon="7.7406165"><ele>527.5</ele><time>2026-04-03T14:19:47.228Z</time></trkpt><trkpt lat="44.3791194" lon="7.7405252"><ele>527.0</ele><time>2026-04-03T14:19:48.225Z</time></trkpt><trkpt lat="44.3790017" lon="7.7404354"><ele>527.0</ele><time>2026-04-03T14:19:49.229Z</time></trkpt><trkpt lat="44.3788875" lon="7.740365"><ele>527.0</ele><time>2026-04-03T14:19:50.226Z</time></trkpt><trkpt lat="44.3787716" lon="7.740301"><ele>527.0</ele><time>2026-04-03T14:19:51.228Z</time></trkpt><trkpt lat="44.3786459" lon="7.7402408"><ele>527.0</ele><time>2026-04-03T14:19:52.225Z</time></trkpt><trkpt lat="44.378522" lon="7.7401875"><ele>528.25</ele><time>2026-04-03T14:19:53.222Z</time></trkpt><trkpt lat="44.3783973" lon="7.7401347"><ele>529.5</ele><time>2026-04-03T14:19:54.232Z</time></trkpt><trkpt lat="44.3782734" lon="7.7400849"><ele>530.75</ele><time>2026-04-03T14:19:55.226Z</time></trkpt><trkpt lat="44.3781354" lon="7.7400299"><ele>532.0</ele><time>2026-04-03T14:19:56.223Z</time></trkpt><trkpt lat="44.3779842" lon="7.739977"><ele>532.0</ele><time>2026-04-03T14:19:57.224Z</time></trkpt><trkpt lat="44.3778275" lon="7.7399162"><ele>532.0</ele><time>2026-04-03T14:19:58.224Z</time></trkpt><trkpt lat="44.3776642" lon="7.7398201"><ele>532.0</ele><time>2026-04-03T14:19:59.223Z</time></trkpt><trkpt lat="44.3774971" lon="7.739716"><ele>532.0</ele><time>2026-04-03T14:20:00.231Z</time></trkpt><trkpt lat="44.3773294" lon="7.7396314"><ele>532.0</ele><time>2026-04-03T14:20:01.223Z</time></trkpt><trkpt lat="44.3771712" lon="7.7395683"><ele>532.0</ele><time>2026-04-03T14:20:02.224Z</time></trkpt><trkpt lat="44.3770085" lon="7.7395078"><ele>533.3333333333334</ele><time>2026-04-03T14:20:03.226Z</time></trkpt><trkpt lat="44.3768452" lon="7.7394577"><ele>534.6666666666666</ele><time>2026-04-03T14:20:04.228Z</time></trkpt><trkpt lat="44.3766753" lon="7.7394117"><ele>536.0</ele><time>2026-04-03T14:20:05.223Z</time></trkpt><trkpt lat="44.3765021" lon="7.7394039"><ele>537.6666666666666</ele><time>2026-04-03T14:20:06.23Z</time></trkpt><trkpt lat="44.3763191" lon="7.7394165"><ele>539.3333333333334</ele><time>2026-04-03T14:20:07.221Z</time></trkpt><trkpt lat="44.3761333" lon="7.7394374"><ele>541.0</ele><time>2026-04-03T14:20:08.223Z</time></trkpt><trkpt lat="44.3759482" lon="7.7394804"><ele>541.0</ele><time>2026-04-03T14:20:09.224Z</time></trkpt><trkpt lat="44.3757617" lon="7.7395305"><ele>541.0</ele><time>2026-04-03T14:20:10.222Z</time></trkpt><trkpt lat="44.3755738" lon="7.7395892"><ele>541.0</ele><time>2026-04-03T14:20:11.226Z</time></trkpt><trkpt lat="44.3753916" lon="7.7396379"><ele>541.3333333333334</ele><time>2026-04-03T14:20:12.226Z</time></trkpt><trkpt lat="44.3752125" lon="7.7397019"><ele>541.6666666666666</ele><time>2026-04-03T14:20:13.225Z</time></trkpt><trkpt lat="44.3750425" lon="7.739741"><ele>542.0</ele><time>2026-04-03T14:20:14.224Z</time></trkpt><trkpt lat="44.374858" lon="7.7397469"><ele>542.3333333333333</ele><time>2026-04-03T14:20:15.224Z</time></trkpt><trkpt lat="44.3746591" lon="7.7397249"><ele>542.6666666666666</ele><time>2026-04-03T14:20:16.222Z</time></trkpt><trkpt lat="44.3744654" lon="7.7397031"><ele>543.0</ele><time>2026-04-03T14:20:17.223Z</time></trkpt><trkpt lat="44.374267" lon="7.7396765"><ele>543.0</ele><time>2026-04-03T14:20:18.223Z</time></trkpt><trkpt lat="44.3740687" lon="7.7396503"><ele>543.0</ele><time>2026-04-03T14:20:19.224Z</time></trkpt><trkpt lat="44.3738785" lon="7.7396184"><ele>543.0</ele><time>2026-04-03T14:20:20.223Z</time></trkpt><trkpt lat="44.3736876" lon="7.7395899"><ele>543.0</ele><time>2026-04-03T14:20:21.225Z</time></trkpt><trkpt lat="44.3735026" lon="7.7395636"><ele>543.0</ele><time>2026-04-03T14:20:22.223Z</time></trkpt><trkpt lat="44.3733309" lon="7.7395352"><ele>543.0</ele><time>2026-04-03T14:20:23.223Z</time></trkpt><trkpt lat="44.3731764" lon="7.7395101"><ele>543.0</ele><time>2026-04-03T14:20:24.224Z</time></trkpt><trkpt lat="44.3730394" lon="7.7394821"><ele>543.0</ele><time>2026-04-03T14:20:25.226Z</time></trkpt><trkpt lat="44.3729045" lon="7.7394634"><ele>543.0</ele><time>2026-04-03T14:20:26.223Z</time></trkpt><trkpt lat="44.3727597" lon="7.7394341"><ele>543.0</ele><time>2026-04-03T14:20:27.226Z</time></trkpt><trkpt lat="44.3726073" lon="7.739334"><ele>544.6666666666666</ele><time>2026-04-03T14:20:28.226Z</time></trkpt><trkpt lat="44.372451" lon="7.7392583"><ele>546.3333333333333</ele><time>2026-04-03T14:20:29.224Z</time></trkpt><trkpt lat="44.3722828" lon="7.739185"><ele>548.0</ele><time>2026-04-03T14:20:30.223Z</time></trkpt><trkpt lat="44.3721067" lon="7.7391335"><ele>548.3333333333333</ele><time>2026-04-03T14:20:31.222Z</time></trkpt><trkpt lat="44.3719275" lon="7.7390945"><ele>548.6666666666666</ele><time>2026-04-03T14:20:32.226Z</time></trkpt><trkpt lat="44.3717511" lon="7.7390472"><ele>549.0</ele><time>2026-04-03T14:20:33.222Z</time></trkpt><trkpt lat="44.3716031" lon="7.7390071"><ele>549.0</ele><time>2026-04-03T14:20:34.225Z</time></trkpt><trkpt lat="44.3714579" lon="7.7389579"><ele>549.0</ele><time>2026-04-03T14:20:35.223Z</time></trkpt><trkpt lat="44.3713339" lon="7.7389107"><ele>549.0</ele><time>2026-04-03T14:20:36.223Z</time></trkpt><trkpt lat="44.3712252" lon="7.7388628"><ele>549.0</ele><time>2026-04-03T14:20:37.227Z</time></trkpt><trkpt lat="44.3711343" lon="7.7388187"><ele>549.2</ele><time>2026-04-03T14:20:38.223Z</time></trkpt><trkpt lat="44.3710675" lon="7.7387826"><ele>549.4</ele><time>2026-04-03T14:20:39.225Z</time></trkpt><trkpt lat="44.3709963" lon="7.7388096"><ele>549.6</ele><time>2026-04-03T14:20:41.224Z</time></trkpt><trkpt lat="44.3710178" lon="7.7389609"><ele>549.8</ele><time>2026-04-03T14:20:43.224Z</time></trkpt><trkpt lat="44.3710448" lon="7.7390955"><ele>550.0</ele><time>2026-04-03T14:20:44.237Z</time></trkpt><trkpt lat="44.3710749" lon="7.7392674"><ele>550.0</ele><time>2026-04-03T14:20:45.23Z</time></trkpt><trkpt lat="44.371115" lon="7.7394595"><ele>550.0</ele><time>2026-04-03T14:20:46.224Z</time></trkpt><trkpt lat="44.3711691" lon="7.7396892"><ele>550.0</ele><time>2026-04-03T14:20:47.226Z</time></trkpt><trkpt lat="44.371225" lon="7.739948"><ele>550.0</ele><time>2026-04-03T14:20:48.223Z</time></trkpt><trkpt lat="44.3712875" lon="7.7402135"><ele>550.0</ele><time>2026-04-03T14:20:49.23Z</time></trkpt><trkpt lat="44.3713519" lon="7.7404868"><ele>550.0</ele><time>2026-04-03T14:20:50.227Z</time></trkpt><trkpt lat="44.3714166" lon="7.7407522"><ele>550.0</ele><time>2026-04-03T14:20:51.226Z</time></trkpt><trkpt lat="44.3714733" lon="7.7410001"><ele>550.0</ele><time>2026-04-03T14:20:52.224Z</time></trkpt><trkpt lat="44.3715207" lon="7.7412204"><ele>550.0</ele><time>2026-04-03T14:20:53.225Z</time></trkpt><trkpt lat="44.3715578" lon="7.7414041"><ele>550.0</ele><time>2026-04-03T14:20:54.222Z</time></trkpt><trkpt lat="44.3715827" lon="7.7415674"><ele>550.0</ele><time>2026-04-03T14:20:55.225Z</time></trkpt><trkpt lat="44.3715976" lon="7.7417332"><ele>550.0</ele><time>2026-04-03T14:20:56.224Z</time></trkpt><trkpt lat="44.3715635" lon="7.741915"><ele>550.0</ele><time>2026-04-03T14:20:57.229Z</time></trkpt><trkpt lat="44.3715243" lon="7.7420716"><ele>549.2</ele><time>2026-04-03T14:20:58.23Z</time></trkpt><trkpt lat="44.3714846" lon="7.7422158"><ele>548.4</ele><time>2026-04-03T14:20:59.225Z</time></trkpt><trkpt lat="44.371473" lon="7.7423482"><ele>547.6</ele><time>2026-04-03T14:21:00.224Z</time></trkpt><trkpt lat="44.3714718" lon="7.74248"><ele>546.8</ele><time>2026-04-03T14:21:01.232Z</time></trkpt><trkpt lat="44.3715432" lon="7.7425749"><ele>546.0</ele><time>2026-04-03T14:21:02.223Z</time></trkpt><trkpt lat="44.3716253" lon="7.742674"><ele>544.2</ele><time>2026-04-03T14:21:03.225Z</time></trkpt><trkpt lat="44.3717057" lon="7.7428181"><ele>542.4000000000001</ele><time>2026-04-03T14:21:04.225Z</time></trkpt><trkpt lat="44.3717677" lon="7.7429345"><ele>540.6</ele><time>2026-04-03T14:21:05.227Z</time></trkpt><trkpt lat="44.371823" lon="7.743039"><ele>538.8000000000001</ele><time>2026-04-03T14:21:06.227Z</time></trkpt><trkpt lat="44.3718477" lon="7.743137"><ele>537.0</ele><time>2026-04-03T14:21:07.229Z</time></trkpt><trkpt lat="44.371838" lon="7.7432317"><ele>537.0</ele><time>2026-04-03T14:21:08.231Z</time></trkpt><trkpt lat="44.3717681" lon="7.7433487"><ele>537.0</ele><time>2026-04-03T14:21:09.226Z</time></trkpt><trkpt lat="44.3716613" lon="7.7434885"><ele>537.0</ele><time>2026-04-03T14:21:10.236Z</time></trkpt><trkpt lat="44.3715726" lon="7.7436153"><ele>537.0</ele><time>2026-04-03T14:21:11.225Z</time></trkpt><trkpt lat="44.3714872" lon="7.7437087"><ele>533.0</ele><time>2026-04-03T14:21:12.226Z</time></trkpt><trkpt lat="44.3713935" lon="7.7437824"><ele>529.0</ele><time>2026-04-03T14:21:13.223Z</time></trkpt><trkpt lat="44.3712492" lon="7.7437885"><ele>525.0</ele><time>2026-04-03T14:21:14.226Z</time></trkpt><trkpt lat="44.3710975" lon="7.7438163"><ele>521.0</ele><time>2026-04-03T14:21:15.222Z</time></trkpt><trkpt lat="44.370968" lon="7.7438441"><ele>521.0</ele><time>2026-04-03T14:21:16.226Z</time></trkpt><trkpt lat="44.370878" lon="7.743889"><ele>521.0</ele><time>2026-04-03T14:21:17.225Z</time></trkpt><trkpt lat="44.3707848" lon="7.7439898"><ele>521.0</ele><time>2026-04-03T14:21:19.227Z</time></trkpt><trkpt lat="44.370848" lon="7.7440397"><ele>521.0</ele><time>2026-04-03T14:21:21.227Z</time></trkpt><trkpt lat="44.3709911" lon="7.7441303"><ele>521.0</ele><time>2026-04-03T14:21:23.231Z</time></trkpt><trkpt lat="44.3711015" lon="7.744186"><ele>521.0</ele><time>2026-04-03T14:21:24.232Z</time></trkpt><trkpt lat="44.371215" lon="7.7442219"><ele>521.0</ele><time>2026-04-03T14:21:25.228Z</time></trkpt><trkpt lat="44.3713292" lon="7.7442363"><ele>521.0</ele><time>2026-04-03T14:21:26.221Z</time></trkpt><trkpt lat="44.371436" lon="7.7442549"><ele>521.0</ele><time>2026-04-03T14:21:27.226Z</time></trkpt><trkpt lat="44.3715099" lon="7.7443154"><ele>521.0</ele><time>2026-04-03T14:21:28.221Z</time></trkpt><trkpt lat="44.3715559" lon="7.7444177"><ele>520.8333333333333</ele><time>2026-04-03T14:21:29.221Z</time></trkpt><trkpt lat="44.3716096" lon="7.7445448"><ele>520.6666666666666</ele><time>2026-04-03T14:21:30.221Z</time></trkpt><trkpt lat="44.3716648" lon="7.7446525"><ele>520.5</ele><time>2026-04-03T14:21:31.222Z</time></trkpt><trkpt lat="44.3717094" lon="7.744741"><ele>520.3333333333334</ele><time>2026-04-03T14:21:32.22Z</time></trkpt><trkpt lat="44.3717559" lon="7.7448373"><ele>520.1666666666667</ele><time>2026-04-03T14:21:34.224Z</time></trkpt><trkpt lat="44.3716917" lon="7.7448993"><ele>520.0</ele><time>2026-04-03T14:21:39.222Z</time></trkpt><trkpt lat="44.3716027" lon="7.7448441"><ele>520.0</ele><time>2026-04-03T14:21:41.222Z</time></trkpt><trkpt lat="44.3715361" lon="7.7448329"><ele>520.0</ele><time>2026-04-03T14:21:42.222Z</time></trkpt><trkpt lat="44.3714634" lon="7.7448329"><ele>520.0</ele><time>2026-04-03T14:21:43.229Z</time></trkpt><trkpt lat="44.3713876" lon="7.7448587"><ele>520.0</ele><time>2026-04-03T14:21:44.225Z</time></trkpt><trkpt lat="44.3713017" lon="7.7448833"><ele>520.0</ele><time>2026-04-03T14:21:45.226Z</time></trkpt><trkpt lat="44.3712104" lon="7.7449187"><ele>520.0</ele><time>2026-04-03T14:21:46.222Z</time></trkpt><trkpt lat="44.3711151" lon="7.7449625"><ele>521.4</ele><time>2026-04-03T14:21:47.221Z</time></trkpt><trkpt lat="44.3710258" lon="7.7449985"><ele>522.8</ele><time>2026-04-03T14:21:48.223Z</time></trkpt><trkpt lat="44.3709404" lon="7.7449974"><ele>524.2</ele><time>2026-04-03T14:21:49.222Z</time></trkpt><trkpt lat="44.3708478" lon="7.7449543"><ele>525.6</ele><time>2026-04-03T14:21:50.223Z</time></trkpt><trkpt lat="44.3707602" lon="7.744921"><ele>527.0</ele><time>2026-04-03T14:21:51.22Z</time></trkpt><trkpt lat="44.3706519" lon="7.7448734"><ele>527.0</ele><time>2026-04-03T14:21:52.22Z</time></trkpt><trkpt lat="44.3705556" lon="7.7448118"><ele>527.0</ele><time>2026-04-03T14:21:53.227Z</time></trkpt><trkpt lat="44.3704642" lon="7.744756"><ele>527.0</ele><time>2026-04-03T14:21:54.22Z</time></trkpt><trkpt lat="44.3704002" lon="7.7447786"><ele>527.0</ele><time>2026-04-03T14:21:55.222Z</time></trkpt><trkpt lat="44.3703144" lon="7.7447826"><ele>527.0</ele><time>2026-04-03T14:21:56.22Z</time></trkpt><trkpt lat="44.3702281" lon="7.7447172"><ele>528.5</ele><time>2026-04-03T14:21:58.223Z</time></trkpt><trkpt lat="44.3702862" lon="7.7446817"><ele>530.0</ele><time>2026-04-03T14:22:08.223Z</time></trkpt><trkpt lat="44.370254" lon="7.7445998"><ele>531.5</ele><time>2026-04-03T14:22:11.225Z</time></trkpt><trkpt lat="44.3701526" lon="7.7445446"><ele>533.0</ele><time>2026-04-03T14:22:14.222Z</time></trkpt><trkpt lat="44.3700813" lon="7.7445441"><ele>534.5</ele><time>2026-04-03T14:22:16.228Z</time></trkpt><trkpt lat="44.3699584" lon="7.744594"><ele>536.0</ele><time>2026-04-03T14:22:18.223Z</time></trkpt><trkpt lat="44.3698727" lon="7.7446409"><ele>536.0</ele><time>2026-04-03T14:22:19.225Z</time></trkpt><trkpt lat="44.3698132" lon="7.7446933"><ele>536.0</ele><time>2026-04-03T14:22:21.219Z</time></trkpt><trkpt lat="44.3697157" lon="7.7447148"><ele>536.0</ele><time>2026-04-03T14:22:24.227Z</time></trkpt><trkpt lat="44.3696453" lon="7.7447564"><ele>536.0</ele><time>2026-04-03T14:22:27.225Z</time></trkpt><trkpt lat="44.3695634" lon="7.7447354"><ele>536.0</ele><time>2026-04-03T14:22:40.222Z</time></trkpt><trkpt lat="44.3694988" lon="7.7447379"><ele>536.0</ele><time>2026-04-03T14:22:43.222Z</time></trkpt><trkpt lat="44.3694247" lon="7.7447303"><ele>535.7142857142858</ele><time>2026-04-03T14:22:46.227Z</time></trkpt><trkpt lat="44.3693649" lon="7.7446884"><ele>535.4285714285714</ele><time>2026-04-03T14:22:48.222Z</time></trkpt><trkpt lat="44.3693072" lon="7.7446332"><ele>535.1428571428571</ele><time>2026-04-03T14:22:50.22Z</time></trkpt><trkpt lat="44.3692571" lon="7.7445751"><ele>534.8571428571429</ele><time>2026-04-03T14:22:52.225Z</time></trkpt><trkpt lat="44.3691937" lon="7.7445915"><ele>534.5714285714286</ele><time>2026-04-03T14:22:54.222Z</time></trkpt><trkpt lat="44.3691481" lon="7.7446661"><ele>534.2857142857143</ele><time>2026-04-03T14:22:56.226Z</time></trkpt><trkpt lat="44.3690903" lon="7.7447349"><ele>534.0</ele><time>2026-04-03T14:22:58.222Z</time></trkpt><trkpt lat="44.3690148" lon="7.7447851"><ele>534.0</ele><time>2026-04-03T14:23:00.224Z</time></trkpt><trkpt lat="44.3689368" lon="7.7448618"><ele>534.0</ele><time>2026-04-03T14:23:02.229Z</time></trkpt><trkpt lat="44.3688441" lon="7.7449373"><ele>534.0</ele><time>2026-04-03T14:23:04.221Z</time></trkpt><trkpt lat="44.3687347" lon="7.7449639"><ele>534.0</ele><time>2026-04-03T14:23:06.223Z</time></trkpt><trkpt lat="44.3686294" lon="7.7449626"><ele>534.0</ele><time>2026-04-03T14:23:08.229Z</time></trkpt><trkpt lat="44.3684847" lon="7.744964"><ele>533.8333333333334</ele><time>2026-04-03T14:23:10.224Z</time></trkpt><trkpt lat="44.3684028" lon="7.7449851"><ele>533.6666666666666</ele><time>2026-04-03T14:23:18.226Z</time></trkpt><trkpt lat="44.3683212" lon="7.7449834"><ele>533.5</ele><time>2026-04-03T14:23:19.221Z</time></trkpt><trkpt lat="44.3682452" lon="7.7450054"><ele>533.3333333333333</ele><time>2026-04-03T14:23:20.226Z</time></trkpt><trkpt lat="44.3681324" lon="7.745039"><ele>533.1666666666666</ele><time>2026-04-03T14:23:22.23Z</time></trkpt><trkpt lat="44.3680618" lon="7.745033"><ele>533.0</ele><time>2026-04-03T14:23:23.225Z</time></trkpt><trkpt lat="44.3679739" lon="7.7450316"><ele>533.0</ele><time>2026-04-03T14:23:24.226Z</time></trkpt><trkpt lat="44.3679079" lon="7.7450292"><ele>533.0</ele><time>2026-04-03T14:23:25.228Z</time></trkpt><trkpt lat="44.3678168" lon="7.7450027"><ele>533.0</ele><time>2026-04-03T14:23:27.225Z</time></trkpt><trkpt lat="44.367734" lon="7.7449607"><ele>533.0</ele><time>2026-04-03T14:23:29.222Z</time></trkpt><trkpt lat="44.3676483" lon="7.7449614"><ele>533.0</ele><time>2026-04-03T14:23:32.225Z</time></trkpt><trkpt lat="44.3675776" lon="7.7449591"><ele>533.0</ele><time>2026-04-03T14:23:34.223Z</time></trkpt><trkpt lat="44.3674719" lon="7.7449212"><ele>533.0</ele><time>2026-04-03T14:23:36.223Z</time></trkpt><trkpt lat="44.3674104" lon="7.7448812"><ele>533.0</ele><time>2026-04-03T14:23:37.221Z</time></trkpt><trkpt lat="44.3673511" lon="7.7448339"><ele>533.0</ele><time>2026-04-03T14:23:38.224Z</time></trkpt><trkpt lat="44.3672982" lon="7.7447828"><ele>533.0</ele><time>2026-04-03T14:23:39.224Z</time></trkpt><trkpt lat="44.3672388" lon="7.7447044"><ele>533.0</ele><time>2026-04-03T14:23:41.224Z</time></trkpt><trkpt lat="44.3671885" lon="7.7446417"><ele>533.0</ele><time>2026-04-03T14:23:43.229Z</time></trkpt><trkpt lat="44.3670969" lon="7.7446168"><ele>533.0</ele><time>2026-04-03T14:23:45.221Z</time></trkpt><trkpt lat="44.3669804" lon="7.7446286"><ele>534.0</ele><time>2026-04-03T14:23:47.22Z</time></trkpt><trkpt lat="44.3668595" lon="7.744693"><ele>535.0</ele><time>2026-04-03T14:23:49.225Z</time></trkpt><trkpt lat="44.3668054" lon="7.7447385"><ele>536.0</ele><time>2026-04-03T14:23:50.226Z</time></trkpt><trkpt lat="44.3667177" lon="7.7447949"><ele>537.0</ele><time>2026-04-03T14:23:52.226Z</time></trkpt><trkpt lat="44.3666561" lon="7.7447692"><ele>538.0</ele><time>2026-04-03T14:23:54.231Z</time></trkpt><trkpt lat="44.3665543" lon="7.7447925"><ele>538.0</ele><time>2026-04-03T14:24:41.221Z</time></trkpt><trkpt lat="44.3664645" lon="7.7447651"><ele>538.0</ele><time>2026-04-03T14:24:43.22Z</time></trkpt><trkpt lat="44.3663521" lon="7.7447298"><ele>538.0</ele><time>2026-04-03T14:24:45.228Z</time></trkpt><trkpt lat="44.3662351" lon="7.7447094"><ele>538.0</ele><time>2026-04-03T14:24:47.221Z</time></trkpt><trkpt lat="44.3661277" lon="7.7447128"><ele>538.0</ele><time>2026-04-03T14:24:49.224Z</time></trkpt><trkpt lat="44.366032" lon="7.7447515"><ele>539.0</ele><time>2026-04-03T14:24:51.222Z</time></trkpt><trkpt lat="44.3659567" lon="7.7447134"><ele>540.0</ele><time>2026-04-03T14:24:53.231Z</time></trkpt><trkpt lat="44.365925" lon="7.7446019"><ele>541.0</ele><time>2026-04-03T14:24:55.222Z</time></trkpt><trkpt lat="44.3658786" lon="7.7445013"><ele>542.0</ele><time>2026-04-03T14:24:57.227Z</time></trkpt><trkpt lat="44.3657998" lon="7.7444493"><ele>543.0</ele><time>2026-04-03T14:24:59.225Z</time></trkpt><trkpt lat="44.3657114" lon="7.7444353"><ele>544.0</ele><time>2026-04-03T14:25:01.224Z</time></trkpt><trkpt lat="44.3656175" lon="7.7444303"><ele>543.8</ele><time>2026-04-03T14:25:03.224Z</time></trkpt><trkpt lat="44.3655059" lon="7.7444495"><ele>543.5999999999999</ele><time>2026-04-03T14:25:05.23Z</time></trkpt><trkpt lat="44.3654096" lon="7.7445363"><ele>543.4</ele><time>2026-04-03T14:25:07.223Z</time></trkpt><trkpt lat="44.3653606" lon="7.7446718"><ele>543.1999999999999</ele><time>2026-04-03T14:25:09.223Z</time></trkpt><trkpt lat="44.3653247" lon="7.7447866"><ele>543.0</ele><time>2026-04-03T14:25:11.229Z</time></trkpt><trkpt lat="44.3652686" lon="7.7448334"><ele>543.0</ele><time>2026-04-03T14:25:13.227Z</time></trkpt><trkpt lat="44.3652045" lon="7.7448656"><ele>543.0</ele><time>2026-04-03T14:25:15.223Z</time></trkpt><trkpt lat="44.3651469" lon="7.7449229"><ele>543.0</ele><time>2026-04-03T14:25:17.226Z</time></trkpt><trkpt lat="44.3650843" lon="7.7449582"><ele>543.0</ele><time>2026-04-03T14:25:19.229Z</time></trkpt><trkpt lat="44.365008" lon="7.7449644"><ele>543.0</ele><time>2026-04-03T14:25:21.223Z</time></trkpt><trkpt lat="44.3649282" lon="7.7449599"><ele>543.0</ele><time>2026-04-03T14:25:23.225Z</time></trkpt><trkpt lat="44.364855" lon="7.7449676"><ele>543.0</ele><time>2026-04-03T14:25:25.225Z</time></trkpt><trkpt lat="44.364781" lon="7.744996"><ele>543.0</ele><time>2026-04-03T14:25:27.222Z</time></trkpt><trkpt lat="44.3647106" lon="7.7450764"><ele>543.0</ele><time>2026-04-03T14:25:29.223Z</time></trkpt><trkpt lat="44.3646396" lon="7.7451453"><ele>543.0</ele><time>2026-04-03T14:25:31.229Z</time></trkpt><trkpt lat="44.3645704" lon="7.7451631"><ele>543.0</ele><time>2026-04-03T14:25:33.226Z</time></trkpt><trkpt lat="44.3645015" lon="7.7451356"><ele>543.0</ele><time>2026-04-03T14:25:35.224Z</time></trkpt><trkpt lat="44.3644095" lon="7.7451299"><ele>543.0</ele><time>2026-04-03T14:25:37.225Z</time></trkpt><trkpt lat="44.3642857" lon="7.7451529"><ele>543.2857142857143</ele><time>2026-04-03T14:25:39.224Z</time></trkpt><trkpt lat="44.3642216" lon="7.745162"><ele>543.5714285714286</ele><time>2026-04-03T14:25:40.227Z</time></trkpt><trkpt lat="44.3641621" lon="7.7451949"><ele>543.8571428571429</ele><time>2026-04-03T14:25:42.227Z</time></trkpt><trkpt lat="44.3641311" lon="7.7453048"><ele>544.1428571428571</ele><time>2026-04-03T14:25:45.222Z</time></trkpt><trkpt lat="44.3640718" lon="7.7453814"><ele>544.4285714285714</ele><time>2026-04-03T14:25:47.226Z</time></trkpt><trkpt lat="44.3640138" lon="7.7454342"><ele>544.7142857142858</ele><time>2026-04-03T14:25:50.223Z</time></trkpt><trkpt lat="44.3640599" lon="7.745497"><ele>545.0</ele><time>2026-04-03T14:25:53.226Z</time></trkpt><trkpt lat="44.3641243" lon="7.7455418"><ele>546.6</ele><time>2026-04-03T14:25:56.23Z</time></trkpt><trkpt lat="44.3642356" lon="7.7455869"><ele>548.2</ele><time>2026-04-03T14:25:59.226Z</time></trkpt><trkpt lat="44.3643172" lon="7.745619"><ele>549.8</ele><time>2026-04-03T14:26:00.228Z</time></trkpt><trkpt lat="44.3644073" lon="7.7456443"><ele>551.4</ele><time>2026-04-03T14:26:01.224Z</time></trkpt><trkpt lat="44.364511" lon="7.7456713"><ele>553.0</ele><time>2026-04-03T14:26:02.226Z</time></trkpt><trkpt lat="44.3646308" lon="7.745713"><ele>553.4</ele><time>2026-04-03T14:26:03.223Z</time></trkpt><trkpt lat="44.3647068" lon="7.7457151"><ele>553.8</ele><time>2026-04-03T14:26:04.223Z</time></trkpt><trkpt lat="44.3648151" lon="7.745776"><ele>554.2</ele><time>2026-04-03T14:26:06.22Z</time></trkpt><trkpt lat="44.3648535" lon="7.7458712"><ele>554.6</ele><time>2026-04-03T14:26:07.223Z</time></trkpt><trkpt lat="44.3648856" lon="7.7459618"><ele>555.0</ele><time>2026-04-03T14:26:08.232Z</time></trkpt><trkpt lat="44.3649318" lon="7.7461196"><ele>555.8333333333334</ele><time>2026-04-03T14:26:10.225Z</time></trkpt><trkpt lat="44.3649472" lon="7.7462275"><ele>556.6666666666666</ele><time>2026-04-03T14:26:11.225Z</time></trkpt><trkpt lat="44.3649679" lon="7.7463379"><ele>557.5</ele><time>2026-04-03T14:26:12.224Z</time></trkpt><trkpt lat="44.3649736" lon="7.7464475"><ele>558.3333333333333</ele><time>2026-04-03T14:26:13.224Z</time></trkpt><trkpt lat="44.3649732" lon="7.7465589"><ele>559.1666666666666</ele><time>2026-04-03T14:26:14.228Z</time></trkpt><trkpt lat="44.3649765" lon="7.7466973"><ele>560.0</ele><time>2026-04-03T14:26:15.223Z</time></trkpt><trkpt lat="44.3649808" lon="7.7468381"><ele>560.0</ele><time>2026-04-03T14:26:16.226Z</time></trkpt><trkpt lat="44.364989" lon="7.7469573"><ele>560.0</ele><time>2026-04-03T14:26:17.223Z</time></trkpt><trkpt lat="44.3649961" lon="7.7470653"><ele>560.0</ele><time>2026-04-03T14:26:18.223Z</time></trkpt><trkpt lat="44.3650001" lon="7.7471699"><ele>560.0</ele><time>2026-04-03T14:26:19.223Z</time></trkpt><trkpt lat="44.3649936" lon="7.7472648"><ele>560.0</ele><time>2026-04-03T14:26:20.226Z</time></trkpt><trkpt lat="44.3649757" lon="7.7474102"><ele>560.0</ele><time>2026-04-03T14:26:22.229Z</time></trkpt><trkpt lat="44.3649392" lon="7.747506"><ele>560.0</ele><time>2026-04-03T14:26:24.224Z</time></trkpt><trkpt lat="44.3648785" lon="7.7475593"><ele>560.0</ele><time>2026-04-03T14:26:26.223Z</time></trkpt><trkpt lat="44.3647987" lon="7.7475522"><ele>560.0</ele><time>2026-04-03T14:26:29.227Z</time></trkpt><trkpt lat="44.3647229" lon="7.7475674"><ele>560.0</ele><time>2026-04-03T14:26:30.227Z</time></trkpt><trkpt lat="44.3646252" lon="7.7475953"><ele>560.0</ele><time>2026-04-03T14:26:31.226Z</time></trkpt><trkpt lat="44.3644638" lon="7.7476528"><ele>560.5</ele><time>2026-04-03T14:26:32.22Z</time></trkpt><trkpt lat="44.3643186" lon="7.7476822"><ele>561.0</ele><time>2026-04-03T14:26:33.223Z</time></trkpt><trkpt lat="44.3642021" lon="7.7477129"><ele>561.5</ele><time>2026-04-03T14:26:34.22Z</time></trkpt><trkpt lat="44.3640848" lon="7.7477389"><ele>562.0</ele><time>2026-04-03T14:26:35.224Z</time></trkpt><trkpt lat="44.3639591" lon="7.7477641"><ele>562.25</ele><time>2026-04-03T14:26:36.224Z</time></trkpt><trkpt lat="44.3638199" lon="7.7478005"><ele>562.5</ele><time>2026-04-03T14:26:37.228Z</time></trkpt><trkpt lat="44.3636793" lon="7.7478389"><ele>562.75</ele><time>2026-04-03T14:26:38.225Z</time></trkpt><trkpt lat="44.3635322" lon="7.7478871"><ele>563.0</ele><time>2026-04-03T14:26:39.226Z</time></trkpt><trkpt lat="44.3633868" lon="7.747947"><ele>563.0</ele><time>2026-04-03T14:26:40.224Z</time></trkpt><trkpt lat="44.3632398" lon="7.748011"><ele>563.0</ele><time>2026-04-03T14:26:41.224Z</time></trkpt><trkpt lat="44.3630925" lon="7.7480863"><ele>563.0</ele><time>2026-04-03T14:26:42.221Z</time></trkpt><trkpt lat="44.3629404" lon="7.7481612"><ele>564.0</ele><time>2026-04-03T14:26:43.224Z</time></trkpt><trkpt lat="44.3627894" lon="7.7482349"><ele>565.0</ele><time>2026-04-03T14:26:44.226Z</time></trkpt><trkpt lat="44.3626398" lon="7.7483126"><ele>566.0</ele><time>2026-04-03T14:26:45.226Z</time></trkpt><trkpt lat="44.3624931" lon="7.7484018"><ele>566.0</ele><time>2026-04-03T14:26:46.226Z</time></trkpt><trkpt lat="44.3623459" lon="7.7485073"><ele>566.0</ele><time>2026-04-03T14:26:47.223Z</time></trkpt><trkpt lat="44.3621996" lon="7.7486194"><ele>566.0</ele><time>2026-04-03T14:26:48.222Z</time></trkpt><trkpt lat="44.3620263" lon="7.7487579"><ele>566.6666666666666</ele><time>2026-04-03T14:26:49.224Z</time></trkpt><trkpt lat="44.3618498" lon="7.7489088"><ele>567.3333333333334</ele><time>2026-04-03T14:26:50.223Z</time></trkpt><trkpt lat="44.3616771" lon="7.7490826"><ele>568.0</ele><time>2026-04-03T14:26:51.222Z</time></trkpt><trkpt lat="44.3614996" lon="7.7492815"><ele>569.0</ele><time>2026-04-03T14:26:52.224Z</time></trkpt><trkpt lat="44.3613369" lon="7.7495025"><ele>570.0</ele><time>2026-04-03T14:26:53.222Z</time></trkpt><trkpt lat="44.3611886" lon="7.7497363"><ele>570.0</ele><time>2026-04-03T14:26:54.223Z</time></trkpt><trkpt lat="44.3610765" lon="7.7499808"><ele>570.0</ele><time>2026-04-03T14:26:55.224Z</time></trkpt><trkpt lat="44.3609561" lon="7.7501975"><ele>570.0</ele><time>2026-04-03T14:26:56.225Z</time></trkpt><trkpt lat="44.360846" lon="7.7503921"><ele>570.0</ele><time>2026-04-03T14:26:57.225Z</time></trkpt><trkpt lat="44.3607588" lon="7.7505786"><ele>570.0</ele><time>2026-04-03T14:26:58.223Z</time></trkpt><trkpt lat="44.3606801" lon="7.7507446"><ele>570.0</ele><time>2026-04-03T14:26:59.226Z</time></trkpt><trkpt lat="44.3606114" lon="7.750877"><ele>570.0</ele><time>2026-04-03T14:27:00.226Z</time></trkpt><trkpt lat="44.3605585" lon="7.7509738"><ele>570.0</ele><time>2026-04-03T14:27:01.223Z</time></trkpt><trkpt lat="44.360502" lon="7.7510867"><ele>570.0</ele><time>2026-04-03T14:27:02.225Z</time></trkpt><trkpt lat="44.3604277" lon="7.7512151"><ele>570.0</ele><time>2026-04-03T14:27:03.22Z</time></trkpt><trkpt lat="44.3603375" lon="7.7513478"><ele>570.0</ele><time>2026-04-03T14:27:04.222Z</time></trkpt><trkpt lat="44.3602288" lon="7.7514842"><ele>570.0</ele><time>2026-04-03T14:27:05.222Z</time></trkpt><trkpt lat="44.3601127" lon="7.7516268"><ele>570.0</ele><time>2026-04-03T14:27:06.223Z</time></trkpt><trkpt lat="44.359999" lon="7.7517672"><ele>570.0</ele><time>2026-04-03T14:27:07.228Z</time></trkpt><trkpt lat="44.3598915" lon="7.7518969"><ele>570.0</ele><time>2026-04-03T14:27:08.228Z</time></trkpt><trkpt lat="44.3597815" lon="7.7520294"><ele>570.25</ele><time>2026-04-03T14:27:09.225Z</time></trkpt><trkpt lat="44.3596677" lon="7.7521454"><ele>570.5</ele><time>2026-04-03T14:27:10.224Z</time></trkpt><trkpt lat="44.3595611" lon="7.7522476"><ele>570.75</ele><time>2026-04-03T14:27:11.223Z</time></trkpt><trkpt lat="44.3594648" lon="7.7523403"><ele>571.0</ele><time>2026-04-03T14:27:12.224Z</time></trkpt><trkpt lat="44.3593652" lon="7.752424"><ele>571.0</ele><time>2026-04-03T14:27:13.223Z</time></trkpt><trkpt lat="44.3592584" lon="7.7524954"><ele>571.0</ele><time>2026-04-03T14:27:14.224Z</time></trkpt><trkpt lat="44.3591355" lon="7.7525719"><ele>571.0</ele><time>2026-04-03T14:27:15.224Z</time></trkpt><trkpt lat="44.3590051" lon="7.7526559"><ele>571.0</ele><time>2026-04-03T14:27:16.227Z</time></trkpt><trkpt lat="44.3588703" lon="7.7527396"><ele>571.0</ele><time>2026-04-03T14:27:17.227Z</time></trkpt><trkpt lat="44.3587419" lon="7.752807"><ele>571.0</ele><time>2026-04-03T14:27:18.226Z</time></trkpt><trkpt lat="44.3586217" lon="7.7528612"><ele>571.0</ele><time>2026-04-03T14:27:19.223Z</time></trkpt><trkpt lat="44.3585111" lon="7.7528894"><ele>571.0</ele><time>2026-04-03T14:27:20.222Z</time></trkpt><trkpt lat="44.3583982" lon="7.7529302"><ele>571.0</ele><time>2026-04-03T14:27:21.225Z</time></trkpt><trkpt lat="44.3582997" lon="7.7529673"><ele>571.0</ele><time>2026-04-03T14:27:22.227Z</time></trkpt><trkpt lat="44.358207" lon="7.752998"><ele>571.0</ele><time>2026-04-03T14:27:23.222Z</time></trkpt><trkpt lat="44.3581413" lon="7.7530199"><ele>571.0</ele><time>2026-04-03T14:27:24.229Z</time></trkpt><trkpt lat="44.3580583" lon="7.7530519"><ele>571.0</ele><time>2026-04-03T14:27:26.223Z</time></trkpt><trkpt lat="44.3579828" lon="7.7531188"><ele>571.0</ele><time>2026-04-03T14:27:28.224Z</time></trkpt><trkpt lat="44.3578986" lon="7.7532218"><ele>570.8333333333334</ele><time>2026-04-03T14:27:30.231Z</time></trkpt><trkpt lat="44.3578417" lon="7.7532802"><ele>570.6666666666667</ele><time>2026-04-03T14:27:31.231Z</time></trkpt><trkpt lat="44.3577753" lon="7.7533506"><ele>570.5</ele><time>2026-04-03T14:27:32.227Z</time></trkpt><trkpt lat="44.3577126" lon="7.7534166"><ele>570.3333333333334</ele><time>2026-04-03T14:27:33.225Z</time></trkpt><trkpt lat="44.3576378" lon="7.7534859"><ele>570.1666666666666</ele><time>2026-04-03T14:27:34.226Z</time></trkpt><trkpt lat="44.3575628" lon="7.7535672"><ele>570.0</ele><time>2026-04-03T14:27:35.223Z</time></trkpt><trkpt lat="44.3574889" lon="7.7536462"><ele>570.0</ele><time>2026-04-03T14:27:36.22Z</time></trkpt><trkpt lat="44.3574196" lon="7.7536842"><ele>570.0</ele><time>2026-04-03T14:27:37.226Z</time></trkpt><trkpt lat="44.3573342" lon="7.7537168"><ele>570.0</ele><time>2026-04-03T14:27:38.222Z</time></trkpt><trkpt lat="44.3572316" lon="7.7537445"><ele>570.0</ele><time>2026-04-03T14:27:39.23Z</time></trkpt><trkpt lat="44.3571269" lon="7.7537741"><ele>570.0</ele><time>2026-04-03T14:27:40.224Z</time></trkpt><trkpt lat="44.3570086" lon="7.7538042"><ele>570.75</ele><time>2026-04-03T14:27:41.219Z</time></trkpt><trkpt lat="44.3568862" lon="7.7538437"><ele>571.5</ele><time>2026-04-03T14:27:42.22Z</time></trkpt><trkpt lat="44.3567554" lon="7.7538771"><ele>572.25</ele><time>2026-04-03T14:27:43.224Z</time></trkpt><trkpt lat="44.3566266" lon="7.7539213"><ele>573.0</ele><time>2026-04-03T14:27:44.224Z</time></trkpt><trkpt lat="44.3564921" lon="7.7539649"><ele>573.25</ele><time>2026-04-03T14:27:45.221Z</time></trkpt><trkpt lat="44.3563652" lon="7.7540129"><ele>573.5</ele><time>2026-04-03T14:27:46.229Z</time></trkpt><trkpt lat="44.3562459" lon="7.7540489"><ele>573.75</ele><time>2026-04-03T14:27:47.22Z</time></trkpt><trkpt lat="44.3561239" lon="7.7540903"><ele>574.0</ele><time>2026-04-03T14:27:48.224Z</time></trkpt><trkpt lat="44.3560027" lon="7.7541226"><ele>574.0</ele><time>2026-04-03T14:27:49.228Z</time></trkpt><trkpt lat="44.3558756" lon="7.7541383"><ele>574.0</ele><time>2026-04-03T14:27:50.225Z</time></trkpt><trkpt lat="44.3557595" lon="7.7541618"><ele>574.0</ele><time>2026-04-03T14:27:51.221Z</time></trkpt><trkpt lat="44.3556476" lon="7.7542112"><ele>574.0</ele><time>2026-04-03T14:27:52.222Z</time></trkpt><trkpt lat="44.3555352" lon="7.7542769"><ele>574.0</ele><time>2026-04-03T14:27:53.226Z</time></trkpt><trkpt lat="44.3554289" lon="7.754353"><ele>574.0</ele><time>2026-04-03T14:27:54.225Z</time></trkpt><trkpt lat="44.3553234" lon="7.7544141"><ele>574.0</ele><time>2026-04-03T14:27:55.225Z</time></trkpt><trkpt lat="44.355229" lon="7.7544491"><ele>574.0</ele><time>2026-04-03T14:27:56.222Z</time></trkpt><trkpt lat="44.355142" lon="7.7544565"><ele>574.0</ele><time>2026-04-03T14:27:57.225Z</time></trkpt><trkpt lat="44.3550636" lon="7.7544491"><ele>574.0</ele><time>2026-04-03T14:27:58.223Z</time></trkpt><trkpt lat="44.3549739" lon="7.754417"><ele>574.0</ele><time>2026-04-03T14:27:59.221Z</time></trkpt><trkpt lat="44.3548703" lon="7.754355"><ele>574.0</ele><time>2026-04-03T14:28:00.225Z</time></trkpt><trkpt lat="44.3547736" lon="7.7543089"><ele>574.0</ele><time>2026-04-03T14:28:01.225Z</time></trkpt><trkpt lat="44.3546642" lon="7.7542461"><ele>574.0</ele><time>2026-04-03T14:28:02.225Z</time></trkpt><trkpt lat="44.3545509" lon="7.7541809"><ele>574.0</ele><time>2026-04-03T14:28:03.223Z</time></trkpt><trkpt lat="44.3544256" lon="7.7541192"><ele>574.0</ele><time>2026-04-03T14:28:04.225Z</time></trkpt><trkpt lat="44.3542896" lon="7.7540709"><ele>574.0</ele><time>2026-04-03T14:28:05.225Z</time></trkpt><trkpt lat="44.3541456" lon="7.7540489"><ele>574.0</ele><time>2026-04-03T14:28:06.223Z</time></trkpt><trkpt lat="44.3539869" lon="7.7540485"><ele>573.3333333333334</ele><time>2026-04-03T14:28:07.223Z</time></trkpt><trkpt lat="44.3538191" lon="7.7540653"><ele>572.6666666666666</ele><time>2026-04-03T14:28:08.225Z</time></trkpt><trkpt lat="44.3536547" lon="7.7540922"><ele>572.0</ele><time>2026-04-03T14:28:09.225Z</time></trkpt><trkpt lat="44.353501" lon="7.7541535"><ele>572.0</ele><time>2026-04-03T14:28:10.222Z</time></trkpt><trkpt lat="44.3533422" lon="7.7542251"><ele>572.0</ele><time>2026-04-03T14:28:11.225Z</time></trkpt><trkpt lat="44.3531867" lon="7.7543163"><ele>572.0</ele><time>2026-04-03T14:28:12.224Z</time></trkpt><trkpt lat="44.3530358" lon="7.7543972"><ele>573.0</ele><time>2026-04-03T14:28:13.222Z</time></trkpt><trkpt lat="44.3528885" lon="7.7544685"><ele>574.0</ele><time>2026-04-03T14:28:14.223Z</time></trkpt><trkpt lat="44.3527506" lon="7.7545429"><ele>575.0</ele><time>2026-04-03T14:28:15.224Z</time></trkpt><trkpt lat="44.3526356" lon="7.7545962"><ele>576.0</ele><time>2026-04-03T14:28:16.226Z</time></trkpt><trkpt lat="44.3525046" lon="7.7546347"><ele>576.0</ele><time>2026-04-03T14:28:17.224Z</time></trkpt><trkpt lat="44.3523743" lon="7.7546339"><ele>576.0</ele><time>2026-04-03T14:28:18.224Z</time></trkpt><trkpt lat="44.3522391" lon="7.7546211"><ele>576.0</ele><time>2026-04-03T14:28:19.222Z</time></trkpt><trkpt lat="44.3520895" lon="7.7546091"><ele>576.0</ele><time>2026-04-03T14:28:20.227Z</time></trkpt><trkpt lat="44.3519217" lon="7.7546307"><ele>576.25</ele><time>2026-04-03T14:28:21.229Z</time></trkpt><trkpt lat="44.3517663" lon="7.7546507"><ele>576.5</ele><time>2026-04-03T14:28:22.227Z</time></trkpt><trkpt lat="44.3516393" lon="7.7546596"><ele>576.75</ele><time>2026-04-03T14:28:23.225Z</time></trkpt><trkpt lat="44.3515255" lon="7.7546536"><ele>577.0</ele><time>2026-04-03T14:28:24.229Z</time></trkpt><trkpt lat="44.35142" lon="7.7546366"><ele>577.0</ele><time>2026-04-03T14:28:25.226Z</time></trkpt><trkpt lat="44.3513187" lon="7.7546107"><ele>577.0</ele><time>2026-04-03T14:28:26.227Z</time></trkpt><trkpt lat="44.3512393" lon="7.7545521"><ele>577.0</ele><time>2026-04-03T14:28:27.224Z</time></trkpt><trkpt lat="44.3511703" lon="7.7544966"><ele>577.0</ele><time>2026-04-03T14:28:28.226Z</time></trkpt><trkpt lat="44.3511014" lon="7.7543965"><ele>577.0</ele><time>2026-04-03T14:28:29.23Z</time></trkpt><trkpt lat="44.3510237" lon="7.754301"><ele>577.8000000000001</ele><time>2026-04-03T14:28:30.224Z</time></trkpt><trkpt lat="44.3509536" lon="7.754211"><ele>578.6</ele><time>2026-04-03T14:28:31.223Z</time></trkpt><trkpt lat="44.3508945" lon="7.7541379"><ele>579.4000000000001</ele><time>2026-04-03T14:28:32.224Z</time></trkpt><trkpt lat="44.3507913" lon="7.7540803"><ele>580.2</ele><time>2026-04-03T14:28:34.226Z</time></trkpt><trkpt lat="44.3506453" lon="7.7541303"><ele>581.0</ele><time>2026-04-03T14:28:36.221Z</time></trkpt><trkpt lat="44.3505502" lon="7.7541742"><ele>582.25</ele><time>2026-04-03T14:28:37.226Z</time></trkpt><trkpt lat="44.3504382" lon="7.7542218"><ele>583.5</ele><time>2026-04-03T14:28:38.221Z</time></trkpt><trkpt lat="44.3503136" lon="7.754253"><ele>584.75</ele><time>2026-04-03T14:28:39.225Z</time></trkpt><trkpt lat="44.3501823" lon="7.7542713"><ele>586.0</ele><time>2026-04-03T14:28:40.225Z</time></trkpt><trkpt lat="44.3500408" lon="7.7542777"><ele>586.0</ele><time>2026-04-03T14:28:41.228Z</time></trkpt><trkpt lat="44.3499018" lon="7.7542647"><ele>586.0</ele><time>2026-04-03T14:28:42.223Z</time></trkpt><trkpt lat="44.3497862" lon="7.7542467"><ele>586.0</ele><time>2026-04-03T14:28:43.222Z</time></trkpt><trkpt lat="44.3496753" lon="7.7542369"><ele>586.0</ele><time>2026-04-03T14:28:44.227Z</time></trkpt><trkpt lat="44.3495734" lon="7.7542275"><ele>586.8</ele><time>2026-04-03T14:28:45.23Z</time></trkpt><trkpt lat="44.3494768" lon="7.7542379"><ele>587.6</ele><time>2026-04-03T14:28:46.222Z</time></trkpt><trkpt lat="44.3493685" lon="7.7542646"><ele>588.4</ele><time>2026-04-03T14:28:47.226Z</time></trkpt><trkpt lat="44.3492502" lon="7.7542945"><ele>589.2</ele><time>2026-04-03T14:28:48.22Z</time></trkpt><trkpt lat="44.3491484" lon="7.7543172"><ele>590.0</ele><time>2026-04-03T14:28:49.221Z</time></trkpt><trkpt lat="44.3490567" lon="7.7543516"><ele>589.3333333333333</ele><time>2026-04-03T14:28:50.228Z</time></trkpt><trkpt lat="44.3489789" lon="7.7543864"><ele>588.6666666666666</ele><time>2026-04-03T14:28:51.232Z</time></trkpt><trkpt lat="44.3489168" lon="7.7544169"><ele>588.0</ele><time>2026-04-03T14:28:52.221Z</time></trkpt><trkpt lat="44.3488272" lon="7.7544171"><ele>587.3333333333334</ele><time>2026-04-03T14:28:54.222Z</time></trkpt><trkpt lat="44.3487644" lon="7.7543676"><ele>586.6666666666667</ele><time>2026-04-03T14:28:55.22Z</time></trkpt><trkpt lat="44.3487009" lon="7.7542752"><ele>586.0</ele><time>2026-04-03T14:28:56.224Z</time></trkpt><trkpt lat="44.3486272" lon="7.7541805"><ele>586.0</ele><time>2026-04-03T14:28:57.226Z</time></trkpt><trkpt lat="44.3485879" lon="7.7540198"><ele>586.0</ele><time>2026-04-03T14:28:58.222Z</time></trkpt><trkpt lat="44.3485555" lon="7.7538653"><ele>586.0</ele><time>2026-04-03T14:28:59.22Z</time></trkpt><trkpt lat="44.3485291" lon="7.7537292"><ele>586.0</ele><time>2026-04-03T14:29:00.22Z</time></trkpt><trkpt lat="44.3484992" lon="7.7535885"><ele>586.0</ele><time>2026-04-03T14:29:01.218Z</time></trkpt><trkpt lat="44.3484796" lon="7.7534791"><ele>586.4</ele><time>2026-04-03T14:29:02.221Z</time></trkpt><trkpt lat="44.348459" lon="7.7533495"><ele>586.8</ele><time>2026-04-03T14:29:03.218Z</time></trkpt><trkpt lat="44.3484429" lon="7.7532083"><ele>587.1999999999999</ele><time>2026-04-03T14:29:04.232Z</time></trkpt><trkpt lat="44.3484165" lon="7.7530606"><ele>587.6</ele><time>2026-04-03T14:29:05.221Z</time></trkpt><trkpt lat="44.3483986" lon="7.7529201"><ele>588.0</ele><time>2026-04-03T14:29:06.22Z</time></trkpt><trkpt lat="44.3483896" lon="7.7527844"><ele>588.0</ele><time>2026-04-03T14:29:07.22Z</time></trkpt><trkpt lat="44.3483728" lon="7.7526692"><ele>588.0</ele><time>2026-04-03T14:29:08.22Z</time></trkpt><trkpt lat="44.3483904" lon="7.7525708"><ele>588.0</ele><time>2026-04-03T14:29:09.221Z</time></trkpt><trkpt lat="44.3484251" lon="7.7524512"><ele>588.0</ele><time>2026-04-03T14:29:11.22Z</time></trkpt></trkseg></trk></gpx>